[[{"header":{"parameterUnit":"m.s-1","parameterCategory":1,"la1":31.0,"la2":29.5877,"lo1":-88.7671,"lo2":-86.6584,"dy":0.0162,"dx":0.0185,"nx":115,"ny":88,"refTime":"2024-04-27T18:00:00:Z","depth":0,"parameterNumber":2,"parameterNumberName":"U-component_of_WINDS"},"data":[0.0,0.0,0.0,0.0,0.0,0.0,0.0,0.0,0.0,0.0,0.0,0.0,0.0,0.0,0.0,0.0,0.0,0.0,0.0,0.0,0.0,0.0,0.0,0.0,0.0,0.0,0.0,0.0,0.0,0.0,0.0,0.0,0.0,0.0,0.0,0.0,0.0,0.0,0.0,0.0,0.0,0.0,0.0,0.0,0.0,0.0,0.0,0.0,0.0,0.0,0.0,0.0,0.0,0.0,0.0,0.0,0.0,0.0,0.0,0.0,0.0,0.0,0.0,0.0,0.0,0.0,0.0,0.0,0.0,0.0,0.0,0.0,0.0,0.0,0.0,0.0,0.0,0.0,0.0,0.0,0.0,0.0,0.0,0.0,0.0,0.0,0.0,0.0,0.0,0.0,0.0,0.0,0.0,0.0,0.0,0.0,0.0,0.0,0.0,0.0,0.0,0.0,0.0,0.0,0.0,0.0,0.0,0.0,0.0,0.0,0.0,0.0,0.0,0.0,0.0,0.0,0.0,0.0,0.0,0.0,0.0,0.0,0.0,0.0,0.0,0.0,0.0,0.0,0.0,0.0,0.0,0.0,0.0,0.0,0.0,0.0,0.0,0.0,0.0,0.0,0.0,0.0,0.0,0.0,0.0,0.0,0.0,0.0,0.0,0.0,0.0,0.0,0.0,0.0,0.0,0.0,0.0,0.0,0.0,0.0,0.0,0.0,0.0,0.0,0.0,0.0,0.0,0.0,0.0,0.0,0.0,0.0,0.0,0.0,0.0,0.0,0.0,0.0,0.0,0.0,0.0,0.0,0.0,0.0,0.0,0.0,0.0,0.0,0.0,0.0,0.0,0.0,0.0,0.0,0.0,0.0,0.0,0.0,0.0,0.0,0.0,0.0,0.0,0.0,0.0,0.0,0.0,0.0,0.0,0.0,0.0,0.0,0.0,0.0,0.0,0.0,0.0,0.0,0.0,0.0,0.0,0.0,0.0,0.0,0.0,0.0,0.0,0.0,0.0,0.0,0.0,0.0,0.0,0.0,0.0,0.0,0.0,0.0,0.0,0.0,0.0,0.0,0.0,0.0,0.0,0.0,0.0,0.0,0.0,0.0,0.0,0.0,0.0,0.0,0.0,0.0,0.0,0.0,0.0,0.0,0.0,0.0,0.0,0.0,0.0,0.0,0.0,0.0,0.0,0.0,0.0,0.0,0.0,0.0,0.0,0.0,0.0,0.0,0.0,0.0,0.0,0.0,0.0,0.0,0.0,0.0,0.0,0.0,0.0,0.0,0.0,0.0,0.0,0.0,0.0,0.0,0.0,0.0,0.0,0.0,0.0,0.0,0.0,0.0,0.0,0.0,0.0,0.0,0.0,0.0,0.0,0.0,0.0,0.0,0.0,0.0,0.0,0.0,0.0,0.0,0.0,0.0,0.0,0.0,0.0,0.0,0.0,0.0,0.0,0.0,0.0,0.0,0.0,0.0,0.0,0.0,0.0,0.0,0.0,0.0,0.0,0.0,0.0,0.0,0.0,0.0,0.0,0.0,0.0,0.0,0.0,0.0,0.0,0.0,0.0,0.0,0.0,0.0,0.0,0.0,0.0,0.0,0.0,0.0,0.0,0.0,0.0,0.0,0.0,0.0,0.0,0.0,0.0,0.0,0.0,0.0,0.0,0.0,0.0,0.0,0.0,0.0,0.0,0.0,0.0,0.0,0.0,0.0,0.0,0.0,0.0,0.0,0.0,0.0,0.0,0.0,0.0,0.0,0.0,0.0,0.0,0.0,0.0,0.0,0.0,0.0,0.0,0.0,0.0,0.0,0.0,0.0,0.0,0.0,0.0,0.0,0.0,0.0,0.0,0.0,0.0,0.0,0.0,0.0,0.0,0.0,0.0,0.0,0.0,0.0,0.0,0.0,0.0,0.0,0.0,0.0,0.0,0.0,0.0,0.0,0.0,0.0,0.0,0.0,0.0,0.0,0.0,0.0,0.0,0.0,0.0,0.0,0.0,0.0,0.0,0.0,0.0,0.0,0.0,0.0,0.0,0.0,0.0,0.0,0.0,0.0,0.0,0.0,0.0,0.0,0.0,0.0,0.0,0.0,0.0,0.0,0.0,0.0,0.0,0.0,0.0,0.0,0.0,0.0,0.0,0.0,0.0,0.0,0.0,0.0,0.0,0.0,0.0,0.0,0.0,0.0,0.0,0.0,0.0,0.0,0.0,0.0,0.0,0.0,0.0,0.0,0.0,0.0,0.0,0.0,0.0,0.0,0.0,0.0,0.0,0.0,0.0,0.0,0.0,0.0,0.0,0.0,0.0,0.0,0.0,0.0,0.0,0.0,0.0,0.0,0.0,0.0,0.0,0.0,0.0,0.0,0.0,0.0,0.0,0.0,0.0,0.0,0.0,0.0,0.0,0.0,0.0,0.0,0.0,0.0,0.0,0.0,0.0,0.0,0.0,0.0,0.0,0.0,0.0,0.0,0.0,0.0,0.0,0.0,0.0,0.0,0.0,0.0,0.0,0.0,0.0,0.0,0.0,0.0,0.0,0.0,0.0,0.0,0.0,0.0,0.0,0.0,0.0,0.0,0.0,0.0,0.0,0.0,0.0,0.0,0.0,0.0,0.0,0.0,0.0,0.0,0.0,0.0,0.0,0.0,0.0,0.0,0.0,0.0,0.0,0.0,0.0,0.0,0.0,0.0,0.0,0.0,0.0,0.0,0.0,0.0,0.0,0.0,0.0,0.0,0.0,0.0,0.0,0.0,0.0,0.0,0.0,0.0,0.0,0.0,0.0,0.0,0.0,0.0,0.0,0.0,0.0,0.0,0.0,0.0,0.0,0.0,0.0,0.0,0.0,0.0,0.0,0.0,0.0,0.0,0.0,0.0,0.0,0.0,0.0,0.0,0.0,0.0,0.0,0.0,0.0,0.0,0.0,0.0,0.0,0.0,0.0,0.0,0.0,0.0,0.0,0.0,0.0,0.0,0.0,0.0,0.0,0.0,0.0,0.0,0.0,0.0,0.0,0.0,0.0,0.0,0.0,0.0,0.0,0.0,0.0,0.0,0.0,0.0,0.0,0.0,0.0,0.0,0.0,0.0,0.0,0.0,0.0,0.0,0.0,0.0,0.0,0.0,0.0,0.0,0.0,0.0,0.0,0.0,0.0,0.0,0.0,0.0,0.0,0.0,0.0,0.0,0.0,0.0,0.0,0.0,0.0,0.0,0.0,0.0,0.0,0.0,0.0,0.0,0.0,0.0,0.0,0.0,0.0,0.0,0.0,0.0,0.0,0.0,0.0,0.0,0.0,0.0,0.0,0.0,0.0,0.0,0.0,0.0,0.0,0.0,0.0,0.0,0.0,0.0,0.0,0.0,0.0,0.0,0.0,0.0,0.0,0.0,0.0,0.0,0.0,0.0,0.0,0.0,0.0,0.0,0.0,0.0,0.0,0.0,0.0,0.0,0.0,0.0,0.0,0.0,0.0,0.0,0.0,0.0,0.0,0.0,0.0,0.0,0.0,0.0,0.0,0.0,0.0,0.0,0.0,0.0,0.0,0.0,0.0,0.0,0.0,0.0,0.0,0.0,0.0,0.0,0.0,0.0,0.0,0.0,0.0,0.0,0.0,0.0,0.0,0.0,0.0,0.0,0.0,0.0,0.0,0.0,0.0,0.0,0.0,0.0,0.0,0.0,0.0,0.0,0.0,0.0,0.0,0.0,0.0,0.0,0.0,0.0,0.0,0.0,0.0,0.0,0.0,0.0,0.0,0.0,0.0,0.0,0.0,0.0,0.0,0.0,0.0,0.0,0.0,0.0,0.0,0.0,0.0,0.0,0.0,0.0,0.0,0.0,0.0,0.0,0.0,0.0,0.0,0.0,0.0,0.0,0.0,0.0,0.0,0.0,0.0,0.0,0.0,0.0,0.0,0.0,0.0,0.0,0.0,0.0,0.0,0.0,0.0,0.0,0.0,0.0,0.0,0.0,0.0,0.0,0.0,0.0,0.0,0.0,0.0,0.0,0.0,0.0,0.0,0.0,0.0,0.0,0.0,0.0,0.0,0.0,0.0,0.0,0.0,0.0,0.0,0.0,0.0,0.0,0.0,0.0,0.0,0.0,0.0,0.0,0.0,0.0,0.0,0.0,0.0,0.0,0.0,0.0,0.0,0.0,0.0,0.0,0.0,0.0,0.0,0.0,0.0,0.0,0.0,0.0,0.0,0.0,0.0,0.0,0.0,0.0,0.0,0.0,0.0,0.0,0.0,0.0,0.0,0.0,-1.9227,0.0,0.0,0.0,0.0,0.0,0.0,0.0,0.0,0.0,0.0,0.0,0.0,0.0,0.0,0.0,0.0,0.0,0.0,0.0,0.0,0.0,0.0,0.0,0.0,0.0,0.0,0.0,0.0,0.0,0.0,0.0,0.0,0.0,0.0,0.0,0.0,0.0,0.0,0.0,0.0,0.0,0.0,0.0,0.0,0.0,0.0,0.0,0.0,0.0,0.0,0.0,0.0,0.0,0.0,0.0,0.0,0.0,0.0,0.0,0.0,0.0,0.0,0.0,0.0,0.0,0.0,0.0,0.0,0.0,0.0,0.0,0.0,0.0,0.0,0.0,0.0,0.0,0.0,0.0,0.0,0.0,0.0,0.0,0.0,0.0,0.0,0.0,0.0,0.0,0.0,0.0,0.0,0.0,0.0,0.0,0.0,0.0,0.0,0.0,0.0,0.0,0.0,0.0,0.0,0.0,0.0,0.0,0.0,0.0,0.0,-1.9211,-1.9211,-1.9211,-1.9211,-1.9211,0.0,0.0,0.0,0.0,0.0,0.0,0.0,0.0,0.0,0.0,0.0,0.0,0.0,0.0,0.0,0.0,0.0,0.0,0.0,0.0,0.0,0.0,0.0,0.0,0.0,0.0,0.0,0.0,0.0,0.0,0.0,0.0,0.0,0.0,0.0,0.0,0.0,0.0,0.0,0.0,0.0,0.0,0.0,0.0,0.0,0.0,0.0,0.0,0.0,0.0,0.0,0.0,0.0,0.0,0.0,0.0,0.0,0.0,0.0,0.0,0.0,0.0,0.0,0.0,0.0,0.0,0.0,0.0,0.0,0.0,0.0,0.0,0.0,0.0,0.0,0.0,0.0,0.0,0.0,0.0,0.0,0.0,0.0,0.0,0.0,0.0,0.0,0.0,0.0,0.0,0.0,0.0,0.0,0.0,0.0,0.0,0.0,0.0,0.0,0.0,0.0,0.0,0.0,0.0,0.0,0.0,0.0,0.0,0.0,0.0,0.0,0.0,-1.9186,-1.9186,-1.9178,0.0,0.0,0.0,0.0,0.0,0.0,0.0,0.0,0.0,0.0,0.0,0.0,0.0,0.0,0.0,0.0,0.0,0.0,0.0,0.0,0.0,0.0,0.0,0.0,0.0,0.0,0.0,0.0,0.0,0.0,0.0,0.0,0.0,0.0,0.0,0.0,0.0,0.0,0.0,0.0,0.0,0.0,0.0,0.0,0.0,0.0,0.0,0.0,0.0,0.0,0.0,0.0,0.0,0.0,0.0,0.0,0.0,0.0,0.0,0.0,0.0,0.0,0.0,0.0,0.0,0.0,0.0,0.0,0.0,0.0,0.0,0.0,0.0,0.0,0.0,0.0,0.0,0.0,0.0,0.0,0.0,0.0,0.0,0.0,0.0,0.0,0.0,0.0,0.0,0.0,0.0,0.0,0.0,0.0,0.0,0.0,0.0,0.0,0.0,0.0,0.0,0.0,0.0,0.0,0.0,0.0,0.0,0.0,0.0,0.0,-1.9104,-1.9104,-1.9104,0.0,-1.9104,0.0,0.0,0.0,0.0,0.0,0.0,0.0,0.0,0.0,0.0,0.0,0.0,0.0,0.0,0.0,0.0,0.0,0.0,0.0,0.0,0.0,0.0,0.0,0.0,0.0,0.0,0.0,0.0,0.0,0.0,0.0,0.0,0.0,0.0,0.0,0.0,0.0,0.0,0.0,0.0,0.0,0.0,0.0,0.0,0.0,0.0,0.0,0.0,0.0,0.0,0.0,0.0,0.0,0.0,0.0,0.0,0.0,0.0,0.0,0.0,0.0,0.0,0.0,0.0,0.0,0.0,0.0,0.0,0.0,0.0,0.0,0.0,0.0,0.0,0.0,0.0,0.0,0.0,0.0,0.0,0.0,0.0,0.0,0.0,0.0,0.0,0.0,0.0,0.0,0.0,0.0,0.0,0.0,0.0,0.0,0.0,0.0,0.0,0.0,0.0,0.0,0.0,0.0,0.0,0.0,0.0,0.0,0.0,0.0,0.0,-1.9095,-1.9095,-1.9095,-1.9095,0.0,0.0,0.0,0.0,0.0,0.0,0.0,0.0,0.0,0.0,0.0,0.0,0.0,0.0,0.0,0.0,0.0,0.0,0.0,0.0,0.0,0.0,0.0,0.0,0.0,0.0,0.0,0.0,0.0,0.0,0.0,0.0,0.0,0.0,0.0,0.0,0.0,0.0,0.0,0.0,0.0,0.0,0.0,0.0,0.0,0.0,0.0,0.0,0.0,0.0,0.0,0.0,0.0,0.0,0.0,0.0,0.0,0.0,0.0,0.0,0.0,0.0,0.0,0.0,0.0,0.0,0.0,0.0,0.0,0.0,0.0,0.0,0.0,0.0,0.0,0.0,0.0,0.0,0.0,0.0,0.0,0.0,0.0,0.0,0.0,0.0,0.0,0.0,0.0,0.0,0.0,0.0,0.0,0.0,0.0,0.0,0.0,0.0,0.0,0.0,0.0,0.0,0.0,0.0,0.0,0.0,0.0,0.0,0.0,0.0,-1.9095,-1.9095,-1.9095,-1.9095,-1.9095,-1.9095,0.0,0.0,0.0,0.0,0.0,0.0,0.0,0.0,0.0,0.0,0.0,0.0,0.0,0.0,0.0,0.0,0.0,0.0,0.0,0.0,0.0,0.0,0.0,0.0,0.0,0.0,0.0,0.0,0.0,0.0,0.0,0.0,0.0,0.0,0.0,0.0,0.0,0.0,0.0,0.0,0.0,0.0,0.0,0.0,0.0,0.0,0.0,0.0,0.0,0.0,0.0,0.0,0.0,0.0,0.0,0.0,0.0,0.0,0.0,0.0,0.0,0.0,0.0,0.0,0.0,0.0,0.0,0.0,0.0,0.0,0.0,0.0,0.0,0.0,0.0,0.0,0.0,0.0,0.0,0.0,0.0,0.0,0.0,0.0,0.0,0.0,0.0,0.0,0.0,0.0,0.0,0.0,0.0,0.0,0.0,0.0,0.0,0.0,0.0,0.0,0.0,0.0,0.0,0.0,0.0,0.0,0.0,0.0,-1.9132,-1.9132,-1.9132,-1.9132,-1.9095,-1.9095,0.0,0.0,0.0,0.0,0.0,0.0,0.0,0.0,0.0,0.0,0.0,0.0,0.0,0.0,0.0,0.0,0.0,0.0,0.0,0.0,0.0,0.0,0.0,0.0,0.0,0.0,0.0,0.0,0.0,0.0,0.0,0.0,0.0,0.0,0.0,0.0,0.0,0.0,0.0,0.0,0.0,0.0,0.0,0.0,0.0,0.0,0.0,0.0,0.0,0.0,0.0,0.0,0.0,0.0,0.0,0.0,0.0,0.0,0.0,0.0,0.0,0.0,0.0,0.0,0.0,0.0,0.0,0.0,0.0,0.0,0.0,0.0,0.0,0.0,0.0,0.0,0.0,0.0,0.0,0.0,0.0,0.0,0.0,0.0,0.0,0.0,0.0,0.0,0.0,0.0,0.0,0.0,0.0,0.0,0.0,0.0,0.0,0.0,0.0,0.0,0.0,0.0,0.0,0.0,0.0,0.0,0.0,0.0,0.0,-1.9847,-2.0355,-2.0644,-2.0644,-2.0137,-1.9892,0.0,0.0,0.0,0.0,0.0,0.0,0.0,0.0,0.0,0.0,0.0,0.0,0.0,0.0,0.0,0.0,0.0,0.0,0.0,0.0,0.0,0.0,0.0,0.0,0.0,0.0,0.0,0.0,0.0,0.0,0.0,0.0,0.0,0.0,0.0,0.0,0.0,0.0,0.0,0.0,0.0,0.0,0.0,0.0,0.0,0.0,0.0,0.0,0.0,0.0,0.0,0.0,0.0,0.0,0.0,0.0,0.0,0.0,0.0,0.0,0.0,0.0,0.0,0.0,0.0,0.0,0.0,0.0,0.0,0.0,0.0,0.0,0.0,0.0,0.0,0.0,0.0,0.0,0.0,0.0,0.0,0.0,0.0,0.0,0.0,0.0,0.0,0.0,0.0,0.0,0.0,0.0,0.0,0.0,0.0,0.0,0.0,0.0,0.0,0.0,0.0,0.0,0.0,0.0,0.0,0.0,0.0,0.0,0.0,-2.068,0.0,-2.1468,-2.1468,-2.097,-2.0572,0.0,0.0,0.0,0.0,0.0,0.0,0.0,0.0,0.0,0.0,0.0,0.0,0.0,0.0,0.0,0.0,0.0,0.0,0.0,0.0,0.0,0.0,0.0,0.0,0.0,0.0,0.0,0.0,0.0,0.0,0.0,0.0,0.0,0.0,0.0,0.0,0.0,0.0,0.0,0.0,0.0,0.0,0.0,0.0,0.0,0.0,0.0,0.0,0.0,0.0,0.0,0.0,0.0,0.0,0.0,0.0,0.0,0.0,0.0,0.0,0.0,0.0,0.0,0.0,0.0,0.0,0.0,0.0,0.0,0.0,0.0,0.0,0.0,0.0,0.0,0.0,0.0,0.0,0.0,0.0,0.0,0.0,0.0,0.0,0.0,0.0,0.0,0.0,0.0,0.0,0.0,0.0,0.0,0.0,0.0,0.0,0.0,0.0,0.0,0.0,0.0,0.0,0.0,0.0,0.0,0.0,0.0,0.0,-2.0789,-2.155,-2.1649,-2.1794,-2.1586,-2.1649,-2.1178,0.0,0.0,0.0,0.0,0.0,0.0,0.0,0.0,0.0,0.0,0.0,0.0,0.0,0.0,0.0,0.0,0.0,0.0,0.0,0.0,0.0,0.0,0.0,0.0,0.0,0.0,0.0,0.0,0.0,0.0,0.0,0.0,0.0,0.0,0.0,0.0,0.0,0.0,0.0,0.0,0.0,0.0,0.0,0.0,0.0,0.0,0.0,0.0,0.0,0.0,0.0,0.0,0.0,0.0,0.0,0.0,0.0,0.0,0.0,0.0,0.0,0.0,0.0,0.0,0.0,0.0,0.0,0.0,0.0,0.0,0.0,0.0,0.0,0.0,0.0,0.0,0.0,0.0,0.0,0.0,0.0,0.0,0.0,0.0,0.0,0.0,0.0,0.0,0.0,0.0,0.0,0.0,0.0,0.0,0.0,0.0,0.0,0.0,0.0,0.0,0.0,0.0,0.0,0.0,0.0,0.0,0.0,0.0,0.0,-2.4726,-2.528,-2.5559,-2.5522,-2.4483,-2.3542,0.0,0.0,0.0,0.0,0.0,0.0,0.0,0.0,0.0,0.0,0.0,0.0,0.0,0.0,0.0,0.0,0.0,0.0,0.0,0.0,0.0,0.0,0.0,0.0,0.0,0.0,0.0,0.0,0.0,0.0,0.0,0.0,0.0,0.0,0.0,0.0,0.0,0.0,0.0,0.0,0.0,0.0,0.0,0.0,0.0,0.0,0.0,0.0,0.0,0.0,0.0,0.0,0.0,0.0,0.0,0.0,0.0,0.0,0.0,0.0,0.0,0.0,0.0,0.0,0.0,0.0,0.0,0.0,0.0,0.0,0.0,0.0,0.0,0.0,0.0,0.0,0.0,0.0,0.0,0.0,0.0,0.0,0.0,0.0,0.0,0.0,0.0,0.0,0.0,0.0,0.0,0.0,0.0,0.0,0.0,0.0,0.0,0.0,0.0,0.0,0.0,0.0,0.0,0.0,0.0,0.0,0.0,0.0,0.0,-2.9264,-2.8938,-2.8744,-2.8757,-2.7453,-2.5968,-2.4302,0.0,0.0,0.0,0.0,0.0,0.0,0.0,0.0,0.0,0.0,0.0,0.0,0.0,0.0,0.0,0.0,0.0,0.0,0.0,0.0,0.0,0.0,0.0,0.0,0.0,0.0,0.0,0.0,0.0,0.0,0.0,0.0,0.0,0.0,0.0,0.0,0.0,0.0,0.0,0.0,0.0,0.0,0.0,0.0,0.0,0.0,0.0,0.0,0.0,0.0,0.0,0.0,0.0,0.0,0.0,0.0,0.0,0.0,0.0,0.0,0.0,0.0,0.0,0.0,0.0,0.0,0.0,0.0,0.0,0.0,0.0,0.0,0.0,0.0,0.0,0.0,0.0,0.0,0.0,0.0,0.0,0.0,0.0,0.0,0.0,0.0,0.0,0.0,0.0,0.0,0.0,0.0,0.0,0.0,0.0,0.0,0.0,0.0,0.0,0.0,0.0,0.0,0.0,0.0,0.0,0.0,0.0,0.0,-3.4842,-3.2741,-3.156,-3.1329,-3.0473,-2.8516,0.0,0.0,0.0,0.0,0.0,0.0,0.0,0.0,0.0,0.0,0.0,0.0,0.0,0.0,0.0,0.0,0.0,0.0,0.0,0.0,0.0,0.0,0.0,0.0,0.0,0.0,0.0,0.0,0.0,0.0,0.0,0.0,0.0,0.0,0.0,0.0,0.0,0.0,0.0,0.0,0.0,0.0,0.0,0.0,0.0,0.0,0.0,0.0,0.0,0.0,0.0,0.0,0.0,0.0,0.0,0.0,0.0,0.0,0.0,0.0,0.0,0.0,0.0,0.0,0.0,0.0,0.0,0.0,0.0,0.0,0.0,0.0,0.0,0.0,0.0,0.0,0.0,0.0,0.0,0.0,0.0,0.0,0.0,0.0,0.0,0.0,0.0,0.0,0.0,0.0,0.0,0.0,0.0,0.0,0.0,0.0,0.0,0.0,0.0,0.0,0.0,0.0,0.0,0.0,0.0,0.0,0.0,0.0,0.0,-3.7957,-3.8645,-3.7812,-3.5509,-3.3516,-3.1524,0.0,0.0,0.0,0.0,0.0,0.0,0.0,0.0,0.0,0.0,0.0,0.0,0.0,0.0,0.0,0.0,0.0,0.0,0.0,0.0,0.0,0.0,0.0,0.0,0.0,0.0,0.0,0.0,0.0,0.0,0.0,0.0,0.0,0.0,0.0,0.0,0.0,0.0,0.0,0.0,0.0,0.0,0.0,0.0,0.0,0.0,0.0,0.0,0.0,0.0,0.0,0.0,0.0,0.0,0.0,0.0,0.0,0.0,0.0,0.0,0.0,0.0,0.0,0.0,0.0,0.0,0.0,0.0,0.0,0.0,0.0,0.0,0.0,0.0,0.0,0.0,0.0,0.0,0.0,0.0,0.0,0.0,0.0,0.0,0.0,0.0,0.0,0.0,0.0,0.0,0.0,0.0,0.0,0.0,0.0,0.0,0.0,0.0,0.0,0.0,0.0,0.0,0.0,0.0,0.0,0.0,0.0,0.0,-3.7667,-4.1289,-4.2918,-4.3008,-4.156,-3.7558,-3.432,0.0,0.0,0.0,0.0,0.0,0.0,0.0,0.0,0.0,0.0,0.0,0.0,0.0,0.0,0.0,0.0,0.0,0.0,0.0,0.0,0.0,0.0,0.0,0.0,0.0,0.0,0.0,0.0,0.0,0.0,0.0,0.0,0.0,0.0,0.0,0.0,0.0,0.0,0.0,0.0,0.0,0.0,0.0,0.0,0.0,0.0,0.0,0.0,0.0,0.0,0.0,0.0,0.0,0.0,0.0,0.0,0.0,0.0,0.0,0.0,0.0,0.0,0.0,0.0,0.0,0.0,0.0,0.0,0.0,0.0,0.0,0.0,0.0,0.0,0.0,0.0,0.0,0.0,0.0,0.0,0.0,0.0,0.0,0.0,0.0,0.0,0.0,0.0,0.0,0.0,0.0,0.0,0.0,0.0,0.0,0.0,0.0,0.0,0.0,0.0,0.0,0.0,0.0,0.0,0.0,0.0,0.0,0.0,-4.1107,-4.4258,-4.5997,-4.7207,-4.7714,-4.1741,-3.6982,0.0,0.0,0.0,0.0,0.0,0.0,0.0,0.0,0.0,0.0,0.0,0.0,0.0,0.0,0.0,0.0,0.0,0.0,0.0,0.0,0.0,0.0,0.0,0.0,0.0,0.0,0.0,0.0,0.0,0.0,0.0,0.0,0.0,0.0,0.0,0.0,0.0,0.0,0.0,0.0,0.0,0.0,0.0,0.0,0.0,0.0,0.0,0.0,0.0,0.0,0.0,0.0,0.0,0.0,0.0,0.0,0.0,0.0,0.0,0.0,0.0,0.0,0.0,0.0,0.0,0.0,0.0,0.0,0.0,0.0,0.0,0.0,0.0,0.0,0.0,0.0,0.0,0.0,0.0,0.0,0.0,0.0,0.0,0.0,0.0,0.0,0.0,0.0,0.0,0.0,0.0,0.0,0.0,0.0,0.0,0.0,0.0,0.0,0.0,0.0,0.0,0.0,0.0,0.0,0.0,0.0,0.0,0.0,-4.2774,-4.5924,-4.817,-4.938,-4.9378,-4.3237,-3.9011,0.0,0.0,0.0,0.0,0.0,0.0,0.0,0.0,0.0,0.0,0.0,0.0,0.0,0.0,0.0,0.0,0.0,0.0,0.0,0.0,0.0,0.0,0.0,0.0,0.0,0.0,0.0,0.0,0.0,0.0,0.0,0.0,0.0,0.0,0.0,0.0,0.0,0.0,0.0,0.0,0.0,0.0,0.0,0.0,0.0,0.0,0.0,0.0,-2.1096,0.0,0.0,0.0,0.0,0.0,0.0,0.0,0.0,0.0,0.0,0.0,0.0,0.0,0.0,0.0,0.0,0.0,0.0,0.0,0.0,0.0,0.0,0.0,0.0,0.0,0.0,0.0,0.0,0.0,0.0,0.0,0.0,0.0,0.0,0.0,0.0,0.0,0.0,0.0,0.0,0.0,0.0,0.0,0.0,0.0,0.0,0.0,0.0,0.0,0.0,0.0,0.0,0.0,0.0,0.0,0.0,0.0,0.0,0.0,-4.4947,-4.8098,-5.0118,-5.1099,-5.0836,-4.5498,-4.119,0.0,0.0,0.0,0.0,0.0,0.0,0.0,0.0,0.0,0.0,0.0,0.0,0.0,0.0,0.0,0.0,0.0,0.0,0.0,0.0,0.0,0.0,0.0,0.0,0.0,0.0,0.0,0.0,0.0,0.0,0.0,0.0,0.0,0.0,0.0,0.0,0.0,0.0,0.0,0.0,0.0,0.0,0.0,0.0,0.0,0.0,0.0,0.0,0.0,0.0,0.0,0.0,0.0,0.0,0.0,0.0,0.0,0.0,0.0,0.0,0.0,0.0,0.0,0.0,0.0,0.0,0.0,0.0,0.0,0.0,0.0,0.0,0.0,0.0,0.0,0.0,0.0,0.0,0.0,0.0,0.0,0.0,0.0,0.0,0.0,0.0,0.0,0.0,0.0,0.0,0.0,0.0,0.0,0.0,0.0,0.0,0.0,0.0,0.0,0.0,0.0,0.0,0.0,0.0,0.0,0.0,0.0,-4.2375,-4.7083,-5.0321,-5.1907,-5.2522,-5.2197,-4.7756,-4.3381,-3.9154,0.0,0.0,0.0,0.0,0.0,0.0,0.0,0.0,0.0,0.0,0.0,0.0,0.0,0.0,0.0,0.0,0.0,0.0,0.0,0.0,0.0,0.0,0.0,0.0,0.0,0.0,0.0,0.0,0.0,0.0,0.0,0.0,0.0,0.0,0.0,0.0,0.0,0.0,-1.8299,-1.9912,0.0,0.0,0.0,0.0,0.0,0.0,0.0,0.0,-2.4798,0.0,0.0,0.0,0.0,0.0,0.0,0.0,0.0,0.0,0.0,0.0,0.0,0.0,0.0,0.0,0.0,0.0,0.0,0.0,0.0,0.0,0.0,0.0,0.0,0.0,0.0,0.0,0.0,0.0,0.0,0.0,0.0,0.0,0.0,0.0,0.0,0.0,0.0,0.0,0.0,0.0,0.0,0.0,0.0,0.0,0.0,0.0,0.0,0.0,0.0,0.0,0.0,0.0,0.0,0.0,0.0,-3.8753,-4.3751,-4.8164,-5.1847,-5.3508,-5.3591,-5.1969,-4.9267,-4.5294,-3.9935,0.0,0.0,0.0,0.0,0.0,0.0,0.0,0.0,0.0,0.0,0.0,0.0,0.0,0.0,0.0,0.0,0.0,0.0,0.0,0.0,0.0,0.0,0.0,0.0,0.0,0.0,0.0,0.0,0.0,0.0,0.0,0.0,0.0,0.0,0.0,0.0,0.0,0.0,0.0,-2.2289,-2.3529,0.0,0.0,0.0,0.0,0.0,0.0,0.0,0.0,-2.5301,0.0,0.0,0.0,0.0,0.0,0.0,0.0,0.0,0.0,0.0,0.0,0.0,0.0,0.0,0.0,0.0,0.0,0.0,0.0,0.0,0.0,0.0,0.0,0.0,0.0,0.0,0.0,0.0,0.0,0.0,0.0,0.0,0.0,0.0,0.0,0.0,0.0,0.0,0.0,0.0,0.0,0.0,0.0,0.0,0.0,0.0,0.0,0.0,0.0,0.0,0.0,0.0,0.0,0.0,0.0,-3.879,-4.386,-4.7998,-5.0994,-5.2943,-5.3133,-5.1286,-4.8529,-4.4814,0.0,0.0,0.0,0.0,0.0,0.0,0.0,0.0,0.0,0.0,0.0,0.0,0.0,0.0,0.0,0.0,0.0,0.0,0.0,0.0,0.0,0.0,0.0,0.0,0.0,0.0,0.0,0.0,0.0,0.0,0.0,0.0,0.0,0.0,0.0,0.0,0.0,0.0,0.0,0.0,-2.406,-2.5577,-2.7109,0.0,0.0,0.0,0.0,0.0,0.0,-2.873,-2.7833,0.0,0.0,0.0,0.0,0.0,0.0,0.0,0.0,0.0,0.0,0.0,0.0,0.0,0.0,0.0,0.0,0.0,0.0,0.0,0.0,0.0,0.0,0.0,0.0,0.0,0.0,0.0,0.0,0.0,0.0,0.0,0.0,0.0,0.0,0.0,0.0,0.0,0.0,0.0,0.0,0.0,0.0,0.0,0.0,0.0,0.0,0.0,0.0,0.0,0.0,0.0,0.0,0.0,0.0,0.0,-3.8898,-4.3896,-4.7723,-5.0262,-5.2258,-5.246,-5.0665,-4.753,-4.3964,0.0,0.0,0.0,0.0,0.0,0.0,0.0,0.0,0.0,0.0,0.0,0.0,0.0,0.0,0.0,0.0,0.0,0.0,0.0,0.0,0.0,0.0,0.0,0.0,0.0,0.0,0.0,0.0,0.0,0.0,0.0,0.0,0.0,0.0,0.0,0.0,0.0,0.0,0.0,0.0,0.0,-2.7454,-2.9834,-2.9282,0.0,0.0,0.0,0.0,-3.1351,-3.111,0.0,0.0,0.0,0.0,0.0,0.0,0.0,0.0,0.0,0.0,0.0,0.0,0.0,0.0,0.0,0.0,0.0,0.0,0.0,0.0,0.0,0.0,0.0,0.0,0.0,0.0,0.0,0.0,0.0,0.0,0.0,0.0,0.0,0.0,0.0,0.0,0.0,0.0,0.0,0.0,0.0,0.0,0.0,0.0,0.0,0.0,0.0,0.0,0.0,0.0,0.0,0.0,0.0,0.0,0.0,0.0,-4.1162,-4.4729,-4.8244,-5.1682,-5.2785,-5.24,-5.0519,-4.7461,-4.3964,0.0,0.0,0.0,0.0,0.0,0.0,0.0,0.0,0.0,0.0,0.0,0.0,0.0,0.0,0.0,0.0,0.0,0.0,0.0,0.0,0.0,0.0,0.0,0.0,0.0,0.0,0.0,0.0,0.0,0.0,0.0,0.0,0.0,0.0,0.0,0.0,0.0,0.0,0.0,0.0,0.0,-2.9179,-3.211,-3.0731,-3.0662,0.0,0.0,-3.2145,-3.3509,-3.2559,0.0,0.0,0.0,0.0,0.0,0.0,0.0,0.0,0.0,0.0,0.0,0.0,0.0,0.0,0.0,0.0,0.0,0.0,0.0,0.0,0.0,0.0,0.0,0.0,0.0,0.0,0.0,0.0,0.0,0.0,0.0,0.0,0.0,0.0,0.0,0.0,0.0,0.0,0.0,0.0,0.0,0.0,0.0,0.0,0.0,0.0,0.0,0.0,0.0,0.0,0.0,0.0,0.0,0.0,0.0,-3.5928,-4.0908,-4.4186,-4.7391,-5.0592,-5.1527,-5.1263,-4.9852,-4.6333,-4.3072,0.0,0.0,0.0,0.0,0.0,0.0,0.0,0.0,0.0,0.0,0.0,0.0,0.0,0.0,0.0,0.0,0.0,0.0,0.0,0.0,0.0,0.0,0.0,0.0,0.0,0.0,0.0,0.0,0.0,0.0,0.0,0.0,0.0,0.0,0.0,0.0,0.0,0.0,0.0,0.0,0.0,0.0,-3.449,-3.3973,0.0,0.0,0.0,-3.5387,-3.6512,0.0,0.0,0.0,0.0,0.0,0.0,0.0,0.0,0.0,0.0,0.0,0.0,0.0,0.0,0.0,0.0,0.0,0.0,0.0,0.0,0.0,0.0,0.0,0.0,0.0,0.0,0.0,0.0,0.0,0.0,0.0,0.0,0.0,0.0,0.0,0.0,0.0,0.0,0.0,0.0,0.0,0.0,0.0,0.0,0.0,0.0,0.0,0.0,0.0,0.0,0.0,0.0,0.0,0.0,0.0,0.0,0.0,-4.0438,-4.364,-4.6684,-4.9585,-5.046,-5.0378,-4.9281,-4.5691,0.0,0.0,0.0,0.0,0.0,0.0,0.0,0.0,0.0,0.0,0.0,0.0,0.0,0.0,0.0,0.0,0.0,0.0,0.0,0.0,0.0,0.0,0.0,0.0,0.0,0.0,0.0,-2.0038,0.0,0.0,0.0,0.0,0.0,0.0,0.0,0.0,0.0,0.0,0.0,0.0,0.0,0.0,-3.4007,-3.7008,-3.6973,-3.7525,0.0,0.0,-3.8548,-3.91,-3.787,-3.6042,0.0,0.0,0.0,0.0,0.0,0.0,0.0,0.0,0.0,0.0,0.0,0.0,0.0,0.0,0.0,0.0,0.0,0.0,0.0,0.0,0.0,0.0,0.0,0.0,0.0,0.0,0.0,0.0,0.0,0.0,0.0,0.0,0.0,0.0,0.0,0.0,0.0,0.0,0.0,0.0,0.0,0.0,0.0,0.0,0.0,0.0,0.0,0.0,0.0,0.0,0.0,0.0,0.0,0.0,0.0,-4.0401,-4.3543,-4.6578,-4.9585,-5.0366,-5.0247,-4.9257,-4.619,-4.3408,0.0,0.0,0.0,0.0,0.0,0.0,0.0,0.0,0.0,0.0,0.0,0.0,0.0,0.0,0.0,0.0,0.0,0.0,0.0,0.0,0.0,0.0,0.0,0.0,0.0,0.0,0.0,0.0,0.0,0.0,0.0,0.0,0.0,0.0,0.0,0.0,0.0,0.0,0.0,0.0,0.0,-3.4766,-3.9894,-3.8789,-3.8755,0.0,0.0,-4.0687,-4.0756,-3.9445,-3.7422,-3.451,0.0,0.0,0.0,0.0,0.0,0.0,0.0,0.0,0.0,0.0,0.0,0.0,0.0,0.0,0.0,0.0,0.0,0.0,0.0,0.0,0.0,0.0,0.0,0.0,0.0,0.0,0.0,0.0,0.0,0.0,0.0,0.0,0.0,0.0,0.0,0.0,0.0,0.0,0.0,0.0,0.0,0.0,0.0,0.0,0.0,0.0,0.0,0.0,0.0,0.0,0.0,0.0,0.0,-3.5953,-3.9661,-4.3251,-4.632,-4.8716,-4.9566,-4.9782,-4.9293,-4.582,-4.2802,0.0,0.0,0.0,0.0,0.0,0.0,0.0,0.0,0.0,0.0,0.0,0.0,0.0,0.0,0.0,0.0,0.0,0.0,0.0,0.0,0.0,0.0,0.0,0.0,0.0,0.0,0.0,0.0,-2.6317,-2.6516,-2.6368,0.0,0.0,0.0,0.0,0.0,0.0,0.0,0.0,0.0,0.0,-3.7491,-4.048,-4.0963,0.0,0.0,-4.2275,-4.1585,-4.1585,-3.9905,-3.8065,-3.6477,-3.3628,0.0,0.0,0.0,0.0,0.0,0.0,0.0,0.0,0.0,0.0,0.0,0.0,0.0,0.0,0.0,0.0,0.0,0.0,0.0,0.0,0.0,0.0,0.0,0.0,0.0,0.0,0.0,0.0,0.0,0.0,0.0,0.0,0.0,0.0,0.0,0.0,0.0,0.0,0.0,0.0,0.0,0.0,0.0,0.0,0.0,0.0,0.0,0.0,0.0,0.0,0.0,0.0,-3.6226,-3.9518,-4.3156,-4.6097,-4.8253,-4.903,-4.9412,-4.921,-4.5726,-4.2944,0.0,0.0,0.0,0.0,0.0,0.0,0.0,0.0,0.0,0.0,0.0,0.0,0.0,0.0,0.0,0.0,0.0,0.0,0.0,0.0,0.0,0.0,0.0,0.0,0.0,0.0,0.0,0.0,-2.779,-2.7436,-2.6792,0.0,0.0,0.0,0.0,0.0,0.0,0.0,0.0,0.0,0.0,-3.902,-4.125,-4.2309,-4.3,-4.3448,-4.2861,-4.225,-4.2033,-4.025,-3.8617,-3.765,0.0,0.0,0.0,0.0,0.0,0.0,0.0,0.0,0.0,0.0,0.0,0.0,0.0,0.0,0.0,0.0,0.0,0.0,0.0,0.0,0.0,0.0,0.0,0.0,0.0,0.0,0.0,0.0,0.0,0.0,-3.227,0.0,0.0,0.0,0.0,0.0,0.0,0.0,0.0,0.0,0.0,0.0,0.0,0.0,0.0,0.0,0.0,0.0,0.0,0.0,0.0,0.0,0.0,-3.6515,-4.0329,-4.3348,-4.5975,-4.8181,-4.8936,-4.9281,-4.9186,-4.6226,-4.4193,-4.3322,0.0,0.0,0.0,0.0,0.0,0.0,0.0,0.0,0.0,0.0,0.0,0.0,0.0,0.0,0.0,0.0,0.0,0.0,0.0,0.0,0.0,0.0,0.0,0.0,0.0,0.0,-2.9332,-2.9368,-2.8544,0.0,0.0,0.0,0.0,0.0,0.0,0.0,0.0,0.0,0.0,-3.6298,-3.8723,-4.2526,-4.2516,-4.262,-4.4,-4.3586,-4.2861,-4.2102,-4.0664,-3.9203,0.0,0.0,0.0,0.0,0.0,0.0,0.0,0.0,0.0,0.0,0.0,0.0,0.0,0.0,0.0,0.0,0.0,0.0,0.0,0.0,0.0,0.0,0.0,0.0,0.0,0.0,0.0,-3.6596,-3.658,0.0,0.0,0.0,0.0,0.0,0.0,0.0,0.0,0.0,0.0,0.0,-4.0908,-4.118,0.0,0.0,0.0,0.0,0.0,0.0,0.0,0.0,0.0,0.0,0.0,0.0,-3.78,-3.9517,-4.3057,-4.5466,-4.6637,-4.7913,-4.8591,-4.8532,-4.5976,-4.3729,-4.1966,0.0,0.0,0.0,0.0,0.0,0.0,0.0,0.0,0.0,0.0,0.0,0.0,0.0,0.0,0.0,0.0,0.0,0.0,0.0,0.0,0.0,0.0,0.0,0.0,0.0,-2.8319,0.0,0.0,0.0,0.0,0.0,0.0,0.0,0.0,0.0,0.0,0.0,-3.2849,-3.5888,-3.7775,-3.9662,-4.1955,-4.2605,-4.2792,0.0,0.0,0.0,0.0,0.0,0.0,0.0,0.0,0.0,0.0,0.0,0.0,0.0,0.0,-2.6128,-2.3888,-2.3026,-2.2923,-2.3681,0.0,0.0,0.0,0.0,0.0,0.0,0.0,0.0,0.0,0.0,0.0,0.0,0.0,0.0,0.0,0.0,-3.9966,0.0,0.0,0.0,0.0,0.0,0.0,0.0,0.0,-4.2158,-4.3027,-4.4548,-4.4584,-4.4403,0.0,-4.3587,-4.1216,0.0,0.0,0.0,0.0,0.0,0.0,0.0,0.0,-3.9137,-3.9661,-4.3344,-4.5502,-4.5886,-4.74,-4.8091,-4.777,-4.5463,-4.323,-4.1145,-3.9111,-3.7791,0.0,0.0,0.0,0.0,0.0,0.0,0.0,0.0,0.0,0.0,0.0,0.0,0.0,0.0,0.0,0.0,0.0,0.0,0.0,0.0,0.0,0.0,0.0,-2.9744,0.0,0.0,0.0,0.0,0.0,0.0,0.0,0.0,0.0,-3.048,-3.232,-3.4453,-3.6707,-3.8459,-4.0072,-4.1606,0.0,0.0,0.0,0.0,0.0,0.0,0.0,-3.9698,-3.9698,-3.8249,-3.6835,-3.6111,-3.4337,-3.2662,-3.1662,0.0,0.0,-2.6419,-2.5385,-2.5267,-2.604,-2.6764,-2.7523,-2.8316,-2.8712,-2.9006,0.0,0.0,0.0,0.0,0.0,0.0,0.0,0.0,-4.4548,-4.4186,0.0,-4.3353,0.0,0.0,0.0,0.0,0.0,0.0,0.0,0.0,-4.5381,-4.625,-4.7699,-4.7735,-4.7373,-4.6649,-4.6576,-4.5743,-4.4077,-4.1144,0.0,0.0,0.0,0.0,0.0,0.0,-4.0492,-4.0582,-4.414,-4.6047,-4.6032,-4.7387,-4.777,-4.689,-4.4714,-4.2766,-4.1252,-4.1038,-4.0396,-3.8933,-3.7327,0.0,0.0,0.0,0.0,0.0,0.0,0.0,0.0,0.0,0.0,0.0,0.0,0.0,0.0,0.0,0.0,0.0,0.0,0.0,0.0,-3.2094,0.0,0.0,0.0,0.0,0.0,0.0,0.0,0.0,0.0,0.0,-3.136,-3.3795,-3.5949,-3.6933,0.0,0.0,0.0,0.0,-4.117,-4.1861,-4.1378,-4.0894,-4.0894,-4.025,-3.9767,-3.9733,0.0,0.0,-3.765,-3.6305,-3.5249,-3.5214,-3.3938,-3.1834,-2.8298,-2.7558,-2.7696,-2.842,-2.9144,-2.9868,-3.0627,-3.1282,-3.1765,-5.4229,0.0,0.0,0.0,0.0,-4.8372,-4.8206,-4.7823,-4.7627,-4.7228,-4.6649,-4.6432,0.0,0.0,0.0,0.0,0.0,0.0,-4.6142,-4.7844,-4.7859,-4.8424,-4.9401,-4.9401,-4.9257,-4.9075,-4.9097,-4.8532,-4.7518,-4.6033,-4.3788,-4.0727,0.0,0.0,0.0,0.0,-4.1595,-4.2188,-4.4232,-4.553,-4.5996,-4.6887,-4.6676,-4.532,-4.4143,-4.3001,-4.1966,-4.1395,-4.0895,-4.0467,-3.8968,0.0,0.0,0.0,0.0,0.0,0.0,0.0,0.0,0.0,0.0,0.0,0.0,0.0,0.0,0.0,0.0,0.0,0.0,0.0,-3.3156,-3.2969,-3.2353,0.0,0.0,0.0,0.0,0.0,0.0,0.0,0.0,0.0,-3.3444,-3.4742,-3.6299,0.0,0.0,-3.9758,-4.0764,-4.0889,-4.0963,-4.117,0.0,0.0,0.0,-4.0722,-4.0549,-4.0584,-3.9928,-3.9146,-3.8387,-3.7905,-3.7249,-3.6215,-3.5628,-3.4594,-3.2628,-3.1214,-3.0834,-3.1455,-3.18,-3.2179,-3.2957,-3.3337,-3.3455,-6.0042,-5.65,-5.3639,-5.2408,-5.2444,-5.2444,-5.2154,-5.1719,-5.1393,-5.0828,-5.009,-4.9764,-4.8713,-4.7156,-4.654,0.0,0.0,0.0,-4.8786,-5.0343,-5.0669,-5.1249,-5.1937,-5.1683,-5.1502,-5.1525,-5.0873,-5.0343,-4.9836,-4.9039,-4.7265,-4.4601,0.0,0.0,-4.1977,-4.3353,-4.3966,-4.3871,-4.5539,-4.6478,-4.6593,-4.6297,-4.565,-4.4621,-4.3572,-4.2787,-4.2343,-4.1843,-4.1573,-4.1573,-4.0681,-3.9449,0.0,0.0,0.0,0.0,0.0,0.0,0.0,0.0,0.0,0.0,0.0,-2.8252,-3.0924,0.0,0.0,0.0,-3.4499,-3.5085,-3.5595,-3.4239,0.0,0.0,0.0,0.0,0.0,0.0,0.0,-3.1075,-3.2104,-3.3288,-3.4742,-3.5859,-3.7009,-3.8396,-3.9316,-3.9997,-4.0441,0.0,-4.0894,-4.0894,-4.0894,-4.0894,-4.0894,-4.0894,-4.0894,-4.0894,-4.0515,-4.0043,-3.9618,-3.9284,-3.8698,-3.787,-3.718,-3.649,-3.5614,-3.4421,-3.3455,-3.3421,-3.3628,-3.3973,-3.4476,-3.4786,-3.4973,-6.4541,-6.2983,-5.8456,-5.6464,-5.6283,-5.6283,-5.621,-5.6138,-5.545,-5.4725,-5.3929,-5.3132,-5.19,-5.0293,-4.8786,0.0,-4.9329,-5.0053,-5.1212,-5.2697,-5.3458,-5.4182,-5.4834,-5.411,-5.3784,-5.3748,-5.2226,-5.1466,-5.143,-5.0597,-4.98,-4.9018,-4.6794,-4.5236,-4.4548,-4.6504,-4.6939,-4.5635,-4.7608,-4.8301,-4.758,-4.5839,-4.4807,-4.4628,-4.32,-4.2399,-4.2328,-4.2379,-4.2379,-4.2415,-4.245,-4.1772,-4.0182,0.0,0.0,0.0,0.0,0.0,0.0,0.0,0.0,0.0,0.0,0.0,0.0,0.0,0.0,0.0,-3.7344,0.0,-3.7866,-3.57,0.0,0.0,0.0,-3.0228,-2.9547,-3.0014,-3.0649,-3.136,0.0,0.0,-3.543,0.0,-3.7898,-3.7898,-3.9384,-4.051,-4.051,-4.0728,-4.0894,-4.0894,-4.0894,-4.0894,-4.0894,-4.0894,-4.0894,-4.0894,-4.0894,-4.086,-4.0791,-4.0284,-3.9802,-3.956,-3.856,-3.7581,-3.7512,-3.6697,-3.5939,-3.4545,-3.48,-3.5249,-3.5318,-3.5766,-3.6146,-6.6283,-6.483,-6.2476,-6.0412,-5.8746,-5.8746,-5.8383,-5.784,-5.7659,-5.7116,-5.6319,-5.5522,-5.4291,-5.2806,-5.1792,-5.1792,-5.2589,-5.277,-5.3385,-5.4327,-5.4544,-5.4725,-5.487,-5.4725,-5.4617,-5.4544,-5.3603,-5.3132,-5.3059,-5.1683,-5.0945,-5.0669,-4.9568,-4.8242,-4.6902,-4.683,-4.7228,-4.804,-4.8475,-4.8568,-4.8227,-4.6687,-4.5551,-4.4935,-4.3965,-4.314,-4.2566,-4.3023,-4.3304,-4.3304,-4.3877,-4.3441,-4.1808,-4.0887,0.0,0.0,0.0,0.0,0.0,0.0,0.0,0.0,0.0,-3.327,-3.6381,0.0,-3.7665,0.0,-3.8596,-3.7886,-3.7286,-3.6077,0.0,0.0,-3.3815,-3.3024,-3.2642,-3.2713,-3.3019,-3.3647,-3.3998,-3.4573,-3.5498,-3.6918,-3.7898,-3.7922,-3.9384,-4.051,-4.051,-4.0728,-4.0894,-4.0894,-4.0894,-4.0894,-4.0894,-4.0894,-4.0894,-4.0894,-4.0894,-4.0894,-4.0894,-4.0791,-4.0446,-3.9836,-3.9457,-3.8767,-3.7719,-3.734,-3.6891,-3.6008,-3.5904,-3.6042,-3.6042,-3.618,-3.6284,-6.6506,-6.5482,-6.3852,-6.2223,-6.0638,-6.0638,-6.0231,-5.9506,-5.947,-5.9035,-5.8202,-5.7406,-5.6609,-5.574,-5.4943,-5.4834,-5.5269,-5.5631,-5.5848,-5.5957,-5.6319,-5.6283,-5.5921,-5.5558,-5.5377,-5.5341,-5.4255,-5.3711,-5.3639,-5.2444,-5.1647,-5.1285,-5.051,-4.9655,-4.8786,-4.8677,-4.9075,-4.9945,-4.9517,-4.9067,-4.856,-4.7047,-4.6017,-4.5558,-4.4767,-4.4119,-4.3688,-4.4058,-4.4175,-4.4169,-4.4922,-4.4592,-4.2929,-4.245,-4.0875,0.0,0.0,0.0,0.0,0.0,0.0,0.0,0.0,0.0,0.0,0.0,-3.8977,-4.0166,-3.916,-3.8172,-3.7651,-3.642,-3.5654,-3.5536,-3.4664,-3.4037,-3.3882,-3.3714,-3.3841,-3.4512,-3.4549,-3.4776,-3.5532,-3.6671,-3.755,-3.7855,-3.9074,-4.0061,-4.0466,-4.0728,-4.0894,-4.0894,-4.0894,-4.0894,-4.0894,-4.0894,-4.0894,-4.0894,-4.0894,-4.0894,-4.0894,-4.0584,-4.0319,-4.0181,-3.9422,-3.8594,-3.8065,-3.7409,-3.6822,-3.6456,-3.6284,-3.6284,-3.6284,-3.6284,-3.6284,-6.5875,-6.5243,-6.3788,-6.2774,-6.2095,-6.2014,-6.158,-6.0955,-6.0955,-6.052,-5.9724,-5.8999,-5.8637,-5.8528,-5.7804,-5.7514,-5.755,-5.8239,-5.813,-5.7406,-5.8058,-5.7985,-5.7188,-5.6464,-5.6102,-5.5921,-5.4544,-5.382,-5.3675,-5.277,-5.1973,-5.1285,-5.051,-5.0112,-5.0148,-5.08,-5.114,-5.1162,-5.0474,-4.9647,-4.8742,-4.7349,-4.6513,-4.6233,-4.5564,-4.5132,-4.506,-4.5111,-4.512,-4.5014,-4.571,-4.5358,-4.3729,-4.3501,-4.2406,0.0,-3.8424,0.0,0.0,0.0,0.0,0.0,0.0,0.0,0.0,-3.9328,-4.0005,-4.0627,-3.9217,-3.8239,-3.8168,-3.6759,-3.5852,-3.5832,-3.4985,-3.4426,-3.4387,-3.409,-3.4155,-3.4768,-3.4728,-3.4912,-3.5532,-3.6299,-3.71,-3.7652,-3.8594,-3.9486,-4.0188,-4.0635,-4.0871,-4.0871,-4.0894,-4.0894,-4.0894,-4.0894,-4.0894,-4.0894,-4.0756,-4.0756,-4.0687,-4.0066,-3.9767,-4.0204,-3.8974,-3.7961,-3.8387,-3.7353,-3.649,-3.6318,-3.6284,-3.6284,-3.6284,-3.6284,-3.6284,-6.5045,-6.4158,-6.3372,-6.2931,-6.2779,-6.224,-6.1906,-6.1761,-6.1761,-6.129,-6.0566,-6.0412,-5.9977,-5.9398,-5.9216,-5.9144,-5.918,-5.9325,-5.8927,-5.8202,-5.8347,-5.7985,-5.7224,-5.7043,-5.6645,-5.5957,-5.5088,-5.4327,-5.3675,-5.2226,-5.143,-5.1285,-5.0488,-5.0112,-5.0112,0.0,0.0,0.0,-5.0184,-4.9691,-4.8887,-4.8562,-4.7766,-4.6515,-4.6298,0.0,-4.5285,-4.5735,-4.5953,-4.5946,-4.6489,0.0,0.0,0.0,0.0,0.0,0.0,0.0,0.0,0.0,0.0,0.0,-3.8585,-3.8963,-4.0052,-4.0403,-4.0359,-3.9863,-3.8899,-3.8027,-3.7408,-3.6993,-3.67,-3.6601,-3.6356,-3.611,-3.589,-3.5659,-3.5569,-3.5562,-3.5486,-3.5453,-3.56,-3.6299,-3.6829,-3.71,-3.8279,-3.92,-3.9428,-4.0216,-4.0752,-4.0871,-4.0894,-4.0894,-4.0894,-4.0894,-4.0825,-4.086,-4.0342,-3.9974,-3.9871,-3.9319,-3.8836,-3.91,-3.8663,-3.8168,-3.7823,-3.7478,-3.6995,-3.6422,-3.6284,-3.6284,-3.6284,-3.6284,-3.6284,-6.3833,0.0,-6.2694,-6.2398,0.0,-6.167,-6.1399,-6.1435,-6.1833,-6.1761,-6.1426,-6.1426,-6.1145,-6.0783,-6.081,-6.0774,-6.0783,-6.0783,-6.0122,-5.8999,-5.8999,-5.813,-5.6609,-5.6609,-5.621,-5.545,-5.4689,-5.3892,-5.3059,-5.1864,-5.0886,-5.0126,-4.9691,-4.9293,-4.8931,-4.8894,-4.9293,-5.0112,-4.9691,-4.9293,-4.8873,-4.8511,-4.7932,-4.712,0.0,0.0,0.0,0.0,0.0,0.0,0.0,0.0,0.0,0.0,0.0,-4.1286,-4.0785,-4.0369,-3.9884,-3.9533,-3.9463,-3.9849,-4.0235,-4.0467,-4.0567,-4.0595,-4.032,-3.9523,-3.8707,-3.7877,-3.7138,-3.7009,-3.695,-3.6891,-3.6786,-3.6623,-3.6485,-3.6191,-3.5975,-3.5888,-3.5734,-3.56,-3.56,-3.5926,-3.6366,-3.6761,-3.7452,-3.8313,-3.9098,-4.0017,-4.0631,-4.0776,-4.0881,-4.0894,-4.086,-4.0515,-4.0284,-4.0239,-3.9664,-3.9215,-3.9146,-3.8525,-3.8146,-3.8422,-3.8008,-3.7387,-3.7512,-3.718,-3.6766,-3.6422,-3.6284,-3.6284,-3.6284,-3.6284,-3.6284,-6.2587,-6.2637,-6.2045,-6.1784,-6.1748,-6.1055,-6.0711,-6.0665,0.0,0.0,0.0,-6.1543,-6.158,-6.1607,-6.1543,-6.158,-6.158,-6.1543,-6.081,-5.9398,-5.9398,-5.8202,-5.6029,-5.5993,-5.5522,-5.4689,-5.4001,-5.3204,-5.2263,-5.1466,-5.0343,-4.9018,-4.8764,-4.833,-4.7735,-4.7699,-4.8351,-4.9582,-4.9184,-4.8837,-4.8692,-4.8185,-4.7844,-4.7699,-4.7699,-4.7699,-4.7699,-4.7572,-4.7407,-4.7284,-4.6445,-4.5566,-4.4716,-4.3832,-4.2956,-4.204,-4.1319,-4.0818,-4.0713,-4.0095,-3.9989,-4.0678,-4.1253,-4.1358,-4.0748,-4.0573,-4.0256,-3.9568,-3.8655,-3.7848,-3.7271,-3.706,-3.6989,-3.6989,-3.6826,-3.6719,-3.6699,-3.6276,-3.5997,-3.5975,-3.5756,-3.56,-3.56,-3.5633,-3.5825,-3.6434,-3.6761,-3.7293,-3.871,-3.9832,-4.049,-4.0426,-4.0453,-4.0548,-4.0364,-3.9916,-3.9503,-3.9491,-3.8893,-3.8444,-3.8306,-3.7789,-3.7581,-3.7974,-3.7077,-3.6732,-3.7098,-3.6766,-3.6318,-3.6284,-3.6284,-3.6284,-3.6284,-3.6284,-3.6284,-6.1795,-6.153,-6.1708,-6.1784,-6.1712,-6.1091,-6.0385,-5.9796,-5.9905,-5.9941,-5.9941,-5.9941,-5.9941,-5.9941,-5.9941,-5.9941,-5.9941,-5.9941,-5.947,0.0,-5.8565,-5.7659,-5.6029,-5.5993,-5.5269,-5.3929,-5.3748,-5.2915,-5.1502,-5.0655,-4.98,-4.8909,-4.8206,-4.7844,-4.7678,-4.7699,-4.7808,-4.8061,-4.8619,-4.8568,-4.7916,-4.8438,-4.8402,-4.7735,-4.7699,-4.7699,-4.7699,-4.745,-4.732,-4.7298,-4.6786,-4.6141,-4.5374,-4.4965,-4.4191,-4.2821,-4.2552,-4.2166,-4.1499,-4.1323,-4.1323,-4.1429,-4.1569,-4.1569,-4.1429,-4.0889,-4.0467,-4.0291,-3.9006,-3.8058,-3.7918,-3.7391,-3.7095,-3.704,-3.6861,-3.6719,-3.6768,-3.6345,-3.6066,-3.6066,-3.5756,-3.56,-3.56,-3.56,-3.5633,-3.5859,-3.64,-3.7134,-3.8062,-3.9486,-4.0134,-3.9747,-3.96,-3.9373,-3.9055,-3.87,-3.8642,-3.8732,-3.8112,-3.765,-3.765,-3.7098,-3.6628,-3.6628,-3.649,-3.6387,-3.649,-3.6422,-3.6284,-3.6284,-3.6284,-3.6284,-3.6284,-3.6284,-3.6284,-6.17,-6.1587,-6.1728,-6.1784,-6.1712,-6.0621,-5.9434,-5.8347,-5.8311,-5.8818,-5.9579,-5.9615,-5.9615,-5.9615,-5.9615,-5.9615,-5.9615,-5.9615,-5.918,-5.8456,-5.842,-5.7333,-5.5522,-5.5414,-5.4581,-5.3096,-5.3059,-5.2444,-5.1321,-5.051,-4.9691,-4.8909,-4.8076,-4.7699,-4.7699,-4.7699,-4.7699,-4.7678,-4.804,-4.8076,-4.7714,-4.804,-4.8098,-4.7699,-4.7699,-4.7699,-4.7678,-4.7428,-4.7298,-4.7298,-4.6478,-4.5846,-4.5492,-4.4836,-4.4132,-4.3465,-4.3395,-4.3219,-4.2868,-4.2482,-4.2061,-4.1639,-4.1604,-4.1604,-4.1604,-4.1288,-4.0959,-4.0537,-3.98,-3.9217,-3.8831,-3.8444,-3.8213,-3.8152,-3.8007,-3.7916,-3.7741,-3.7094,-3.659,-3.6534,-3.5994,-3.56,-3.56,-3.56,-3.56,-3.5667,-3.6265,-3.6907,-3.728,-3.8289,-3.902,-3.8751,-3.8754,-3.8664,-3.8357,-3.8014,-3.7875,-3.7885,-3.7331,-3.6904,-3.6835,-3.649,-3.6318,-3.6284,-3.6284,-3.6284,-3.6284,-3.6284,-3.6284,-3.6284,-3.6284,-3.6284,-3.6284,-3.6284,-3.6284,-6.1848,-6.1784,-6.1812,-6.1768,-6.1443,-6.0141,-5.8782,-5.7514,-5.7297,-5.7913,-5.8963,-5.9072,-5.9072,-5.9072,-5.9072,-5.9072,-5.9072,-5.9072,-5.8709,-5.8166,-5.813,-5.6971,-5.5051,-5.4907,-5.4074,-5.2661,-5.248,-5.2082,-5.1285,-5.0488,-4.9582,-4.8656,-4.8004,-4.7699,-4.7699,-4.7699,-4.7699,-4.7699,-4.7699,-4.7699,-4.7699,-4.7699,-4.7699,-4.7699,-4.7699,-4.7699,-4.7678,-4.7428,-4.7298,-4.7262,-4.63,-4.574,-4.5705,-4.4906,-4.4343,-4.4202,-4.4167,-4.4062,-4.3886,-4.3219,-4.253,-4.192,-4.171,-4.1604,-4.1604,-4.1604,-4.1358,-4.0854,-4.0573,-4.0221,-3.9673,-3.9336,-3.9259,-3.9118,-3.9033,-3.8834,-3.8659,-3.7899,-3.7251,-3.7035,-3.6344,-3.5836,-3.5667,-3.56,-3.56,-3.5701,-3.6163,-3.6502,-3.6626,-3.7043,-3.7394,-3.7555,-3.7774,-3.782,-3.774,-3.7319,-3.7031,-3.7006,-3.6646,-3.6414,-3.6353,-3.6318,-3.6284,-3.6284,-3.6284,-3.6284,-3.6284,-3.6284,-3.6284,-3.6284,-3.6284,-3.6284,-3.6284,-3.6284,-3.6284,-6.1895,-6.1812,-6.1923,-6.158,-6.0856,-5.9951,-5.9072,-5.8202,-5.7514,-5.7261,-5.7514,-5.7442,-5.7478,-5.7442,-5.7478,-5.7478,-5.7478,-5.7442,-5.7406,-5.7333,-5.7297,-5.6464,-5.5015,-5.4907,-5.4074,-5.2661,-5.2516,-5.2118,-5.1357,-5.051,-4.9329,-4.7968,-4.7735,-4.7699,-4.7699,-4.7699,-4.7699,-4.7699,-4.7699,-4.7699,-4.7699,-4.7699,-4.7699,-4.7699,-4.7699,-4.7699,-4.7678,-4.7428,-4.7298,-4.7276,-4.6799,-4.6484,-4.6425,-4.6174,-4.5653,-4.5045,-4.4975,-4.4694,-4.3957,-4.3219,-4.2798,-4.2658,-4.2026,-4.1639,-4.1604,-4.1604,-4.1604,-4.1394,-4.0889,-4.0502,-4.0362,-3.9814,-3.9399,-3.9328,-3.9186,-3.8916,-3.872,-3.8334,-3.7809,-3.6979,-3.6864,-3.6434,-3.5859,-3.5633,-3.56,-3.56,-3.5735,-3.5859,-3.5893,-3.5938,-3.6039,-3.6084,-3.6446,-3.6661,-3.6322,-3.6004,-3.6137,-3.6277,-3.6294,-3.6233,-3.6276,-3.6284,-3.6284,-3.6284,-3.6284,-3.6284,-3.6284,-3.6284,-3.6284,-3.6284,-3.6284,-3.6284,-3.6284,-3.6215,-3.618,-6.195,-6.1923,-6.195,-6.1507,-6.0738,-5.9941,-5.9144,-5.8347,-5.755,-5.7188,-5.7188,-5.7188,-5.7188,-5.7188,-5.7188,-5.7188,-5.7188,-5.7188,-5.7188,-5.7188,-5.7188,-5.6609,-5.5595,-5.5088,-5.4291,-5.3204,-5.2733,-5.2335,-5.1828,-5.0728,-4.951,-4.8475,-4.7932,-4.7699,-4.7699,-4.7699,-4.7699,-4.7699,-4.7699,-4.7699,-4.7699,-4.7699,-4.7699,-4.7699,-4.7699,-4.7699,-4.7678,-4.7428,-4.7298,-4.7276,-4.6835,-4.6613,-4.659,-4.6326,-4.6074,-4.5758,-4.5758,-4.5407,-4.4659,-4.4343,-4.3781,-4.2903,-4.2517,-4.2131,-4.1639,-4.1604,-4.1604,-4.1569,-4.1323,-4.1148,-4.1113,-4.0766,-4.0504,-4.0393,-4.0282,-4.01,-3.9846,-3.9305,-3.8696,-3.8282,-3.779,-3.7144,-3.6434,-3.5893,-3.5633,-3.56,-3.56,-3.56,-3.56,-3.56,-3.56,-3.5633,-3.5904,-3.596,-3.5735,-3.5768,-3.5822,-3.5966,-3.6118,-3.6225,-3.6233,-3.6297,-3.6284,-3.6284,-3.6249,-3.6249,-3.6284,-3.6284,-3.6284,-3.6215,-3.6249,-3.618,-3.5766,-3.5663,-3.5663,-6.2041,-6.2041,-6.2041,-6.1679,-6.1037,-6.0013,-5.9289,-5.8637,-5.7659,-5.7188,-5.7188,-5.7188,-5.7188,-5.7188,-5.7188,-5.7188,-5.7188,-5.7188,-5.7188,-5.7188,-5.7188,-5.6754,-5.5993,-5.5486,-5.4653,-5.3748,-5.3132,-5.2625,-5.2082,-5.0836,-4.9691,-4.8894,-4.8098,-4.7699,-4.7699,-4.7699,-4.7699,-4.7699,-4.7699,-4.7699,-4.7699,-4.7699,-4.7699,-4.7699,-4.7699,-4.7678,-4.7636,-4.7428,-4.7298,-4.7254,-4.6847,-4.6613,-4.659,-4.6326,-4.6214,-4.6214,-4.6214,-4.5968,-4.5431,-4.522,-4.46,-4.3524,-4.3185,-4.2694,-4.2063,-4.1853,-4.177,-4.1604,-4.156,-4.1503,-4.1538,-4.1471,-4.1335,-4.1163,-4.114,-4.0976,-4.0611,-4.0045,-3.9549,-3.9176,-3.8512,-3.7821,-3.6965,-3.6299,-3.5926,-3.5667,-3.56,-3.56,-3.56,-3.56,-3.56,-3.56,-3.56,-3.5633,-3.5622,-3.5667,-3.5734,-3.5834,-3.5988,-3.6096,-3.6182,-3.6233,-3.6284,-3.6262,-3.618,-3.5939,-3.5766,-3.5835,-3.5697,-3.5697,-3.5663,-3.5559,-3.5007,-3.4904,-3.4904,-6.2041,-6.2041,-6.2041,-6.1942,-6.1797,-6.0267,-5.9579,-5.9361,-5.7876,-5.7188,-5.7188,-5.7188,-5.7188,-5.7188,-5.7188,-5.7188,-5.7188,-5.7188,-5.7188,-5.7188,-5.7188,-5.6754,-5.6029,-5.5945,-5.516,-5.3965,-5.3639,-5.2842,-5.1466,-5.056,-4.9691,-4.8945,-4.8185,-4.7735,-4.7772,-4.7735,-4.7699,-4.7699,-4.7699,-4.7699,-4.7699,-4.7699,-4.7699,-4.7699,-4.7699,-4.7636,-4.7493,-4.7385,-4.7276,-4.7201,-4.6801,-4.6613,-4.659,-4.6326,-4.6214,-4.6214,-4.6214,-4.6179,-4.6039,-4.5512,-4.4997,-4.4701,-4.4012,-4.3313,-4.2556,-4.2439,-4.2148,-4.1652,-4.1471,-4.1403,-4.1403,-4.138,-4.129,-4.114,-4.1093,-4.0905,-4.0558,-4.0441,-3.9978,-3.9306,-3.8962,-3.8328,-3.71,-3.6795,-3.64,-3.5904,-3.5667,-3.5633,-3.56,-3.56,-3.56,-3.56,-3.56,-3.56,-3.56,-3.5622,-3.5667,-3.5734,-3.5856,-3.5922,-3.6096,-3.6225,-3.6233,-3.6104,-3.5711,-3.5421,-3.518,-3.4869,-3.4559,-3.4476,-3.4545,-3.4352,-3.418,-3.4145,-3.4214,-6.2041,-6.2041,-6.2041,-6.2041,-6.1824,-6.0303,-5.9615,-5.9434,-5.7876,-5.7188,-5.7188,-5.7188,-5.7188,-5.7188,-5.7188,-5.7188,-5.7188,-5.7188,-5.7188,-5.7188,-5.7188,-5.7043,-5.6754,-5.6247,-5.574,-5.5124,-5.4182,-5.3132,-5.2082,-5.1249,-5.0741,-5.0271,-4.909,-4.846,-4.8387,-4.7953,-4.7699,-4.7699,-4.7699,-4.7699,-4.7735,-4.7699,-4.7699,-4.7678,-4.7615,-4.7572,-4.7472,-4.7298,-4.7201,-4.7088,-4.679,-4.6566,-4.6471,-4.6301,-4.6214,-4.6214,-4.6214,-4.6214,-4.6154,-4.586,-4.546,-4.4921,-4.4544,-4.3788,-4.2753,-4.2463,-4.2172,-4.1532,-4.13,-4.1232,-4.1198,-4.121,-4.1163,-4.1023,-4.0905,-4.0704,-4.0461,-4.0362,-4.0186,-3.9731,-3.9309,-3.8734,-3.8285,-3.7787,-3.7212,-3.6535,-3.6366,-3.6129,-3.5701,-3.56,-3.56,-3.56,-3.56,-3.56,-3.56,-3.56,-3.5622,-3.5667,-3.5734,-3.58,-3.5932,-3.6118,-3.617,-3.5628,-3.5222,-3.48,-3.4525,-3.418,-3.382,-3.3854,-3.3889,-3.3559,-3.3421,-3.3352,-3.3593,-6.2041,-6.2041,-6.2041,-6.2041,-6.1833,-6.0566,-5.9832,-5.947,-5.8166,-5.7442,-5.7224,-5.7188,-5.7188,-5.7188,-5.7188,-5.7188,-5.7188,-5.7188,-5.7188,-5.7188,-5.7188,-5.7188,-5.7116,-5.6645,-5.6247,-5.5776,-5.4436,-5.3385,-5.2806,-5.1792,-5.1344,-5.1199,-4.9945,-4.9293,-4.9184,-4.8749,-4.846,-4.8496,-4.8496,-4.8387,-4.817,-4.8076,-4.7932,-4.7693,-4.7551,-4.7428,-4.7428,-4.7245,-4.7066,-4.6929,-4.6684,-4.6471,-4.635,-4.6288,-4.6214,-4.6214,-4.6214,-4.6214,-4.6189,-4.609,-4.5745,-4.5267,-4.5037,-4.4337,-4.2912,-4.2669,-4.2206,-4.1499,-4.1198,-4.1152,-4.1093,-4.1023,-4.0953,-4.0858,-4.0704,-4.0534,-4.0347,-4.0322,-4.0238,-4.0036,-3.9673,-3.9309,-3.9005,-3.8565,-3.7956,-3.7269,-3.6998,-3.6502,-3.6129,-3.5735,-3.56,-3.56,-3.56,-3.56,-3.56,-3.56,-3.56,-3.5644,-3.5667,-3.5711,-3.58,-3.5975,-3.5775,-3.5221,-3.4665,-3.4243,-3.3835,-3.3509,-3.3406,-3.344,-3.3164,-3.2785,-3.2662,-3.2559,-3.2972,-6.2041,-6.2041,-6.2041,-6.2041,-6.1897,-6.1037,-6.0303,-5.9615,-5.8709,-5.7913,-5.7406,-5.7224,-5.7188,-5.7188,-5.7297,-5.7261,-5.7297,-5.7333,-5.7261,-5.7224,-5.7188,-5.7188,-5.7188,-5.7116,-5.6681,-5.5957,-5.4508,-5.3748,-5.353,-5.2263,-5.1502,-5.1235,-5.0583,-5.009,-5.0112,-4.9967,-4.9967,-4.993,-4.9836,-4.9582,-4.9003,-4.8837,-4.8496,-4.7838,-4.7486,-4.732,-4.7298,-4.7098,-4.6952,-4.6778,-4.6566,-4.635,-4.6263,-4.6214,-4.6214,-4.6214,-4.6214,-4.6214,-4.6189,-4.6065,-4.5905,-4.5673,-4.5615,-4.4784,-4.3435,-4.3158,-4.2594,-4.1383,-4.1082,-4.1047,-4.1023,-4.0858,-4.068,-4.0714,-4.0583,-4.0436,-4.0313,-4.0288,-4.0238,-4.0104,-4.0011,-3.9774,-3.9242,-3.9039,-3.87,-3.8024,-3.7449,-3.7032,-3.6795,-3.6231,-3.5735,-3.5667,-3.5667,-3.56,-3.56,-3.56,-3.56,-3.56,-3.5622,-3.5644,-3.5711,-3.5844,-3.5442,-3.4856,-3.3779,-3.3323,-3.2835,-3.2524,-3.2543,-3.2543,-3.2232,-3.2474,-3.2662,-3.28,-3.2628,-6.2041,-6.2041,-6.2041,-6.2041,-6.1906,-6.1172,-6.0665,-6.0276,-5.9035,-5.8239,-5.7949,-5.7442,-5.7188,-5.7333,-5.7732,-5.8021,-5.8021,-5.8021,-5.7732,-5.7297,-5.7188,-5.7188,-5.7188,-5.7188,-5.6754,-5.6066,-5.5547,-5.4689,-5.3784,-5.3168,-5.2697,-5.2082,-5.1321,-5.0945,-5.0886,-5.0438,-5.0112,-5.0112,-5.0112,-4.9945,-4.9655,-4.9184,-4.8764,-4.8511,-4.7753,-4.7276,-4.7245,-4.6985,-4.6754,-4.6542,-4.6447,-4.635,-4.6239,-4.6214,-4.6214,-4.6214,-4.6214,-4.613,-4.603,-4.5939,-4.5812,-4.5658,-4.5441,-4.4613,-4.3347,-4.2996,-4.2284,-4.0992,-4.0704,-4.068,-4.0655,-4.051,-4.0461,-4.0558,-4.0436,-4.0313,-4.0213,-4.0163,-4.0163,-4.0113,-4.0113,-3.9977,-3.9808,-3.9706,-3.9402,-3.8734,-3.8362,-3.8091,-3.7584,-3.6907,-3.6468,-3.64,-3.6096,-3.5836,-3.5971,-3.6073,-3.6039,-3.5904,-3.5802,-3.5633,-3.5667,-3.5666,-3.521,-3.4396,-3.3302,-3.2529,-3.202,-3.1938,-3.211,-3.2386,-3.2662,-3.2972,-3.3283,-3.3283,-3.311,-6.2041,-6.2041,-6.2041,-6.2041,-6.1942,-6.1462,-6.1064,-6.0701,-5.976,-5.9144,-5.8782,-5.8347,-5.8094,-5.8202,-5.8637,-5.8854,-5.8854,-5.8854,-5.8601,-5.8021,-5.7369,-5.7224,-5.7188,-5.7188,-5.6971,-5.6464,-5.6138,-5.5522,-5.4581,-5.4255,-5.3748,-5.2951,-5.2444,-5.2009,-5.1756,-5.1249,-5.1017,-5.0995,-5.1017,-5.0873,-5.0546,-5.0053,-4.951,-4.8887,-4.8149,-4.7599,-4.725,-4.687,-4.6613,-4.6447,-4.635,-4.6277,-4.6214,-4.6214,-4.6214,-4.6214,-4.6189,-4.6165,-4.598,-4.5889,-4.5736,-4.552,-4.531,-4.4696,-4.358,-4.3005,-4.2125,-4.1169,-4.0681,-4.051,-4.0485,-4.0387,-4.0337,-4.0412,-4.0313,-4.0188,-4.0113,-4.0113,-4.0113,-4.0113,-4.0113,-3.9977,-3.9774,-3.9977,-3.9774,-3.9199,-3.8971,-3.8903,-3.8294,-3.7686,-3.7347,-3.7134,-3.6975,-3.6749,-3.6546,-3.6546,-3.6512,-3.6309,-3.6073,-3.5802,-3.5644,-3.5633,-3.536,-3.4197,-3.3091,-3.2456,-3.1967,-3.2229,-3.2455,-3.28,-3.3214,-3.3509,-3.3785,-3.3854,-3.3785,-6.2041,-6.2041,-6.2041,-6.2041,-6.2041,-6.1969,-6.1543,-6.0964,-6.0738,-6.0267,-5.9724,-5.9434,-5.947,-5.9542,-5.9579,-5.9687,-5.9651,-5.9687,-5.9651,-5.918,-5.8275,-5.7478,-5.7224,-5.7188,-5.7116,-5.7007,-5.6464,-5.6029,-5.5703,-5.5196,-5.4581,-5.382,-5.3566,-5.3277,-5.2625,-5.2516,-5.2299,-5.2226,-5.2335,-5.1973,-5.1357,-5.1212,-5.0524,-4.909,-4.864,-4.8008,-4.7241,-4.6778,-4.6518,-4.6398,-4.6253,-4.6239,-4.6214,-4.6214,-4.6214,-4.6189,-4.6189,-4.6115,-4.5955,-4.5778,-4.5624,-4.5415,-4.5196,-4.4814,-4.3894,-4.3064,-4.2321,-4.1469,-4.0846,-4.0461,-4.0436,-4.0337,-4.0288,-4.0263,-4.0188,-4.0138,-4.0113,-4.0113,-4.0113,-4.0113,-4.0079,-3.9876,-3.9343,-3.974,-3.9537,-3.9199,-3.8903,-3.8734,-3.8565,-3.8024,-3.7855,-3.7652,-3.7415,-3.7347,-3.7043,-3.7188,-3.7155,-3.6986,-3.6749,-3.6445,-3.6073,-3.5994,-3.587,-3.4631,-3.3475,-3.2721,-3.2425,-3.2896,-3.3195,-3.349,-3.3835,-3.4061,-3.4372,-3.4614,-3.4731,-6.2041,-6.2041,-6.2041,-6.2041,-6.2041,-6.2041,-6.1869,-6.1607,-6.1064,-6.0711,-6.0385,-5.9868,-5.9724,-5.9687,-6.024,-6.0457,-6.0457,-6.0484,-6.0484,-6.0339,-5.9506,-5.8275,-5.7406,-5.7188,-5.7188,-5.7152,-5.6935,-5.6573,-5.6054,-5.5812,-5.5305,-5.4581,-5.4074,-5.3675,-5.3349,-5.2806,-5.2516,-5.248,-5.248,-5.2408,-5.2118,-5.1574,-5.0814,-4.985,-4.9,-4.8034,-4.7114,-4.6601,-4.6277,-4.6253,-4.6204,-4.6214,-4.6214,-4.6214,-4.6165,-4.6055,-4.6065,-4.5965,-4.5727,-4.5572,-4.5441,-4.5257,-4.5042,-4.4545,-4.3802,-4.2947,-4.2113,-4.1341,-4.0654,-4.0272,-4.0213,-4.0188,-4.0163,-4.0163,-4.0138,-4.0113,-4.0113,-4.0113,-4.0113,-4.0113,-4.0113,-3.9943,-3.974,-3.9512,-3.9309,-3.9005,-3.8667,-3.8362,-3.8328,-3.7855,-3.7516,-3.7584,-3.7483,-3.755,-3.7584,-3.7753,-3.7821,-3.7719,-3.7584,-3.7459,-3.711,-3.6874,-3.6672,-3.605,-3.4904,-3.4055,-3.3905,-3.4109,-3.4238,-3.4347,-3.4731,-3.5131,-3.5525,-3.5835,-3.5904,-6.2041,-6.2041,-6.2041,-6.2041,-6.2041,-6.2041,-6.2041,-6.1906,-6.1507,-6.129,-6.1181,-6.0819,-6.0629,-6.0665,-6.1073,-6.129,-6.129,-6.129,-6.1317,-6.1172,-6.0448,-5.9216,-5.8058,-5.7695,-5.755,-5.7188,-5.7188,-5.6935,-5.6573,-5.65,-5.6102,-5.545,-5.4907,-5.4363,-5.3639,-5.3277,-5.2806,-5.2552,-5.248,-5.2457,-5.2374,-5.1976,-5.1279,-5.0439,-4.9428,-4.8302,-4.7037,-4.6471,-4.6253,-4.6239,-4.6214,-4.6214,-4.6189,-4.6165,-4.609,-4.598,-4.5965,-4.5812,-4.5546,-4.5441,-4.5283,-4.5069,-4.4858,-4.4572,-4.4048,-4.3288,-4.2489,-4.2185,-4.117,-4.0663,-4.0519,-4.0316,-4.0113,-4.0113,-4.0113,-4.0113,-4.0113,-4.0113,-4.0113,-4.0113,-4.0079,-3.9943,-3.974,-3.9503,-3.9309,-3.9039,-3.8734,-3.8531,-3.8396,-3.7686,-3.7246,-3.7415,-3.7584,-3.7652,-3.7719,-3.7855,-3.7898,-3.7889,-3.7889,-3.7898,-3.7753,-3.7449,-3.7191,-3.6763,-3.6061,-3.5494,-3.5215,-3.5069,-3.5221,-3.5421,-3.5828,-3.618,-3.6559,-3.6732,-3.6835,-6.2041,-6.2041,-6.2041,-6.2041,-6.2041,-6.2041,-6.2041,-6.2041,-6.1969,-6.1906,-6.1933,-6.2005,-6.1788,-6.2041,-6.1824,-6.1969,-6.1942,-6.1869,-6.1933,-6.1716,-6.1172,-6.0122,-5.8891,-5.8347,-5.7985,-5.7478,-5.7297,-5.7152,-5.7043,-5.7116,-5.679,-5.6174,-5.5957,-5.516,-5.4122,-5.3688,-5.3217,-5.2555,-5.241,-5.2364,-5.2293,-5.2161,-5.1681,-5.0736,-4.9543,-4.8235,-4.7015,-4.6423,-4.6301,-4.6189,-4.6154,-4.6165,-4.6165,-4.603,-4.5955,-4.5905,-4.5778,-4.5624,-4.5415,-4.531,-4.5177,-4.4886,-4.4803,-4.472,-4.4406,-4.3741,-4.3234,-4.3132,-4.2083,-4.1373,-4.1035,-4.0561,-4.0248,-4.018,-4.0113,-4.0113,-4.0113,-4.0113,-4.0113,-4.0113,-4.0113,-3.974,-3.9537,-3.9537,-3.974,-3.9039,-3.8667,-3.8261,-3.8024,-3.7516,-3.7313,-3.7449,-3.7584,-3.7719,-3.7821,-3.7898,-3.7898,-3.7922,-3.7922,-3.7898,-3.7898,-3.7686,-3.7483,-3.7066,-3.6536,-3.6175,-3.5992,-3.5966,-3.5972,-3.6045,-3.613,-3.678,-3.7387,-3.7443,-3.7512,-6.2041,-6.2041,-6.2041,-6.2041,-6.2041,-6.2041,-6.2041,-6.2041,-6.2041,-6.2041,-6.2041,-6.2041,-6.2041,-6.2041,-6.2041,-6.2041,-6.2041,-6.2041,-6.2041,-6.1942,-6.1869,-6.1245,-6.0122,-5.9144,-5.8347,-5.7985,-5.7478,-5.7224,-5.7188,-5.7188,-5.7116,-5.6899,-5.6283,-5.5509,-5.4604,-5.3893,-5.3087,-5.2366,-5.2198,-5.2174,-5.2126,-5.209,-5.1658,-5.0689,-4.9138,-4.7724,-4.6718,-4.6301,-4.6179,-4.6055,-4.6065,-4.6065,-4.6005,-4.5879,-4.5778,-4.5675,-4.5546,-4.5415,-4.523,-4.5042,-4.4913,-4.4803,-4.4692,-4.4609,-4.4547,-4.391,-4.3477,-4.324,-4.2591,-4.188,-4.1339,-4.1102,-4.073,-4.0383,-4.018,-4.0146,-4.0113,-4.0113,-4.0113,-4.0113,-4.0113,-4.0045,-3.9842,-3.9411,-3.9309,-3.8971,-3.8531,-3.7956,-3.7686,-3.7449,-3.7313,-3.7381,-3.728,-3.7313,-3.728,-3.729,-3.729,-3.7324,-3.7391,-3.7425,-3.7459,-3.7594,-3.728,-3.7178,-3.7134,-3.6841,-3.665,-3.6174,-3.6046,-3.6212,-3.6466,-3.6943,-3.7366,-3.7698,-3.8237,-6.2041,-6.2041,-6.2041,-6.2041,-6.2041,-6.2041,-6.2041,-6.2041,-6.2041,-6.2041,-6.2041,-6.2041,-6.2041,-6.2041,-6.2041,-6.2041,-6.2041,-6.2041,-6.2041,-6.2005,-6.1978,-6.1761,-6.1317,-6.0122,-5.9253,-5.8528,-5.8021,-5.7623,-5.7297,-5.7188,-5.7188,-5.7188,-5.6667,-5.6086,-5.5216,-5.4337,-5.3518,-5.264,-5.2148,-5.1956,-5.1858,-5.1797,-5.1365,-5.0432,-4.9011,-4.7848,-4.7068,-4.6428,-4.62,-4.604,-4.5965,-4.5914,-4.5889,-4.5701,-4.5572,-4.5494,-4.531,-4.515,-4.4988,-4.4886,-4.4776,-4.4692,-4.4643,-4.4615,-4.4547,-4.4181,-4.4012,-4.3809,-4.3267,-4.2523,-4.1813,-4.1711,-4.1339,-4.0832,-4.0595,-4.0519,-4.0214,-4.0113,-4.0113,-4.0113,-4.0113,-4.0113,-3.991,-3.9605,-3.9571,-3.9512,-3.9039,-3.8497,-3.8294,-3.799,-3.7313,-3.7134,-3.6965,-3.6806,-3.6705,-3.6614,-3.6512,-3.6479,-3.6445,-3.6479,-3.6479,-3.6715,-3.6952,-3.7009,-3.711,-3.7449,-3.7248,-3.6718,-3.6264,-3.659,-3.686,-3.7072,-3.7447,-3.8112,-3.8698,-6.2041,-6.2041,-6.2041,-6.2041,-6.2041,-6.2041,-6.2041,-6.2041,-6.2041,-6.2041,-6.2041,-6.2041,-6.2041,-6.2041,-6.2041,-6.2041,-6.2041,-6.2041,-6.2041,-6.2041,-6.2041,-6.1942,-6.1688,-6.11,-6.0231,-5.8854,-5.842,-5.7985,-5.755,-5.7261,-5.7188,-5.7163,-5.7061,-5.6418,-5.5682,-5.4799,-5.3759,-5.2819,-5.208,-5.1708,-5.1531,-5.147,-5.1002,-5.013,-4.9437,-4.8383,-4.7523,-4.6825,-4.6255,-4.599,-4.5838,-4.5761,-4.5684,-4.552,-4.5363,-4.5336,-4.5096,-4.4968,-4.4858,-4.4776,-4.4692,-4.4615,-4.4581,-4.4581,-4.4581,-4.4547,-4.4451,-4.4316,-4.391,-4.3301,-4.2591,-4.2455,-4.2117,-4.1576,-4.1373,-4.1068,-4.062,-4.0417,-4.0519,-4.0113,-4.0113,-4.0113,-4.0113,-3.9943,-4.0045,-4.0011,-3.9503,-3.9039,-3.8836,-3.8531,-3.7889,-3.7381,-3.728,-3.7212,-3.711,-3.7077,-3.6874,-3.6569,-3.6276,-3.6174,-3.6073,-3.6039,-3.6445,-3.6907,-3.7144,-3.728,-3.7168,-3.6536,-3.639,-3.6899,-3.6965,-3.6869,-3.7541,-3.8503,-3.8939,-6.2041,-6.2041,-6.2041,-6.2041,-6.2041,-6.2041,-6.2041,-6.2041,-6.2041,-6.2041,-6.2041,-6.2041,-6.2041,-6.2041,-6.2041,-6.2041,-6.2041,-6.2041,-6.2041,-6.2041,-6.2041,-6.2041,-6.1933,-6.1761,-6.1145,-6.0267,-5.9289,-5.8492,-5.8021,-5.7587,-5.7297,-5.7199,-5.7036,-5.651,-5.5584,-5.4577,-5.368,-5.2758,-5.196,-5.1544,-5.1324,-5.1263,-5.0954,-5.0091,-4.967,-4.8879,-4.7809,-4.7191,-4.6679,-4.5908,-4.5598,-4.5476,-4.531,-4.523,-4.5177,-4.5103,-4.494,-4.4803,-4.4776,-4.4665,-4.4643,-4.4615,-4.4581,-4.4581,-4.4581,-4.4581,-4.4581,-4.4581,-4.4418,-4.4045,-4.3335,-4.3234,-4.2861,-4.2354,-4.2083,-4.2016,-4.1847,-4.1677,-4.1271,-4.062,-4.035,-4.0113,-4.0113,-4.0113,-4.0113,-4.0113,-3.9876,-3.9469,-3.9174,-3.8937,-3.8565,-3.8125,-3.7787,-3.7753,-3.7719,-3.7753,-3.7652,-3.7347,-3.7077,-3.6817,-3.6546,-3.587,-3.5971,-3.6783,-3.6648,-3.6265,-3.6096,-3.6051,-3.6118,-3.6321,-3.6398,-3.6507,-3.7337,-3.8148,-3.8525,-6.3237,-6.3237,-6.3237,-6.2983,-6.2657,-6.2621,-6.2404,-6.2041,-6.2041,-6.2041,-6.2041,-6.2041,-6.2041,-6.2041,-6.2041,-6.2041,-6.2041,-6.2041,-6.2041,-6.2041,-6.2041,-6.2041,-6.2041,-6.2041,-6.1824,-6.1208,-6.0231,-5.9144,-5.842,-5.8058,-5.7623,-5.721,-5.6984,-5.6597,-5.5955,-5.5062,-5.4002,-5.2979,-5.2183,-5.1556,-5.1149,-5.1123,-5.0788,-5.0488,-4.9943,-4.9267,-4.8697,-4.7945,-4.7274,-4.6421,-4.6055,-4.5635,-4.5206,-4.4961,-4.4968,-4.4886,-4.4776,-4.4692,-4.4692,-4.4643,-4.4615,-4.4615,-4.4581,-4.4581,-4.4581,-4.4581,-4.4581,-4.4581,-4.4581,-4.4479,-4.4045,-4.3978,-4.3639,-4.3064,-4.2861,-4.2692,-4.2455,-4.2354,-4.188,-4.1264,-4.1035,-4.0696,-4.0113,-4.0113,-4.0113,-4.0113,-4.0113,-3.9876,-3.9537,-3.9368,-3.9165,-3.8971,-3.8633,-3.8633,-3.8633,-3.8633,-3.8464,-3.8125,-3.8058,-3.7787,-3.7662,-3.729,-3.6986,-3.7222,-3.6648,-3.6208,-3.5667,-3.5859,-3.5791,-3.5858,-3.6117,-3.6522,-3.7134,-3.7691,-3.8183,-6.4396,-6.4396,-6.4396,-6.3925,-6.3237,-6.32,-6.273,-6.2114,-6.2041,-6.2041,-6.2041,-6.2041,-6.2041,-6.2041,-6.2041,-6.2041,-6.2041,-6.2041,-6.2041,-6.2041,-6.2041,-6.2041,-6.2041,-6.2041,-6.1969,-6.1761,-6.1326,-6.0276,-5.9216,-5.8528,-5.8021,-5.7546,-5.7113,-5.6707,-5.6304,-5.5347,-5.4469,-5.3647,-5.2823,-5.2001,-5.1322,-5.1119,-5.1013,-5.0873,-5.0268,-4.9837,-4.9318,-4.8818,-4.7908,-4.7015,-4.6446,-4.5973,-4.5165,-4.4878,-4.4782,-4.4754,-4.4671,-4.4581,-4.4615,-4.4615,-4.4581,-4.4581,-4.4581,-4.4581,-4.4581,-4.4581,-4.4581,-4.4581,-4.4581,-4.4581,-4.4479,-4.4547,-4.4248,-4.3876,-4.3606,-4.347,-4.3132,-4.2963,-4.2861,-4.2354,-4.1914,-4.1339,-4.0764,-4.0426,-4.0493,-4.0113,-4.0113,-4.0113,-3.9842,-3.991,-3.9774,-3.9681,-3.958,-3.958,-3.9614,-3.9673,-3.9343,-3.8903,-3.9039,-3.9048,-3.9106,-3.9106,-3.8768,-3.8328,-3.7889,-3.7449,-3.658,-3.6005,-3.6457,-3.6661,-3.6367,-3.6593,-3.741,-3.7877,-3.8254,-6.4396,-6.4396,-6.4396,-6.3925,-6.3237,-6.32,-6.273,-6.2078,-6.2041,-6.2041,-6.2041,-6.2041,-6.2041,-6.2041,-6.2041,-6.2041,-6.2041,-6.2041,-6.2041,-6.2041,-6.2041,-6.1978,-6.2014,-6.2041,-6.195,-6.1923,-6.1842,-6.1362,-6.025,-5.9082,-5.8394,-5.8017,-5.7231,-5.668,-5.6339,-5.5522,-5.4656,-5.4119,-5.3422,-5.2656,-5.1997,-5.1821,-5.147,-5.1084,-5.0733,-5.0301,-4.9684,-4.9234,-4.8598,-4.7631,-4.6659,-4.6122,-4.5694,-4.5004,-4.471,-4.4643,-4.4615,-4.4581,-4.4615,-4.4581,-4.4581,-4.4581,-4.4581,-4.4581,-4.4581,-4.4581,-4.4581,-4.4581,-4.4581,-4.4581,-4.4581,-4.4581,-4.4513,-4.4445,-4.4248,-4.4282,-4.4141,-4.3701,-4.3572,-4.3436,-4.2963,-4.2185,-4.1508,-4.117,-4.0865,-4.0426,-4.0113,-4.0113,-4.0113,-4.0113,-4.018,-4.0079,-4.029,-4.0358,-4.0426,-4.0519,-4.0383,-3.9817,-4.0054,-4.0299,-4.046,-4.046,-4.0121,-3.9706,-3.9309,-3.8734,-3.7922,-3.7584,-3.7618,-3.7642,-3.7712,-3.7725,-3.7863,-3.8229,-3.8766,-6.4396,-6.4396,-6.4396,-6.3925,-6.3237,-6.32,-6.273,-6.215,-6.2041,-6.2041,-6.2041,-6.2041,-6.2041,-6.2041,-6.2041,-6.2041,-6.2041,-6.2041,-6.2041,-6.1978,-6.1978,-6.195,-6.1868,-6.1868,-6.184,-6.1784,-6.1756,-6.162,-6.081,-5.9871,-5.8901,-5.8192,-5.7349,-5.6626,-5.63,-5.573,-5.5023,-5.433,-5.3605,-5.3078,-5.2664,-5.2242,-5.1856,-5.1478,-5.1002,-5.0472,-5.0063,-4.9771,-4.9136,-4.8232,-4.7455,-4.6737,-4.6016,-4.5393,-4.5094,-4.4649,-4.5026,-4.5026,-4.4682,-4.4649,-4.4682,-4.4649,-4.4649,-4.4581,-4.4581,-4.4649,-4.4649,-4.4581,-4.4581,-4.4615,-4.4649,-4.4581,-4.4581,-4.4581,-4.4581,-4.4581,-4.4581,-4.4581,-4.4344,-4.4181,-4.3978,-4.32,-4.2354,-4.1745,-4.1373,-4.0967,-4.0485,-4.018,-4.0146,-4.0113,-4.0214,-4.0282,-4.0629,-4.1035,-4.1136,-4.1238,-4.1399,-4.1102,-4.1204,-4.1508,-4.1779,-4.1711,-4.1407,-4.1331,-4.1136,-4.0392,-3.9411,-3.9073,-3.914,-3.9165,-3.9189,-3.9272,-3.9423,-3.988,-4.0294,-6.3961,-6.3852,-6.4215,-6.3925,-6.32,-6.32,-6.273,-6.205,-6.2041,-6.2041,-6.2041,-6.2041,-6.2041,-6.2041,-6.2041,-6.2041,-6.2041,-6.2041,-6.2041,-6.1978,-6.195,-6.1868,-6.1812,-6.1792,-6.1672,-6.1559,-6.1615,-6.1579,-6.1212,-6.0367,-5.9267,-5.8411,-5.7227,-5.659,-5.6217,-5.5894,-5.5354,-5.4729,-5.4208,-5.3787,-5.3401,-5.2734,-5.2285,-5.1738,-5.1164,-5.0537,-5.0341,-5.0051,-4.9383,-4.8846,-4.8192,-4.7432,-4.6578,-4.6143,-4.5805,-4.55,-4.5771,-4.5771,-4.5466,-4.5297,-4.5128,-4.5156,-4.5156,-4.5359,-4.5263,-4.5128,-4.5156,-4.5326,-4.4993,-4.4987,-4.4852,-4.4784,-4.4581,-4.4581,-4.4581,-4.4581,-4.4581,-4.4581,-4.4581,-4.4479,-4.4282,-4.4215,-4.3369,-4.2455,-4.188,-4.1474,-4.0967,-4.0392,-4.0316,-4.0316,-4.0519,-4.0696,-4.0865,-4.1238,-4.1305,-4.1576,-4.1847,-4.2076,-4.2151,-4.2151,-4.2083,-4.2591,-4.2794,-4.276,-4.2658,-4.255,-4.1873,-4.123,-4.0654,-4.0654,-4.0688,-4.0976,-4.1205,-4.1537,-4.1545,-6.2838,-6.2295,-6.378,-6.3852,-6.3164,-6.32,-6.273,-6.2041,-6.2041,-6.2041,-6.2041,-6.2041,-6.2041,-6.2041,-6.2041,-6.2041,-6.2041,-6.2041,-6.2041,-6.195,-6.1868,-6.1812,-6.1728,-6.1644,-6.1559,-6.1501,-6.1444,-6.1444,-6.1286,-6.0397,-5.965,-5.9014,-5.7441,-5.6605,-5.6141,-5.5892,-5.5648,-5.5227,-5.5051,-5.477,-5.4208,-5.3478,-5.2748,-5.1864,-5.1109,-5.0509,-5.02,-4.9971,-4.9703,-4.9231,-4.8609,-4.8082,-4.7424,-4.6955,-4.6583,-4.6413,-4.6549,-4.6583,-4.6481,-4.6346,-4.6515,-4.6583,-4.6515,-4.6312,-4.6244,-4.6481,-4.6583,-4.6346,-4.5872,-4.5669,-4.5432,-4.5094,-4.4852,-4.4784,-4.4784,-4.4581,-4.4581,-4.4581,-4.4581,-4.4581,-4.4513,-4.4384,-4.4316,-4.3369,-4.2692,-4.2286,-4.161,-4.1068,-4.0865,-4.0865,-4.1068,-4.1204,-4.1204,-4.1271,-4.1204,-4.1407,-4.1602,-4.1839,-4.2008,-4.188,-4.1779,-4.2489,-4.347,-4.3707,-4.3538,-4.3972,-4.4107,-4.299,-4.2245,-4.2151,-4.2245,-4.2407,-4.2388,-4.2436,-4.2314,-6.2295,-6.2087,-6.2693,-6.2766,-6.2476,-6.2476,-6.2295,-6.205,-6.2041,-6.2041,-6.2041,-6.2041,-6.2041,-6.2041,-6.2041,-6.2041,-6.2041,-6.2041,-6.2041,-6.195,-6.1868,-6.1756,-6.1615,-6.1415,-6.1241,-6.1152,-6.1064,-6.0974,-6.0837,-6.0196,-5.9704,-5.885,-5.7712,-5.7064,-5.6551,-5.5953,-5.5602,-5.5537,-5.5507,-5.5297,-5.5022,-5.4163,-5.3334,-5.2472,-5.1511,-5.0708,-5.0132,-4.9767,-4.956,-4.9282,-4.8863,-4.8467,-4.8037,-4.7631,-4.7327,-4.7056,-4.7259,-4.7462,-4.7361,-4.7124,-4.6786,-4.6786,-4.6752,-4.6853,-4.6955,-4.6853,-4.6786,-4.665,-4.6583,-4.638,-4.6278,-4.5737,-4.5297,-4.519,-4.5021,-4.4852,-4.4818,-4.4919,-4.4919,-4.5055,-4.4784,-4.4547,-4.4479,-4.4282,-4.3673,-4.3098,-4.2388,-4.1779,-4.1542,-4.1407,-4.1576,-4.1677,-4.1677,-4.1711,-4.1677,-4.1542,-4.1399,-4.1636,-4.1907,-4.1982,-4.2083,-4.2692,-4.3538,-4.391,-4.4276,-4.4344,-4.4276,-4.4039,-4.3701,-4.3396,-4.3498,-4.3768,-4.3652,-4.3345,-4.3032,-6.2041,-6.2041,-6.2041,-6.2041,-6.2041,-6.2041,-6.2041,-6.2041,-6.2041,-6.2041,-6.2041,-6.2041,-6.2041,-6.2041,-6.2041,-6.2041,-6.2041,-6.2041,-6.2041,-6.1923,-6.1812,-6.1644,-6.1444,-6.1211,-6.0974,-6.0757,-6.0671,-6.064,-6.0635,-6.0012,-5.9835,-5.9375,-5.8455,-5.7664,-5.6717,-5.6018,-5.5543,-5.5507,-5.5507,-5.5448,-5.5278,-5.4524,-5.3788,-5.2927,-5.1859,-5.099,-5.0273,-4.9795,-4.9381,-4.9229,-4.8975,-4.8714,-4.8413,-4.8142,-4.7936,-4.7834,-4.7868,-4.821,-4.8041,-4.7834,-4.7462,-4.7631,-4.7597,-4.7564,-4.7428,-4.7428,-4.7665,-4.7564,-4.7361,-4.7124,-4.709,-4.6481,-4.6075,-4.594,-4.5805,-4.5635,-4.563,-4.5664,-4.5596,-4.5563,-4.5393,-4.5399,-4.5399,-4.5331,-4.4451,-4.3809,-4.3031,-4.2422,-4.2016,-4.1948,-4.2049,-4.2117,-4.2117,-4.2185,-4.2252,-4.2151,-4.2076,-4.2016,-4.2286,-4.2523,-4.2794,-4.3375,-4.3606,-4.3741,-4.4045,-4.4445,-4.4513,-4.4344,-4.4378,-4.4479,-4.439,-4.4198,-4.4114,-4.3737,-4.3595,-6.2041,-6.2041,-6.2041,-6.2041,-6.2041,-6.2041,-6.2041,-6.2041,-6.2041,-6.2041,-6.2041,-6.2041,-6.2041,-6.2041,-6.2041,-6.2041,-6.2041,-6.2041,-6.2041,-6.195,-6.1728,-6.153,-6.127,-6.0998,-6.0762,-6.064,-6.0547,-6.0516,-6.0547,-6.0282,-6.0219,-5.9976,-5.9104,-5.8022,-5.6911,-5.5988,-5.5543,-5.5478,-5.5478,-5.5354,-5.5089,-5.451,-5.4012,-5.3211,-5.2235,-5.1365,-5.0746,-4.9953,-4.9532,-4.9376,-4.9114,-4.8917,-4.8849,-4.8815,-4.8748,-4.8781,-4.8815,-4.8917,-4.8917,-4.8917,-4.8748,-4.8612,-4.8443,-4.8545,-4.8781,-4.8815,-4.868,-4.8376,-4.8206,-4.7936,-4.7665,-4.7259,-4.6955,-4.6718,-4.6549,-4.6312,-4.6244,-4.6244,-4.6138,-4.607,-4.6413,-4.6684,-4.665,-4.638,-4.5365,-4.4519,-4.3713,-4.3234,-4.2997,-4.3132,-4.347,-4.3538,-4.3639,-4.3606,-4.3673,-4.2963,-4.2692,-4.2658,-4.3031,-4.3639,-4.391,-4.435,-4.4316,-4.3944,-4.4384,-4.5258,-4.5021,-4.4682,-4.4959,-4.5172,-4.4485,-4.4231,-4.4207,-4.4093,-4.3818,-6.2041,-6.2041,-6.2041,-6.2041,-6.2041,-6.2041,-6.2041,-6.2041,-6.2041,-6.2041,-6.2041,-6.2041,-6.2041,-6.2041,-6.2041,-6.2041,-6.2041,-6.2041,-6.2041,-6.195,-6.17,-6.1501,-6.1241,-6.0914,-6.0609,-6.0454,-6.036,-6.0297,-6.0266,-6.0234,-6.0202,-5.9995,-5.9306,-5.8016,-5.6926,-5.6094,-5.5889,-5.5279,-5.5144,-5.5113,-5.5048,-5.4683,-5.4217,-5.3552,-5.2678,-5.1981,-5.1319,-5.0416,-4.9949,-4.9752,-4.9424,-4.9086,-4.9052,-4.9052,-4.9018,-4.9018,-4.9018,-4.9018,-4.9018,-4.8984,-4.8984,-4.9018,-4.9018,-4.9018,-4.9018,-4.9018,-4.9018,-4.8984,-4.8748,-4.8545,-4.8511,-4.7936,-4.7597,-4.7394,-4.7192,-4.6786,-4.6616,-4.665,-4.6616,-4.6583,-4.6786,-4.6921,-4.6989,-4.7225,-4.6481,-4.6177,-4.5568,-4.5365,-4.5162,-4.5365,-4.5669,-4.5669,-4.5669,-4.55,-4.5224,-4.4553,-4.4451,-4.4688,-4.5094,-4.5669,-4.5805,-4.5466,-4.5534,-4.5432,-4.5737,-4.607,-4.5833,-4.5635,-4.5882,-4.5794,-4.5105,-4.451,-4.438,-4.411,-4.3713,-6.2041,-6.2041,-6.2041,-6.2041,-6.2041,-6.2041,-6.2041,-6.2041,-6.2041,-6.2041,-6.2041,-6.2041,-6.2041,-6.2041,-6.2041,-6.2041,-6.2041,-6.2041,-6.1923,-6.1895,-6.17,-6.1415,-6.1093,-6.0793,-6.0516,-6.0297,-6.0202,-6.0104,-6.0104,-6.0072,-6.004,-5.9838,-5.9324,-5.836,-5.7283,-5.6554,-5.602,-5.5506,-5.5301,-5.4961,-5.4838,-5.461,-5.4316,-5.3716,-5.3115,-5.2548,-5.1877,-5.1206,-5.0634,-5.0302,-4.9864,-4.9424,-4.9357,-4.9154,-4.9086,-4.9018,-4.9018,-4.9018,-4.9018,-4.9018,-4.9018,-4.9018,-4.9018,-4.9018,-4.9018,-4.9018,-4.9018,-4.9018,-4.9018,-4.8984,-4.8883,-4.8342,-4.824,-4.8071,-4.7936,-4.753,-4.753,-4.7564,-4.7564,-4.7462,-4.7428,-4.7462,-4.7462,-4.7631,-4.7631,-4.7597,-4.753,-4.7293,-4.6989,-4.6989,-4.6989,-4.6921,-4.6819,-4.6481,-4.6312,-4.621,-4.6278,-4.6684,-4.6887,-4.6989,-4.6684,-4.621,-4.6583,-4.6786,-4.665,-4.6549,-4.665,-4.6688,-4.6625,-4.6304,-4.5782,-4.5186,-4.4653,-4.429,-4.3992,-6.2041,-6.2041,-6.2041,-6.2041,-6.2041,-6.2041,-6.2041,-6.2041,-6.2041,-6.2041,-6.2041,-6.2041,-6.2041,-6.2041,-6.2041,-6.2041,-6.2014,-6.1978,-6.1895,-6.1756,-6.1587,-6.127,-6.0908,-6.0671,-6.0392,-6.0202,-6.0072,-6.0072,-6.0072,-6.004,-5.9943,-5.9781,-5.948,-5.8692,-5.7796,-5.693,-5.6299,-5.5886,-5.5334,-5.4997,-5.4805,-5.4532,-5.4237,-5.3736,-5.3268,-5.2866,-5.2328,-5.1822,-5.1385,-5.098,-5.0541,-5.027,-4.9898,-4.9458,-4.9221,-4.9154,-4.9221,-4.9323,-4.9357,-4.9424,-4.939,-4.9492,-4.9357,-4.9187,-4.9018,-4.9018,-4.9018,-4.9018,-4.9018,-4.9018,-4.8917,-4.8883,-4.8849,-4.8815,-4.8815,-4.8714,-4.8748,-4.8748,-4.8748,-4.868,-4.8646,-4.8612,-4.8545,-4.8612,-4.8342,-4.8409,-4.8274,-4.8003,-4.7733,-4.7462,-4.7462,-4.7394,-4.7293,-4.709,-4.709,-4.7327,-4.7428,-4.7631,-4.7428,-4.7428,-4.7124,-4.709,-4.7394,-4.7462,-4.709,-4.709,-4.7428,-4.7394,-4.7158,-4.6806,-4.666,-4.5999,-4.547,-4.4997,-4.4591,-6.2041,-6.2041,-6.2041,-6.2041,-6.2041,-6.2041,-6.2041,-6.2041,-6.2041,-6.2041,-6.2041,-6.2041,-6.2041,-6.2041,-6.2041,-6.2041,-6.195,-6.1895,-6.184,-6.1672,-6.1415,-6.1123,-6.0818,-6.0578,-6.0329,-6.0171,-6.0107,-6.004,-6.0008,-5.9975,-5.9716,-5.9451,-5.9319,-5.884,-5.8256,-5.7466,-5.6847,-5.6194,-5.5573,-5.513,-5.4758,-5.4485,-5.4151,-5.3714,-5.3479,-5.3243,-5.2975,-5.2434,-5.2063,-5.186,-5.1285,-5.0913,-5.0845,-5.0676,-5.0574,-5.0608,-5.0608,-5.0608,-5.0574,-5.0574,-5.0473,-5.0405,-5.0439,-4.983,-4.9424,-4.912,-4.912,-4.9052,-4.9154,-4.9221,-4.9289,-4.9289,-4.9357,-4.939,-4.9424,-4.9424,-4.9424,-4.9424,-4.939,-4.9187,-4.9187,-4.9018,-4.9018,-4.8951,-4.8748,-4.8917,-4.8883,-4.8612,-4.8409,-4.8139,-4.8003,-4.797,-4.797,-4.7868,-4.8139,-4.8409,-4.8409,-4.8443,-4.8173,-4.8071,-4.8173,-4.8206,-4.8308,-4.8206,-4.7936,-4.8105,-4.8443,-4.824,-4.7902,-4.8057,-4.7936,-4.7105,-4.6349,-4.5868,-4.5291,-6.2041,-6.2041,-6.2041,-6.2041,-6.2041,-6.2041,-6.2041,-6.2041,-6.2041,-6.2041,-6.2041,-6.2041,-6.2041,-6.2041,-6.1978,-6.195,-6.1895,-6.1812,-6.17,-6.1386,-6.1211,-6.0944,-6.0671,-6.0454,-6.0234,-6.0107,-5.9975,-5.9911,-5.9881,-5.9683,-5.9418,-5.9183,-5.8978,-5.8806,-5.839,-5.7908,-5.7462,-5.6815,-5.6133,-5.5451,-5.4939,-5.4564,-5.4124,-5.3719,-5.3651,-5.3584,-5.3484,-5.2909,-5.2807,-5.2672,-5.2063,-5.1657,-5.1555,-5.1386,-5.1183,-5.1116,-5.1116,-5.1082,-5.1048,-5.1116,-5.1183,-5.1251,-5.1285,-5.0744,-5.0202,-4.9796,-4.9424,-4.912,-4.9323,-4.9492,-4.9593,-4.9661,-4.9796,-4.9932,-4.9932,-4.9932,-4.9932,-4.9932,-4.9729,-4.9492,-4.9289,-4.9086,-4.9018,-4.9052,-4.9018,-4.9018,-4.9018,-4.8917,-4.8815,-4.8714,-4.8612,-4.8612,-4.8714,-4.8781,-4.9018,-4.9018,-4.8883,-4.8781,-4.8748,-4.8748,-4.9018,-4.8951,-4.8714,-4.8781,-4.8883,-4.8917,-4.8849,-4.8917,-4.8751,-4.8798,-4.8673,-4.7977,-4.7218,-4.6699,-4.6084,-6.1869,-6.1897,-6.1978,-6.2041,-6.2041,-6.2041,-6.1978,-6.1978,-6.195,-6.1978,-6.1978,-6.2041,-6.1978,-6.195,-6.195,-6.184,-6.1728,-6.1644,-6.1444,-6.1064,-6.0914,-6.0701,-6.0454,-6.0333,-6.0043,-5.9846,-5.9781,-5.9751,-5.9553,-5.9419,-5.9217,-5.8978,-5.8806,-5.8561,-5.828,-5.8139,-5.7793,-5.752,-5.6777,-5.6064,-5.5179,-5.4737,-5.4364,-5.3653,-5.3518,-5.3518,-5.3518,-5.3484,-5.3518,-5.3247,-5.2909,-5.2435,-5.2232,-5.1961,-5.1691,-5.1623,-5.1758,-5.1758,-5.1792,-5.176,-5.1691,-5.1623,-5.142,-5.1386,-5.1116,-5.0507,-5.0033,-4.983,-5.0033,-5.0168,-5.027,-5.0439,-5.0574,-5.0608,-5.0608,-5.0608,-5.0608,-5.0574,-5.0473,-5.0202,-4.9999,-4.9796,-4.9763,-4.983,-4.9898,-4.9492,-4.9424,-4.9458,-4.9424,-4.9424,-4.9221,-4.9187,-4.9018,-4.9018,-4.9018,-4.9018,-4.9018,-4.8984,-4.9018,-4.9018,-4.9018,-4.9018,-4.9018,-4.9018,-4.9018,-4.9018,-4.8984,-4.9018,-4.8954,-4.8892,-4.8767,-4.8547,-4.8055,-4.7431,-4.6944,-6.1073,-6.1172,-6.1725,-6.2041,-6.2005,-6.2041,-6.1923,-6.184,-6.1876,-6.1823,-6.1978,-6.1978,-6.1923,-6.184,-6.1812,-6.17,-6.1473,-6.1357,-6.1117,-6.0788,-6.0574,-6.0392,-6.0107,-5.9914,-5.9718,-5.9685,-5.9619,-5.9486,-5.9319,-5.9149,-5.8978,-5.8806,-5.8596,-5.8312,-5.8171,-5.8063,-5.792,-5.785,-5.7516,-5.6638,-5.5652,-5.4838,-5.4296,-5.3754,-5.3551,-5.3551,-5.3551,-5.3518,-5.3518,-5.3416,-5.3348,-5.3247,-5.3213,-5.301,-5.2942,-5.2942,-5.2773,-5.2706,-5.2706,-5.2672,-5.2672,-5.2807,-5.2773,-5.2469,-5.2063,-5.1352,-5.0947,-5.0811,-5.0777,-5.0879,-5.1014,-5.1183,-5.1352,-5.1352,-5.1352,-5.1352,-5.1352,-5.1251,-5.1183,-5.098,-5.0777,-5.0642,-5.0574,-5.0608,-5.0678,-5.0678,-5.0744,-5.0744,-5.0608,-5.0507,-4.983,-4.9661,-4.9154,-4.9052,-4.9018,-4.9018,-4.9018,-4.9018,-4.9018,-4.9018,-4.9018,-4.9018,-4.9018,-4.9018,-4.9018,-4.9018,-4.9018,-4.9018,-4.8987,-4.8923,-4.8767,-4.8547,-4.8356,-4.7862,-4.7539,-6.0267,-6.0349,-6.1136,-6.1227,-6.0955,-6.1208,-6.109,-6.0691,-6.0572,-6.06,-6.0863,-6.1396,-6.1756,-6.1672,-6.1615,-6.1437,-6.1176,-6.1064,-6.0757,-6.045,-6.0199,-5.9975,-5.9783,-5.9553,-5.9352,-5.9285,-5.9149,-5.9013,-5.8978,-5.8875,-5.8701,-5.8561,-5.8312,-5.8135,-5.8063,-5.7954,-5.7881,-5.7881,-5.7881,-5.7239,-5.6258,-5.5683,-5.4938,-5.4397,-5.3957,-5.389,-5.3551,-5.3518,-5.3518,-5.3518,-5.345,-5.345,-5.345,-5.3382,-5.345,-5.345,-5.3416,-5.3518,-5.3518,-5.3518,-5.3518,-5.3518,-5.3518,-5.2976,-5.2976,-5.2334,-5.1691,-5.1555,-5.1589,-5.1657,-5.1894,-5.2063,-5.2401,-5.2536,-5.2536,-5.2536,-5.23,-5.2097,-5.1928,-5.1725,-5.1386,-5.098,-5.0947,-5.0947,-5.0982,-5.0982,-5.1151,-5.1319,-5.1319,-5.1488,-5.0811,-5.027,-4.9864,-4.9255,-4.9018,-4.9018,-4.9018,-4.9018,-4.9187,-4.9086,-4.912,-4.9052,-4.9018,-4.9086,-4.9086,-4.9018,-4.9018,-4.8987,-4.8956,-4.8863,-4.8673,-4.8483,-4.8324,-4.8163,-4.7836,-5.9506,-5.9687,-6.0349,-6.0196,-5.9547,-6.007,-5.9951,-5.9238,-5.9028,-5.8979,-5.9194,-6.049,-6.1114,-6.1157,-6.1149,-6.1039,-6.0831,-6.0691,-6.0384,-6.0135,-5.9943,-5.965,-5.9419,-5.9217,-5.9013,-5.8806,-5.8701,-5.8631,-5.8596,-5.8525,-5.8419,-5.8207,-5.8135,-5.8063,-5.7954,-5.7881,-5.7881,-5.7881,-5.7814,-5.7543,-5.7137,-5.6799,-5.5852,-5.5141,-5.4668,-5.4397,-5.3991,-5.3687,-5.3721,-5.3585,-5.3619,-5.3518,-5.3518,-5.3518,-5.3518,-5.3518,-5.3518,-5.3518,-5.3518,-5.3518,-5.3518,-5.3518,-5.3518,-5.3484,-5.345,-5.3145,-5.2503,-5.2367,-5.2401,-5.2469,-5.2672,-5.2841,-5.3179,-5.3382,-5.3382,-5.3382,-5.3078,-5.2807,-5.2638,-5.2401,-5.2063,-5.1623,-5.1555,-5.1522,-5.1488,-5.1454,-5.1454,-5.1488,-5.1623,-5.1928,-5.1792,-5.1319,-5.0913,-5.0236,-4.956,-4.9458,-4.9593,-4.9729,-4.9898,-4.9526,-4.9357,-4.9695,-4.9695,-4.9289,-4.9255,-4.9289,-4.9024,-4.8925,-4.8863,-4.8837,-4.8547,-4.8356,-4.826,-4.8065,-4.7836,-5.8999,-5.9589,-5.9663,-5.9538,-5.9376,-5.9338,-5.9135,-5.8788,-5.8574,-5.853,-5.8443,-5.8621,-5.8963,-5.9115,-5.9799,-5.9935,-5.9871,-6.0004,-6.0065,-5.9844,-5.9518,-5.925,-5.8978,-5.8806,-5.8631,-5.8525,-5.8421,-5.849,-5.8384,-5.8312,-5.8207,-5.8205,-5.7991,-5.7954,-5.7918,-5.7881,-5.7881,-5.7881,-5.7881,-5.7712,-5.7543,-5.707,-5.6359,-5.5818,-5.548,-5.5412,-5.5175,-5.4668,-5.4499,-5.4228,-5.3822,-5.3585,-5.3518,-5.3518,-5.3518,-5.3518,-5.3518,-5.3518,-5.3518,-5.3518,-5.3518,-5.3518,-5.3518,-5.3518,-5.3484,-5.3484,-5.3112,-5.3112,-5.3112,-5.3112,-5.3247,-5.3247,-5.345,-5.345,-5.345,-5.345,-5.3315,-5.3247,-5.3179,-5.3112,-5.301,-5.2807,-5.2807,-5.2773,-5.2773,-5.2739,-5.2706,-5.2739,-5.2638,-5.2706,-5.2672,-5.23,-5.1894,-5.1488,-5.0947,-5.0574,-5.0608,-5.0676,-5.0642,-5.0371,-5.0371,-5.0744,-5.0642,-5.0067,-4.9765,-4.9731,-4.9432,-4.9335,-4.894,-4.8847,-4.8455,-4.8227,-4.813,-4.7968,-4.7704]},{"header":{"parameterUnit":"m.s-1","parameterCategory":1,"la1":31.0,"la2":29.5877,"lo1":-88.7671,"lo2":-86.6584,"dy":0.0162,"dx":0.0185,"nx":115,"ny":88,"refTime":"2024-04-27T18:00:00:Z","depth":0,"parameterNumber":3,"parameterNumberName":"V-component_of_WINDS"},"data":[0.0,0.0,0.0,0.0,0.0,0.0,0.0,0.0,0.0,0.0,0.0,0.0,0.0,0.0,0.0,0.0,0.0,0.0,0.0,0.0,0.0,0.0,0.0,0.0,0.0,0.0,0.0,0.0,0.0,0.0,0.0,0.0,0.0,0.0,0.0,0.0,0.0,0.0,0.0,0.0,0.0,0.0,0.0,0.0,0.0,0.0,0.0,0.0,0.0,0.0,0.0,0.0,0.0,0.0,0.0,0.0,0.0,0.0,0.0,0.0,0.0,0.0,0.0,0.0,0.0,0.0,0.0,0.0,0.0,0.0,0.0,0.0,0.0,0.0,0.0,0.0,0.0,0.0,0.0,0.0,0.0,0.0,0.0,0.0,0.0,0.0,0.0,0.0,0.0,0.0,0.0,0.0,0.0,0.0,0.0,0.0,0.0,0.0,0.0,0.0,0.0,0.0,0.0,0.0,0.0,0.0,0.0,0.0,0.0,0.0,0.0,0.0,0.0,0.0,0.0,0.0,0.0,0.0,0.0,0.0,0.0,0.0,0.0,0.0,0.0,0.0,0.0,0.0,0.0,0.0,0.0,0.0,0.0,0.0,0.0,0.0,0.0,0.0,0.0,0.0,0.0,0.0,0.0,0.0,0.0,0.0,0.0,0.0,0.0,0.0,0.0,0.0,0.0,0.0,0.0,0.0,0.0,0.0,0.0,0.0,0.0,0.0,0.0,0.0,0.0,0.0,0.0,0.0,0.0,0.0,0.0,0.0,0.0,0.0,0.0,0.0,0.0,0.0,0.0,0.0,0.0,0.0,0.0,0.0,0.0,0.0,0.0,0.0,0.0,0.0,0.0,0.0,0.0,0.0,0.0,0.0,0.0,0.0,0.0,0.0,0.0,0.0,0.0,0.0,0.0,0.0,0.0,0.0,0.0,0.0,0.0,0.0,0.0,0.0,0.0,0.0,0.0,0.0,0.0,0.0,0.0,0.0,0.0,0.0,0.0,0.0,0.0,0.0,0.0,0.0,0.0,0.0,0.0,0.0,0.0,0.0,0.0,0.0,0.0,0.0,0.0,0.0,0.0,0.0,0.0,0.0,0.0,0.0,0.0,0.0,0.0,0.0,0.0,0.0,0.0,0.0,0.0,0.0,0.0,0.0,0.0,0.0,0.0,0.0,0.0,0.0,0.0,0.0,0.0,0.0,0.0,0.0,0.0,0.0,0.0,0.0,0.0,0.0,0.0,0.0,0.0,0.0,0.0,0.0,0.0,0.0,0.0,0.0,0.0,0.0,0.0,0.0,0.0,0.0,0.0,0.0,0.0,0.0,0.0,0.0,0.0,0.0,0.0,0.0,0.0,0.0,0.0,0.0,0.0,0.0,0.0,0.0,0.0,0.0,0.0,0.0,0.0,0.0,0.0,0.0,0.0,0.0,0.0,0.0,0.0,0.0,0.0,0.0,0.0,0.0,0.0,0.0,0.0,0.0,0.0,0.0,0.0,0.0,0.0,0.0,0.0,0.0,0.0,0.0,0.0,0.0,0.0,0.0,0.0,0.0,0.0,0.0,0.0,0.0,0.0,0.0,0.0,0.0,0.0,0.0,0.0,0.0,0.0,0.0,0.0,0.0,0.0,0.0,0.0,0.0,0.0,0.0,0.0,0.0,0.0,0.0,0.0,0.0,0.0,0.0,0.0,0.0,0.0,0.0,0.0,0.0,0.0,0.0,0.0,0.0,0.0,0.0,0.0,0.0,0.0,0.0,0.0,0.0,0.0,0.0,0.0,0.0,0.0,0.0,0.0,0.0,0.0,0.0,0.0,0.0,0.0,0.0,0.0,0.0,0.0,0.0,0.0,0.0,0.0,0.0,0.0,0.0,0.0,0.0,0.0,0.0,0.0,0.0,0.0,0.0,0.0,0.0,0.0,0.0,0.0,0.0,0.0,0.0,0.0,0.0,0.0,0.0,0.0,0.0,0.0,0.0,0.0,0.0,0.0,0.0,0.0,0.0,0.0,0.0,0.0,0.0,0.0,0.0,0.0,0.0,0.0,0.0,0.0,0.0,0.0,0.0,0.0,0.0,0.0,0.0,0.0,0.0,0.0,0.0,0.0,0.0,0.0,0.0,0.0,0.0,0.0,0.0,0.0,0.0,0.0,0.0,0.0,0.0,0.0,0.0,0.0,0.0,0.0,0.0,0.0,0.0,0.0,0.0,0.0,0.0,0.0,0.0,0.0,0.0,0.0,0.0,0.0,0.0,0.0,0.0,0.0,0.0,0.0,0.0,0.0,0.0,0.0,0.0,0.0,0.0,0.0,0.0,0.0,0.0,0.0,0.0,0.0,0.0,0.0,0.0,0.0,0.0,0.0,0.0,0.0,0.0,0.0,0.0,0.0,0.0,0.0,0.0,0.0,0.0,0.0,0.0,0.0,0.0,0.0,0.0,0.0,0.0,0.0,0.0,0.0,0.0,0.0,0.0,0.0,0.0,0.0,0.0,0.0,0.0,0.0,0.0,0.0,0.0,0.0,0.0,0.0,0.0,0.0,0.0,0.0,0.0,0.0,0.0,0.0,0.0,0.0,0.0,0.0,0.0,0.0,0.0,0.0,0.0,0.0,0.0,0.0,0.0,0.0,0.0,0.0,0.0,0.0,0.0,0.0,0.0,0.0,0.0,0.0,0.0,0.0,0.0,0.0,0.0,0.0,0.0,0.0,0.0,0.0,0.0,0.0,0.0,0.0,0.0,0.0,0.0,0.0,0.0,0.0,0.0,0.0,0.0,0.0,0.0,0.0,0.0,0.0,0.0,0.0,0.0,0.0,0.0,0.0,0.0,0.0,0.0,0.0,0.0,0.0,0.0,0.0,0.0,0.0,0.0,0.0,0.0,0.0,0.0,0.0,0.0,0.0,0.0,0.0,0.0,0.0,0.0,0.0,0.0,0.0,0.0,0.0,0.0,0.0,0.0,0.0,0.0,0.0,0.0,0.0,0.0,0.0,0.0,0.0,0.0,0.0,0.0,0.0,0.0,0.0,0.0,0.0,0.0,0.0,0.0,0.0,0.0,0.0,0.0,0.0,0.0,0.0,0.0,0.0,0.0,0.0,0.0,0.0,0.0,0.0,0.0,0.0,0.0,0.0,0.0,0.0,0.0,0.0,0.0,0.0,0.0,0.0,0.0,0.0,0.0,0.0,0.0,0.0,0.0,0.0,0.0,0.0,0.0,0.0,0.0,0.0,0.0,0.0,0.0,0.0,0.0,0.0,0.0,0.0,0.0,0.0,0.0,0.0,0.0,0.0,0.0,0.0,0.0,0.0,0.0,0.0,0.0,0.0,0.0,0.0,0.0,0.0,0.0,0.0,0.0,0.0,0.0,0.0,0.0,0.0,0.0,0.0,0.0,0.0,0.0,0.0,0.0,0.0,0.0,0.0,0.0,0.0,0.0,0.0,0.0,0.0,0.0,0.0,0.0,0.0,0.0,0.0,0.0,0.0,0.0,0.0,0.0,0.0,0.0,0.0,0.0,0.0,0.0,0.0,0.0,0.0,0.0,0.0,0.0,0.0,0.0,0.0,0.0,0.0,0.0,0.0,0.0,0.0,0.0,0.0,0.0,0.0,0.0,0.0,0.0,0.0,0.0,0.0,0.0,0.0,0.0,0.0,0.0,0.0,0.0,0.0,0.0,0.0,0.0,0.0,0.0,0.0,0.0,0.0,0.0,0.0,0.0,0.0,0.0,0.0,0.0,0.0,0.0,0.0,0.0,0.0,0.0,0.0,0.0,0.0,0.0,0.0,0.0,0.0,0.0,0.0,0.0,0.0,0.0,0.0,0.0,0.0,0.0,0.0,0.0,0.0,0.0,0.0,0.0,0.0,0.0,0.0,0.0,0.0,0.0,0.0,0.0,0.0,0.0,0.0,0.0,0.0,0.0,0.0,0.0,0.0,0.0,0.0,0.0,0.0,0.0,0.0,0.0,0.0,0.0,0.0,0.0,0.0,0.0,0.0,0.0,0.0,0.0,0.0,0.0,0.0,0.0,0.0,0.0,0.0,0.0,0.0,0.0,0.0,0.0,0.0,0.0,0.0,0.0,0.0,0.0,0.0,0.0,0.0,0.0,0.0,0.0,0.0,0.0,0.0,0.0,0.0,0.0,0.0,0.0,0.0,0.0,0.0,0.0,0.0,0.0,0.0,0.0,0.0,0.0,0.0,0.0,0.0,0.0,0.0,0.0,0.0,0.0,0.0,0.0,0.0,0.0,0.0,0.0,0.0,0.0,0.0,0.0,0.7356,0.0,0.0,0.0,0.0,0.0,0.0,0.0,0.0,0.0,0.0,0.0,0.0,0.0,0.0,0.0,0.0,0.0,0.0,0.0,0.0,0.0,0.0,0.0,0.0,0.0,0.0,0.0,0.0,0.0,0.0,0.0,0.0,0.0,0.0,0.0,0.0,0.0,0.0,0.0,0.0,0.0,0.0,0.0,0.0,0.0,0.0,0.0,0.0,0.0,0.0,0.0,0.0,0.0,0.0,0.0,0.0,0.0,0.0,0.0,0.0,0.0,0.0,0.0,0.0,0.0,0.0,0.0,0.0,0.0,0.0,0.0,0.0,0.0,0.0,0.0,0.0,0.0,0.0,0.0,0.0,0.0,0.0,0.0,0.0,0.0,0.0,0.0,0.0,0.0,0.0,0.0,0.0,0.0,0.0,0.0,0.0,0.0,0.0,0.0,0.0,0.0,0.0,0.0,0.0,0.0,0.0,0.0,0.0,0.0,0.0,0.7398,0.7398,0.7398,0.7398,0.7398,0.0,0.0,0.0,0.0,0.0,0.0,0.0,0.0,0.0,0.0,0.0,0.0,0.0,0.0,0.0,0.0,0.0,0.0,0.0,0.0,0.0,0.0,0.0,0.0,0.0,0.0,0.0,0.0,0.0,0.0,0.0,0.0,0.0,0.0,0.0,0.0,0.0,0.0,0.0,0.0,0.0,0.0,0.0,0.0,0.0,0.0,0.0,0.0,0.0,0.0,0.0,0.0,0.0,0.0,0.0,0.0,0.0,0.0,0.0,0.0,0.0,0.0,0.0,0.0,0.0,0.0,0.0,0.0,0.0,0.0,0.0,0.0,0.0,0.0,0.0,0.0,0.0,0.0,0.0,0.0,0.0,0.0,0.0,0.0,0.0,0.0,0.0,0.0,0.0,0.0,0.0,0.0,0.0,0.0,0.0,0.0,0.0,0.0,0.0,0.0,0.0,0.0,0.0,0.0,0.0,0.0,0.0,0.0,0.0,0.0,0.0,0.0,0.7461,0.7461,0.7482,0.0,0.0,0.0,0.0,0.0,0.0,0.0,0.0,0.0,0.0,0.0,0.0,0.0,0.0,0.0,0.0,0.0,0.0,0.0,0.0,0.0,0.0,0.0,0.0,0.0,0.0,0.0,0.0,0.0,0.0,0.0,0.0,0.0,0.0,0.0,0.0,0.0,0.0,0.0,0.0,0.0,0.0,0.0,0.0,0.0,0.0,0.0,0.0,0.0,0.0,0.0,0.0,0.0,0.0,0.0,0.0,0.0,0.0,0.0,0.0,0.0,0.0,0.0,0.0,0.0,0.0,0.0,0.0,0.0,0.0,0.0,0.0,0.0,0.0,0.0,0.0,0.0,0.0,0.0,0.0,0.0,0.0,0.0,0.0,0.0,0.0,0.0,0.0,0.0,0.0,0.0,0.0,0.0,0.0,0.0,0.0,0.0,0.0,0.0,0.0,0.0,0.0,0.0,0.0,0.0,0.0,0.0,0.0,0.0,0.0,0.767,0.767,0.767,0.0,0.767,0.0,0.0,0.0,0.0,0.0,0.0,0.0,0.0,0.0,0.0,0.0,0.0,0.0,0.0,0.0,0.0,0.0,0.0,0.0,0.0,0.0,0.0,0.0,0.0,0.0,0.0,0.0,0.0,0.0,0.0,0.0,0.0,0.0,0.0,0.0,0.0,0.0,0.0,0.0,0.0,0.0,0.0,0.0,0.0,0.0,0.0,0.0,0.0,0.0,0.0,0.0,0.0,0.0,0.0,0.0,0.0,0.0,0.0,0.0,0.0,0.0,0.0,0.0,0.0,0.0,0.0,0.0,0.0,0.0,0.0,0.0,0.0,0.0,0.0,0.0,0.0,0.0,0.0,0.0,0.0,0.0,0.0,0.0,0.0,0.0,0.0,0.0,0.0,0.0,0.0,0.0,0.0,0.0,0.0,0.0,0.0,0.0,0.0,0.0,0.0,0.0,0.0,0.0,0.0,0.0,0.0,0.0,0.0,0.0,0.0,0.7691,0.7691,0.7691,0.7691,0.0,0.0,0.0,0.0,0.0,0.0,0.0,0.0,0.0,0.0,0.0,0.0,0.0,0.0,0.0,0.0,0.0,0.0,0.0,0.0,0.0,0.0,0.0,0.0,0.0,0.0,0.0,0.0,0.0,0.0,0.0,0.0,0.0,0.0,0.0,0.0,0.0,0.0,0.0,0.0,0.0,0.0,0.0,0.0,0.0,0.0,0.0,0.0,0.0,0.0,0.0,0.0,0.0,0.0,0.0,0.0,0.0,0.0,0.0,0.0,0.0,0.0,0.0,0.0,0.0,0.0,0.0,0.0,0.0,0.0,0.0,0.0,0.0,0.0,0.0,0.0,0.0,0.0,0.0,0.0,0.0,0.0,0.0,0.0,0.0,0.0,0.0,0.0,0.0,0.0,0.0,0.0,0.0,0.0,0.0,0.0,0.0,0.0,0.0,0.0,0.0,0.0,0.0,0.0,0.0,0.0,0.0,0.0,0.0,0.0,0.7691,0.7691,0.7691,0.7691,0.7691,0.7691,0.0,0.0,0.0,0.0,0.0,0.0,0.0,0.0,0.0,0.0,0.0,0.0,0.0,0.0,0.0,0.0,0.0,0.0,0.0,0.0,0.0,0.0,0.0,0.0,0.0,0.0,0.0,0.0,0.0,0.0,0.0,0.0,0.0,0.0,0.0,0.0,0.0,0.0,0.0,0.0,0.0,0.0,0.0,0.0,0.0,0.0,0.0,0.0,0.0,0.0,0.0,0.0,0.0,0.0,0.0,0.0,0.0,0.0,0.0,0.0,0.0,0.0,0.0,0.0,0.0,0.0,0.0,0.0,0.0,0.0,0.0,0.0,0.0,0.0,0.0,0.0,0.0,0.0,0.0,0.0,0.0,0.0,0.0,0.0,0.0,0.0,0.0,0.0,0.0,0.0,0.0,0.0,0.0,0.0,0.0,0.0,0.0,0.0,0.0,0.0,0.0,0.0,0.0,0.0,0.0,0.0,0.0,0.0,0.7705,0.7705,0.7705,0.7705,0.7691,0.7691,0.0,0.0,0.0,0.0,0.0,0.0,0.0,0.0,0.0,0.0,0.0,0.0,0.0,0.0,0.0,0.0,0.0,0.0,0.0,0.0,0.0,0.0,0.0,0.0,0.0,0.0,0.0,0.0,0.0,0.0,0.0,0.0,0.0,0.0,0.0,0.0,0.0,0.0,0.0,0.0,0.0,0.0,0.0,0.0,0.0,0.0,0.0,0.0,0.0,0.0,0.0,0.0,0.0,0.0,0.0,0.0,0.0,0.0,0.0,0.0,0.0,0.0,0.0,0.0,0.0,0.0,0.0,0.0,0.0,0.0,0.0,0.0,0.0,0.0,0.0,0.0,0.0,0.0,0.0,0.0,0.0,0.0,0.0,0.0,0.0,0.0,0.0,0.0,0.0,0.0,0.0,0.0,0.0,0.0,0.0,0.0,0.0,0.0,0.0,0.0,0.0,0.0,0.0,0.0,0.0,0.0,0.0,0.0,0.0,0.8019,0.8224,0.8341,0.8341,0.8136,0.8012,0.0,0.0,0.0,0.0,0.0,0.0,0.0,0.0,0.0,0.0,0.0,0.0,0.0,0.0,0.0,0.0,0.0,0.0,0.0,0.0,0.0,0.0,0.0,0.0,0.0,0.0,0.0,0.0,0.0,0.0,0.0,0.0,0.0,0.0,0.0,0.0,0.0,0.0,0.0,0.0,0.0,0.0,0.0,0.0,0.0,0.0,0.0,0.0,0.0,0.0,0.0,0.0,0.0,0.0,0.0,0.0,0.0,0.0,0.0,0.0,0.0,0.0,0.0,0.0,0.0,0.0,0.0,0.0,0.0,0.0,0.0,0.0,0.0,0.0,0.0,0.0,0.0,0.0,0.0,0.0,0.0,0.0,0.0,0.0,0.0,0.0,0.0,0.0,0.0,0.0,0.0,0.0,0.0,0.0,0.0,0.0,0.0,0.0,0.0,0.0,0.0,0.0,0.0,0.0,0.0,0.0,0.0,0.0,0.0,0.8355,0.0,0.8701,0.8701,0.8473,0.8312,0.0,0.0,0.0,0.0,0.0,0.0,0.0,0.0,0.0,0.0,0.0,0.0,0.0,0.0,0.0,0.0,0.0,0.0,0.0,0.0,0.0,0.0,0.0,0.0,0.0,0.0,0.0,0.0,0.0,0.0,0.0,0.0,0.0,0.0,0.0,0.0,0.0,0.0,0.0,0.0,0.0,0.0,0.0,0.0,0.0,0.0,0.0,0.0,0.0,0.0,0.0,0.0,0.0,0.0,0.0,0.0,0.0,0.0,0.0,0.0,0.0,0.0,0.0,0.0,0.0,0.0,0.0,0.0,0.0,0.0,0.0,0.0,0.0,0.0,0.0,0.0,0.0,0.0,0.0,0.0,0.0,0.0,0.0,0.0,0.0,0.0,0.0,0.0,0.0,0.0,0.0,0.0,0.0,0.0,0.0,0.0,0.0,0.0,0.0,0.0,0.0,0.0,0.0,0.0,0.0,0.0,0.0,0.0,0.8399,0.8707,0.8774,0.8833,0.8721,0.8774,0.8583,0.0,0.0,0.0,0.0,0.0,0.0,0.0,0.0,0.0,0.0,0.0,0.0,0.0,0.0,0.0,0.0,0.0,0.0,0.0,0.0,0.0,0.0,0.0,0.0,0.0,0.0,0.0,0.0,0.0,0.0,0.0,0.0,0.0,0.0,0.0,0.0,0.0,0.0,0.0,0.0,0.0,0.0,0.0,0.0,0.0,0.0,0.0,0.0,0.0,0.0,0.0,0.0,0.0,0.0,0.0,0.0,0.0,0.0,0.0,0.0,0.0,0.0,0.0,0.0,0.0,0.0,0.0,0.0,0.0,0.0,0.0,0.0,0.0,0.0,0.0,0.0,0.0,0.0,0.0,0.0,0.0,0.0,0.0,0.0,0.0,0.0,0.0,0.0,0.0,0.0,0.0,0.0,0.0,0.0,0.0,0.0,0.0,0.0,0.0,0.0,0.0,0.0,0.0,0.0,0.0,0.0,0.0,0.0,0.0,1.0021,1.0214,1.0359,1.0344,0.9892,0.9511,0.0,0.0,0.0,0.0,0.0,0.0,0.0,0.0,0.0,0.0,0.0,0.0,0.0,0.0,0.0,0.0,0.0,0.0,0.0,0.0,0.0,0.0,0.0,0.0,0.0,0.0,0.0,0.0,0.0,0.0,0.0,0.0,0.0,0.0,0.0,0.0,0.0,0.0,0.0,0.0,0.0,0.0,0.0,0.0,0.0,0.0,0.0,0.0,0.0,0.0,0.0,0.0,0.0,0.0,0.0,0.0,0.0,0.0,0.0,0.0,0.0,0.0,0.0,0.0,0.0,0.0,0.0,0.0,0.0,0.0,0.0,0.0,0.0,0.0,0.0,0.0,0.0,0.0,0.0,0.0,0.0,0.0,0.0,0.0,0.0,0.0,0.0,0.0,0.0,0.0,0.0,0.0,0.0,0.0,0.0,0.0,0.0,0.0,0.0,0.0,0.0,0.0,0.0,0.0,0.0,0.0,0.0,0.0,0.0,1.1823,1.1692,1.165,1.1619,1.1092,1.0492,0.9819,0.0,0.0,0.0,0.0,0.0,0.0,0.0,0.0,0.0,0.0,0.0,0.0,0.0,0.0,0.0,0.0,0.0,0.0,0.0,0.0,0.0,0.0,0.0,0.0,0.0,0.0,0.0,0.0,0.0,0.0,0.0,0.0,0.0,0.0,0.0,0.0,0.0,0.0,0.0,0.0,0.0,0.0,0.0,0.0,0.0,0.0,0.0,0.0,0.0,0.0,0.0,0.0,0.0,0.0,0.0,0.0,0.0,0.0,0.0,0.0,0.0,0.0,0.0,0.0,0.0,0.0,0.0,0.0,0.0,0.0,0.0,0.0,0.0,0.0,0.0,0.0,0.0,0.0,0.0,0.0,0.0,0.0,0.0,0.0,0.0,0.0,0.0,0.0,0.0,0.0,0.0,0.0,0.0,0.0,0.0,0.0,0.0,0.0,0.0,0.0,0.0,0.0,0.0,0.0,0.0,0.0,0.0,0.0,1.4077,1.3228,1.2711,1.2658,1.2273,1.1485,0.0,0.0,0.0,0.0,0.0,0.0,0.0,0.0,0.0,0.0,0.0,0.0,0.0,0.0,0.0,0.0,0.0,0.0,0.0,0.0,0.0,0.0,0.0,0.0,0.0,0.0,0.0,0.0,0.0,0.0,0.0,0.0,0.0,0.0,0.0,0.0,0.0,0.0,0.0,0.0,0.0,0.0,0.0,0.0,0.0,0.0,0.0,0.0,0.0,0.0,0.0,0.0,0.0,0.0,0.0,0.0,0.0,0.0,0.0,0.0,0.0,0.0,0.0,0.0,0.0,0.0,0.0,0.0,0.0,0.0,0.0,0.0,0.0,0.0,0.0,0.0,0.0,0.0,0.0,0.0,0.0,0.0,0.0,0.0,0.0,0.0,0.0,0.0,0.0,0.0,0.0,0.0,0.0,0.0,0.0,0.0,0.0,0.0,0.0,0.0,0.0,0.0,0.0,0.0,0.0,0.0,0.0,0.0,0.0,1.5335,1.5613,1.5277,1.4302,1.3499,1.2696,0.0,0.0,0.0,0.0,0.0,0.0,0.0,0.0,0.0,0.0,0.0,0.0,0.0,0.0,0.0,0.0,0.0,0.0,0.0,0.0,0.0,0.0,0.0,0.0,0.0,0.0,0.0,0.0,0.0,0.0,0.0,0.0,0.0,0.0,0.0,0.0,0.0,0.0,0.0,0.0,0.0,0.0,0.0,0.0,0.0,0.0,0.0,0.0,0.0,0.0,0.0,0.0,0.0,0.0,0.0,0.0,0.0,0.0,0.0,0.0,0.0,0.0,0.0,0.0,0.0,0.0,0.0,0.0,0.0,0.0,0.0,0.0,0.0,0.0,0.0,0.0,0.0,0.0,0.0,0.0,0.0,0.0,0.0,0.0,0.0,0.0,0.0,0.0,0.0,0.0,0.0,0.0,0.0,0.0,0.0,0.0,0.0,0.0,0.0,0.0,0.0,0.0,0.0,0.0,0.0,0.0,0.0,0.0,1.5218,1.6682,1.734,1.7431,1.6739,1.5174,1.391,0.0,0.0,0.0,0.0,0.0,0.0,0.0,0.0,0.0,0.0,0.0,0.0,0.0,0.0,0.0,0.0,0.0,0.0,0.0,0.0,0.0,0.0,0.0,0.0,0.0,0.0,0.0,0.0,0.0,0.0,0.0,0.0,0.0,0.0,0.0,0.0,0.0,0.0,0.0,0.0,0.0,0.0,0.0,0.0,0.0,0.0,0.0,0.0,0.0,0.0,0.0,0.0,0.0,0.0,0.0,0.0,0.0,0.0,0.0,0.0,0.0,0.0,0.0,0.0,0.0,0.0,0.0,0.0,0.0,0.0,0.0,0.0,0.0,0.0,0.0,0.0,0.0,0.0,0.0,0.0,0.0,0.0,0.0,0.0,0.0,0.0,0.0,0.0,0.0,0.0,0.0,0.0,0.0,0.0,0.0,0.0,0.0,0.0,0.0,0.0,0.0,0.0,0.0,0.0,0.0,0.0,0.0,0.0,1.6608,1.7882,1.8584,1.9133,1.9338,1.6917,1.5036,0.0,0.0,0.0,0.0,0.0,0.0,0.0,0.0,0.0,0.0,0.0,0.0,0.0,0.0,0.0,0.0,0.0,0.0,0.0,0.0,0.0,0.0,0.0,0.0,0.0,0.0,0.0,0.0,0.0,0.0,0.0,0.0,0.0,0.0,0.0,0.0,0.0,0.0,0.0,0.0,0.0,0.0,0.0,0.0,0.0,0.0,0.0,0.0,0.0,0.0,0.0,0.0,0.0,0.0,0.0,0.0,0.0,0.0,0.0,0.0,0.0,0.0,0.0,0.0,0.0,0.0,0.0,0.0,0.0,0.0,0.0,0.0,0.0,0.0,0.0,0.0,0.0,0.0,0.0,0.0,0.0,0.0,0.0,0.0,0.0,0.0,0.0,0.0,0.0,0.0,0.0,0.0,0.0,0.0,0.0,0.0,0.0,0.0,0.0,0.0,0.0,0.0,0.0,0.0,0.0,0.0,0.0,0.0,1.7282,1.8555,1.9462,2.0013,2.0327,1.7799,1.6059,0.0,0.0,0.0,0.0,0.0,0.0,0.0,0.0,0.0,0.0,0.0,0.0,0.0,0.0,0.0,0.0,0.0,0.0,0.0,0.0,0.0,0.0,0.0,0.0,0.0,0.0,0.0,0.0,0.0,0.0,0.0,0.0,0.0,0.0,0.0,0.0,0.0,0.0,0.0,0.0,0.0,0.0,0.0,0.0,0.0,0.0,0.0,0.0,1.1246,0.0,0.0,0.0,0.0,0.0,0.0,0.0,0.0,0.0,0.0,0.0,0.0,0.0,0.0,0.0,0.0,0.0,0.0,0.0,0.0,0.0,0.0,0.0,0.0,0.0,0.0,0.0,0.0,0.0,0.0,0.0,0.0,0.0,0.0,0.0,0.0,0.0,0.0,0.0,0.0,0.0,0.0,0.0,0.0,0.0,0.0,0.0,0.0,0.0,0.0,0.0,0.0,0.0,0.0,0.0,0.0,0.0,0.0,0.0,1.816,1.9433,2.0376,2.097,2.0992,1.9079,1.7431,0.0,0.0,0.0,0.0,0.0,0.0,0.0,0.0,0.0,0.0,0.0,0.0,0.0,0.0,0.0,0.0,0.0,0.0,0.0,0.0,0.0,0.0,0.0,0.0,0.0,0.0,0.0,0.0,0.0,0.0,0.0,0.0,0.0,0.0,0.0,0.0,0.0,0.0,0.0,0.0,0.0,0.0,0.0,0.0,0.0,0.0,0.0,0.0,0.0,0.0,0.0,0.0,0.0,0.0,0.0,0.0,0.0,0.0,0.0,0.0,0.0,0.0,0.0,0.0,0.0,0.0,0.0,0.0,0.0,0.0,0.0,0.0,0.0,0.0,0.0,0.0,0.0,0.0,0.0,0.0,0.0,0.0,0.0,0.0,0.0,0.0,0.0,0.0,0.0,0.0,0.0,0.0,0.0,0.0,0.0,0.0,0.0,0.0,0.0,0.0,0.0,0.0,0.0,0.0,0.0,0.0,0.0,1.7121,1.9023,2.0395,2.1368,2.1822,2.1687,2.0456,1.8863,1.7025,0.0,0.0,0.0,0.0,0.0,0.0,0.0,0.0,0.0,0.0,0.0,0.0,0.0,0.0,0.0,0.0,0.0,0.0,0.0,0.0,0.0,0.0,0.0,0.0,0.0,0.0,0.0,0.0,0.0,0.0,0.0,0.0,0.0,0.0,0.0,0.0,0.0,0.0,1.0013,1.0727,0.0,0.0,0.0,0.0,0.0,0.0,0.0,0.0,1.3186,0.0,0.0,0.0,0.0,0.0,0.0,0.0,0.0,0.0,0.0,0.0,0.0,0.0,0.0,0.0,0.0,0.0,0.0,0.0,0.0,0.0,0.0,0.0,0.0,0.0,0.0,0.0,0.0,0.0,0.0,0.0,0.0,0.0,0.0,0.0,0.0,0.0,0.0,0.0,0.0,0.0,0.0,0.0,0.0,0.0,0.0,0.0,0.0,0.0,0.0,0.0,0.0,0.0,0.0,0.0,0.0,1.5657,1.7677,1.9582,2.141,2.2095,2.2404,2.2328,2.1294,1.9753,1.7676,0.0,0.0,0.0,0.0,0.0,0.0,0.0,0.0,0.0,0.0,0.0,0.0,0.0,0.0,0.0,0.0,0.0,0.0,0.0,0.0,0.0,0.0,0.0,0.0,0.0,0.0,0.0,0.0,0.0,0.0,0.0,0.0,0.0,0.0,0.0,0.0,0.0,0.0,0.0,1.1914,1.2577,0.0,0.0,0.0,0.0,0.0,0.0,0.0,0.0,1.3488,0.0,0.0,0.0,0.0,0.0,0.0,0.0,0.0,0.0,0.0,0.0,0.0,0.0,0.0,0.0,0.0,0.0,0.0,0.0,0.0,0.0,0.0,0.0,0.0,0.0,0.0,0.0,0.0,0.0,0.0,0.0,0.0,0.0,0.0,0.0,0.0,0.0,0.0,0.0,0.0,0.0,0.0,0.0,0.0,0.0,0.0,0.0,0.0,0.0,0.0,0.0,0.0,0.0,0.0,0.0,1.5672,1.7721,1.9575,2.1122,2.2133,2.2485,2.2233,2.1227,1.9777,0.0,0.0,0.0,0.0,0.0,0.0,0.0,0.0,0.0,0.0,0.0,0.0,0.0,0.0,0.0,0.0,0.0,0.0,0.0,0.0,0.0,0.0,0.0,0.0,0.0,0.0,0.0,0.0,0.0,0.0,0.0,0.0,0.0,0.0,0.0,0.0,0.0,0.0,0.0,0.0,1.2827,1.3635,1.4414,0.0,0.0,0.0,0.0,0.0,0.0,1.5276,1.4799,0.0,0.0,0.0,0.0,0.0,0.0,0.0,0.0,0.0,0.0,0.0,0.0,0.0,0.0,0.0,0.0,0.0,0.0,0.0,0.0,0.0,0.0,0.0,0.0,0.0,0.0,0.0,0.0,0.0,0.0,0.0,0.0,0.0,0.0,0.0,0.0,0.0,0.0,0.0,0.0,0.0,0.0,0.0,0.0,0.0,0.0,0.0,0.0,0.0,0.0,0.0,0.0,0.0,0.0,0.0,1.5716,1.7735,1.9524,2.0948,2.2048,2.2471,2.2095,2.0976,1.9574,0.0,0.0,0.0,0.0,0.0,0.0,0.0,0.0,0.0,0.0,0.0,0.0,0.0,0.0,0.0,0.0,0.0,0.0,0.0,0.0,0.0,0.0,0.0,0.0,0.0,0.0,0.0,0.0,0.0,0.0,0.0,0.0,0.0,0.0,0.0,0.0,0.0,0.0,0.0,0.0,0.0,1.4598,1.5863,1.557,0.0,0.0,0.0,0.0,1.667,1.6541,0.0,0.0,0.0,0.0,0.0,0.0,0.0,0.0,0.0,0.0,0.0,0.0,0.0,0.0,0.0,0.0,0.0,0.0,0.0,0.0,0.0,0.0,0.0,0.0,0.0,0.0,0.0,0.0,0.0,0.0,0.0,0.0,0.0,0.0,0.0,0.0,0.0,0.0,0.0,0.0,0.0,0.0,0.0,0.0,0.0,0.0,0.0,0.0,0.0,0.0,0.0,0.0,0.0,0.0,0.0,0.0,1.6683,1.8072,1.9799,2.1805,2.2406,2.2513,2.2427,2.1131,1.9574,0.0,0.0,0.0,0.0,0.0,0.0,0.0,0.0,0.0,0.0,0.0,0.0,0.0,0.0,0.0,0.0,0.0,0.0,0.0,0.0,0.0,0.0,0.0,0.0,0.0,0.0,0.0,0.0,0.0,0.0,0.0,0.0,0.0,0.0,0.0,0.0,0.0,0.0,0.0,0.0,0.0,1.5515,1.7073,1.634,1.6303,0.0,0.0,1.7092,1.777,1.7312,0.0,0.0,0.0,0.0,0.0,0.0,0.0,0.0,0.0,0.0,0.0,0.0,0.0,0.0,0.0,0.0,0.0,0.0,0.0,0.0,0.0,0.0,0.0,0.0,0.0,0.0,0.0,0.0,0.0,0.0,0.0,0.0,0.0,0.0,0.0,0.0,0.0,0.0,0.0,0.0,0.0,0.0,0.0,0.0,0.0,0.0,0.0,0.0,0.0,0.0,0.0,0.0,0.0,0.0,0.0,1.4516,1.658,1.7852,1.9509,2.1475,2.1872,2.2091,2.2196,2.0689,1.9177,0.0,0.0,0.0,0.0,0.0,0.0,0.0,0.0,0.0,0.0,0.0,0.0,0.0,0.0,0.0,0.0,0.0,0.0,0.0,0.0,0.0,0.0,0.0,0.0,0.0,0.0,0.0,0.0,0.0,0.0,0.0,0.0,0.0,0.0,0.0,0.0,0.0,0.0,0.0,0.0,0.0,0.0,1.8339,1.8064,0.0,0.0,0.0,1.8815,1.9363,0.0,0.0,0.0,0.0,0.0,0.0,0.0,0.0,0.0,0.0,0.0,0.0,0.0,0.0,0.0,0.0,0.0,0.0,0.0,0.0,0.0,0.0,0.0,0.0,0.0,0.0,0.0,0.0,0.0,0.0,0.0,0.0,0.0,0.0,0.0,0.0,0.0,0.0,0.0,0.0,0.0,0.0,0.0,0.0,0.0,0.0,0.0,0.0,0.0,0.0,0.0,0.0,0.0,0.0,0.0,0.0,0.0,1.6389,1.7743,1.9278,2.1048,2.1484,2.1775,2.1941,2.0403,0.0,0.0,0.0,0.0,0.0,0.0,0.0,0.0,0.0,0.0,0.0,0.0,0.0,0.0,0.0,0.0,0.0,0.0,0.0,0.0,0.0,0.0,0.0,0.0,0.0,0.0,0.0,1.0739,0.0,0.0,0.0,0.0,0.0,0.0,0.0,0.0,0.0,0.0,0.0,0.0,0.0,0.0,1.8082,1.9677,1.9659,1.9952,0.0,0.0,2.0442,2.0735,2.0136,1.9164,0.0,0.0,0.0,0.0,0.0,0.0,0.0,0.0,0.0,0.0,0.0,0.0,0.0,0.0,0.0,0.0,0.0,0.0,0.0,0.0,0.0,0.0,0.0,0.0,0.0,0.0,0.0,0.0,0.0,0.0,0.0,0.0,0.0,0.0,0.0,0.0,0.0,0.0,0.0,0.0,0.0,0.0,0.0,0.0,0.0,0.0,0.0,0.0,0.0,0.0,0.0,0.0,0.0,0.0,0.0,1.6375,1.798,1.9532,2.1048,2.1704,2.1979,2.1995,2.0626,1.9383,0.0,0.0,0.0,0.0,0.0,0.0,0.0,0.0,0.0,0.0,0.0,0.0,0.0,0.0,0.0,0.0,0.0,0.0,0.0,0.0,0.0,0.0,0.0,0.0,0.0,0.0,0.0,0.0,0.0,0.0,0.0,0.0,0.0,0.0,0.0,0.0,0.0,0.0,0.0,0.0,0.0,1.8485,2.1156,2.057,2.0552,0.0,0.0,2.1577,2.1614,2.0918,1.9897,1.8301,0.0,0.0,0.0,0.0,0.0,0.0,0.0,0.0,0.0,0.0,0.0,0.0,0.0,0.0,0.0,0.0,0.0,0.0,0.0,0.0,0.0,0.0,0.0,0.0,0.0,0.0,0.0,0.0,0.0,0.0,0.0,0.0,0.0,0.0,0.0,0.0,0.0,0.0,0.0,0.0,0.0,0.0,0.0,0.0,0.0,0.0,0.0,0.0,0.0,0.0,0.0,0.0,0.0,1.4663,1.6327,1.797,1.9542,2.0993,2.1488,2.1775,2.2011,2.04,1.9112,0.0,0.0,0.0,0.0,0.0,0.0,0.0,0.0,0.0,0.0,0.0,0.0,0.0,0.0,0.0,0.0,0.0,0.0,0.0,0.0,0.0,0.0,0.0,0.0,0.0,0.0,0.0,0.0,1.4401,1.4849,1.5032,0.0,0.0,0.0,0.0,0.0,0.0,0.0,0.0,0.0,0.0,1.9934,2.1467,2.1723,0.0,0.0,2.2419,2.2053,2.2053,2.1218,2.0186,1.9344,1.788,0.0,0.0,0.0,0.0,0.0,0.0,0.0,0.0,0.0,0.0,0.0,0.0,0.0,0.0,0.0,0.0,0.0,0.0,0.0,0.0,0.0,0.0,0.0,0.0,0.0,0.0,0.0,0.0,0.0,0.0,0.0,0.0,0.0,0.0,0.0,0.0,0.0,0.0,0.0,0.0,0.0,0.0,0.0,0.0,0.0,0.0,0.0,0.0,0.0,0.0,0.0,0.0,1.4821,1.647,1.8097,1.9567,2.0981,2.1446,2.1742,2.191,2.0418,1.9176,0.0,0.0,0.0,0.0,0.0,0.0,0.0,0.0,0.0,0.0,0.0,0.0,0.0,0.0,0.0,0.0,0.0,0.0,0.0,0.0,0.0,0.0,0.0,0.0,0.0,0.0,0.0,0.0,1.5128,1.5365,1.5391,0.0,0.0,0.0,0.0,0.0,0.0,0.0,0.0,0.0,0.0,2.0802,2.1933,2.2437,2.2803,2.3041,2.273,2.2465,2.2291,2.1401,2.0479,1.9966,0.0,0.0,0.0,0.0,0.0,0.0,0.0,0.0,0.0,0.0,0.0,0.0,0.0,0.0,0.0,0.0,0.0,0.0,0.0,0.0,0.0,0.0,0.0,0.0,0.0,0.0,0.0,0.0,0.0,0.0,1.3038,0.0,0.0,0.0,0.0,0.0,0.0,0.0,0.0,0.0,0.0,0.0,0.0,0.0,0.0,0.0,0.0,0.0,0.0,0.0,0.0,0.0,0.0,1.4939,1.6756,1.8345,1.9753,2.095,2.166,2.1941,2.1963,2.0641,1.9734,1.9288,0.0,0.0,0.0,0.0,0.0,0.0,0.0,0.0,0.0,0.0,0.0,0.0,0.0,0.0,0.0,0.0,0.0,0.0,0.0,0.0,0.0,0.0,0.0,0.0,0.0,0.0,1.5391,1.5904,1.5944,0.0,0.0,0.0,0.0,0.0,0.0,0.0,0.0,0.0,0.0,1.976,2.0861,2.2612,2.2547,2.2602,2.3334,2.3114,2.273,2.2327,2.1621,2.079,0.0,0.0,0.0,0.0,0.0,0.0,0.0,0.0,0.0,0.0,0.0,0.0,0.0,0.0,0.0,0.0,0.0,0.0,0.0,0.0,0.0,0.0,0.0,0.0,0.0,0.0,0.0,1.4739,1.4779,0.0,0.0,0.0,0.0,0.0,0.0,0.0,0.0,0.0,0.0,0.0,1.6476,1.6638,0.0,0.0,0.0,0.0,0.0,0.0,0.0,0.0,0.0,0.0,0.0,0.0,1.5513,1.6672,1.8332,1.9651,2.0581,2.127,2.1571,2.1608,2.053,1.9527,1.8684,0.0,0.0,0.0,0.0,0.0,0.0,0.0,0.0,0.0,0.0,0.0,0.0,0.0,0.0,0.0,0.0,0.0,0.0,0.0,0.0,0.0,0.0,0.0,0.0,0.0,1.5216,0.0,0.0,0.0,0.0,0.0,0.0,0.0,0.0,0.0,0.0,0.0,1.849,2.0098,2.0724,2.1423,2.2602,2.2713,2.2693,0.0,0.0,0.0,0.0,0.0,0.0,0.0,0.0,0.0,0.0,0.0,0.0,0.0,0.0,1.3929,1.2735,1.2275,1.222,1.2625,0.0,0.0,0.0,0.0,0.0,0.0,0.0,0.0,0.0,0.0,0.0,0.0,0.0,0.0,0.0,0.0,1.6097,0.0,0.0,0.0,0.0,0.0,0.0,0.0,0.0,1.7033,1.7384,1.7999,1.8013,1.794,0.0,1.7666,1.6652,0.0,0.0,0.0,0.0,0.0,0.0,0.0,0.0,1.6061,1.6733,1.8454,1.9667,2.025,2.098,2.1349,2.1206,2.0241,1.9304,1.8319,1.7413,1.6826,0.0,0.0,0.0,0.0,0.0,0.0,0.0,0.0,0.0,0.0,0.0,0.0,0.0,0.0,0.0,0.0,0.0,0.0,0.0,0.0,0.0,0.0,0.0,1.6276,0.0,0.0,0.0,0.0,0.0,0.0,0.0,0.0,0.0,1.7598,1.8472,1.9542,2.0715,2.1263,2.1814,2.259,0.0,0.0,0.0,0.0,0.0,0.0,0.0,2.1108,2.1108,2.0338,1.9586,1.9201,1.821,1.7367,1.6835,0.0,0.0,1.4047,1.3497,1.347,1.3846,1.4231,1.4634,1.5056,1.5226,1.5423,0.0,0.0,0.0,0.0,0.0,0.0,0.0,0.0,1.7999,1.7852,0.0,1.7516,0.0,0.0,0.0,0.0,0.0,0.0,0.0,0.0,1.8335,1.8686,1.9272,1.9286,1.914,1.8847,1.8818,1.8482,1.7808,1.6623,0.0,0.0,0.0,0.0,0.0,0.0,1.6566,1.6861,1.8679,1.9783,2.0015,2.0913,2.1206,2.0877,1.9908,1.9097,1.8367,1.8271,1.7985,1.7334,1.6619,0.0,0.0,0.0,0.0,0.0,0.0,0.0,0.0,0.0,0.0,0.0,0.0,0.0,0.0,0.0,0.0,0.0,0.0,0.0,0.0,1.702,0.0,0.0,0.0,0.0,0.0,0.0,0.0,0.0,0.0,0.0,1.8105,1.9512,2.0703,2.0949,0.0,0.0,0.0,0.0,2.1833,2.2199,2.1943,2.1687,2.1687,2.1401,2.1145,2.1126,0.0,0.0,1.9966,1.9253,1.8742,1.8724,1.8045,1.6927,1.5007,1.4653,1.4726,1.5111,1.5496,1.5881,1.6285,1.6633,1.689,2.2601,0.0,0.0,0.0,0.0,1.9482,1.9477,1.9382,1.9242,1.9081,1.8847,1.876,0.0,0.0,0.0,0.0,0.0,0.0,1.8642,1.933,1.9397,1.9564,1.9959,1.9959,1.9901,1.9828,1.9774,1.9608,1.9199,1.8599,1.7691,1.6507,0.0,0.0,0.0,0.0,1.6964,1.7475,1.8662,1.9502,2.0,2.0692,2.0782,2.0178,1.9654,1.9145,1.8684,1.843,1.8208,1.8017,1.735,0.0,0.0,0.0,0.0,0.0,0.0,0.0,0.0,0.0,0.0,0.0,0.0,0.0,0.0,0.0,0.0,0.0,0.0,0.0,1.7352,1.7622,1.7612,0.0,0.0,0.0,0.0,0.0,0.0,0.0,0.0,0.0,1.926,2.0059,2.0957,0.0,0.0,2.1981,2.2422,2.2028,2.1723,2.1833,0.0,0.0,0.0,2.1595,2.1504,2.1522,2.1174,2.0814,2.0411,2.0154,1.9806,1.9256,1.8944,1.8394,1.7348,1.6597,1.6395,1.6725,1.6908,1.711,1.7478,1.7679,1.7789,2.5101,2.2828,2.1672,2.1174,2.1189,2.1189,2.1072,2.0896,2.0764,2.06,2.0237,2.0106,1.9681,1.9052,1.8803,0.0,0.0,0.0,1.9711,2.034,2.0472,2.0706,2.0984,2.0881,2.0808,2.0752,2.0489,2.034,2.0135,1.9813,1.9096,1.8077,0.0,0.0,1.696,1.7516,1.7875,1.8004,1.8979,1.9669,1.9898,2.019,2.0205,1.9925,1.9399,1.905,1.8797,1.8575,1.851,1.851,1.8112,1.7615,0.0,0.0,0.0,0.0,0.0,0.0,0.0,0.0,0.0,0.0,0.0,1.2987,1.4093,0.0,0.0,0.0,1.6409,1.735,1.8333,1.8062,0.0,0.0,0.0,0.0,0.0,0.0,0.0,1.7896,1.8535,1.9219,2.0059,2.0703,2.1367,2.2168,2.2131,2.2114,2.2359,0.0,2.1687,2.1687,2.1687,2.1687,2.1687,2.1687,2.1687,2.1687,2.1485,2.1291,2.101,2.0888,2.0576,2.0136,1.9769,1.9402,1.8887,1.8302,1.7789,1.777,1.788,1.8064,1.8283,1.8447,1.8595,2.6899,2.5447,2.3618,2.2813,2.274,2.274,2.271,2.2681,2.2403,2.2111,2.1789,2.1467,2.0969,2.0256,1.9711,0.0,1.993,2.0223,2.0691,2.1291,2.1598,2.1891,2.2154,2.1862,2.173,2.1715,2.1101,2.0794,2.0779,2.0442,2.012,1.9867,1.8906,1.8277,1.7999,1.8789,1.8964,1.8438,1.9598,2.0069,1.9769,1.9576,1.9599,1.9811,1.9178,1.8767,1.8735,1.8813,1.8813,1.8829,1.8845,1.8544,1.789,0.0,0.0,0.0,0.0,0.0,0.0,0.0,0.0,0.0,0.0,0.0,0.0,0.0,0.0,0.0,1.7613,0.0,1.8776,1.8386,0.0,0.0,0.0,1.7015,1.6632,1.7154,1.7695,1.8105,0.0,0.0,2.0507,0.0,2.1936,2.1936,2.2169,2.2397,2.2397,2.1998,2.1687,2.1687,2.1687,2.1687,2.1687,2.1687,2.1687,2.1687,2.1687,2.1668,2.1632,2.142,2.1163,2.1034,2.0503,1.993,1.9893,1.9512,1.9109,1.8319,1.8504,1.8742,1.8779,1.9017,1.9219,2.7286,2.6193,2.5242,2.4408,2.3735,2.3735,2.3588,2.3369,2.3296,2.3076,2.2754,2.2432,2.1935,2.1335,2.0925,2.0925,2.1247,2.132,2.1569,2.195,2.2037,2.2111,2.2169,2.2111,2.2067,2.2037,2.1657,2.1467,2.1437,2.0881,2.0518,2.0472,1.9964,1.9491,1.895,1.8921,1.9081,1.947,1.9955,2.0242,2.0347,1.9877,1.9453,1.9305,1.8889,1.8534,1.8288,1.8707,1.8942,1.8942,1.9192,1.9115,1.8559,1.7937,0.0,0.0,0.0,0.0,0.0,0.0,0.0,0.0,0.0,1.5162,1.6532,0.0,1.6819,0.0,1.7793,1.802,1.8186,1.7987,0.0,0.0,1.8027,1.7931,1.814,1.8414,1.8824,1.9377,1.9629,1.9961,2.0546,2.1368,2.1936,2.1894,2.2169,2.2397,2.2397,2.1998,2.1687,2.1687,2.1687,2.1687,2.1687,2.1687,2.1687,2.1687,2.1687,2.1687,2.1687,2.1632,2.1449,2.1181,2.0979,2.0613,2.0003,1.9802,1.9564,1.9146,1.9091,1.9164,1.9164,1.9237,1.9292,2.7463,2.6457,2.5798,2.514,2.4576,2.4576,2.4335,2.4042,2.4027,2.3852,2.3515,2.3193,2.2871,2.252,2.2198,2.2154,2.233,2.2476,2.2564,2.2608,2.2754,2.274,2.2593,2.2447,2.2374,2.2359,2.192,2.1701,2.1672,2.1189,2.0867,2.072,2.0343,2.0062,1.9711,1.9667,1.9828,2.0179,2.0195,2.0262,2.0363,1.9728,1.9356,1.9338,1.9002,1.8728,1.8544,1.8872,1.9093,1.9205,1.9532,1.9505,1.9113,1.8845,1.8252,0.0,0.0,0.0,0.0,0.0,0.0,0.0,0.0,0.0,0.0,0.0,1.7712,1.8305,1.8156,1.8054,1.8059,1.7911,1.7873,1.8106,1.8093,1.8193,1.8397,1.8784,1.9195,1.9675,1.9847,2.0078,2.0566,2.1172,2.168,2.1855,2.2163,2.232,2.2315,2.1998,2.1687,2.1687,2.1687,2.1687,2.1687,2.1687,2.1687,2.1687,2.1687,2.1687,2.1687,2.1522,2.1438,2.1365,2.0961,2.0521,2.0186,1.9838,1.9527,1.9384,1.9292,1.9292,1.9292,1.9292,1.9292,2.7455,2.6526,2.5853,2.5442,2.5246,2.5134,2.4958,2.4627,2.4627,2.4452,2.413,2.3837,2.3691,2.3647,2.3354,2.3237,2.3252,2.353,2.3486,2.3193,2.3457,2.3427,2.3106,2.2813,2.2667,2.2593,2.2037,2.1745,2.1686,2.132,2.0998,2.072,2.0343,2.0183,2.0197,2.046,2.0662,2.0606,2.0329,2.0185,2.0127,1.9612,1.9385,1.9446,1.9223,1.9041,1.9011,1.909,1.9269,1.9514,1.9875,1.9899,1.9527,1.9653,1.9325,0.0,1.8071,0.0,0.0,0.0,0.0,0.0,0.0,0.0,0.0,1.8443,1.8655,1.8891,1.8496,1.8188,1.8154,1.7929,1.7826,1.7865,1.8067,1.8209,1.8284,1.8751,1.9275,1.9621,1.9849,2.0156,2.0566,2.0957,2.1366,2.1738,2.2058,2.2227,2.2334,2.2006,2.1731,2.1731,2.1687,2.1687,2.1687,2.1687,2.1687,2.1687,2.1614,2.1614,2.1577,2.1248,2.1145,2.1321,2.0723,2.0131,2.0411,1.9861,1.9402,1.9311,1.9292,1.9292,1.9292,1.9292,1.9292,2.7109,2.6904,2.625,2.5987,2.5844,2.5305,2.509,2.5031,2.5031,2.4841,2.4547,2.4408,2.4232,2.3998,2.3925,2.3896,2.391,2.3969,2.3808,2.3515,2.3574,2.3427,2.312,2.3047,2.2886,2.2608,2.2257,2.195,2.1686,2.1101,2.0779,2.072,2.0398,2.0183,2.0183,0.0,0.0,0.0,2.0212,2.0077,1.9876,1.9744,1.942,1.897,1.8882,0.0,1.8469,1.9119,1.9506,1.9622,2.0335,0.0,0.0,0.0,0.0,0.0,0.0,0.0,0.0,0.0,0.0,0.0,1.8819,1.8846,1.9104,1.9002,1.882,1.8589,1.8346,1.8087,1.7843,1.7893,1.8049,1.8249,1.8475,1.8698,1.9033,1.9462,1.9869,2.012,2.0333,2.0469,2.0605,2.0957,2.121,2.1366,2.1823,2.2178,2.2251,2.212,2.1954,2.1731,2.1687,2.1687,2.1687,2.1687,2.165,2.1668,2.1394,2.1255,2.12,2.0906,2.0649,2.0735,2.0558,2.0241,2.0058,1.9875,1.9619,1.9366,1.9292,1.9292,1.9292,1.9292,1.9292,2.6768,0.0,2.6049,2.5846,0.0,2.5151,2.4885,2.4899,2.5061,2.5031,2.4818,2.4818,2.4782,2.4635,2.4569,2.4554,2.4635,2.4635,2.4291,2.3837,2.3837,2.3486,2.2871,2.2871,2.271,2.2403,2.2096,2.1774,2.1437,2.0955,2.0559,2.0252,2.0077,1.9916,1.9769,1.9755,1.9916,2.0183,2.0077,1.9916,1.9808,1.9661,1.9426,1.9038,0.0,0.0,0.0,0.0,0.0,0.0,0.0,0.0,0.0,0.0,0.0,1.9692,1.9563,1.9526,1.9453,1.9281,1.9247,1.9436,1.9624,1.9683,1.9567,1.9417,1.9178,1.8852,1.8566,1.8219,1.7863,1.7951,1.8072,1.8193,1.8491,1.8812,1.8993,1.9548,1.9942,2.0098,2.0372,2.0605,2.0605,2.0742,2.0996,2.1171,2.146,2.1842,2.2121,2.2239,2.2176,2.1909,2.1794,2.1687,2.1668,2.1485,2.142,2.1339,2.1089,2.0851,2.0814,2.0484,2.0283,2.0429,2.0209,1.9879,1.9893,1.9769,1.9549,1.9366,1.9292,1.9292,1.9292,1.9292,1.9292,2.6406,2.6186,2.5779,2.5592,2.5577,2.4901,2.4606,2.451,0.0,0.0,0.0,2.4943,2.4958,2.4891,2.4943,2.4958,2.4958,2.4943,2.4569,2.3998,2.3998,2.3515,2.2637,2.2623,2.2432,2.2096,2.1818,2.1496,2.1115,2.0794,2.034,1.9867,1.9764,1.9588,1.9286,1.9272,1.9535,2.0033,1.9872,1.9793,1.9735,1.9529,1.933,1.9272,1.9272,1.9272,1.9272,1.9583,1.9879,2.0071,2.0436,2.0586,2.0378,2.0614,2.0547,2.0108,1.9985,1.9853,1.9802,1.9555,1.9504,1.9785,2.0121,2.0172,1.9819,1.9734,1.958,1.9299,1.8853,1.8459,1.8128,1.8025,1.7991,1.7991,1.8411,1.8709,1.8749,1.939,1.9902,1.9942,2.0333,2.0605,2.0605,2.0625,2.0684,2.1035,2.1171,2.1423,2.2013,2.225,2.2271,2.2064,2.185,2.1673,2.1519,2.128,2.1059,2.0998,2.0625,2.0387,2.0314,2.004,1.993,2.0191,1.9714,1.9531,1.9674,1.9549,1.9311,1.9292,1.9292,1.9292,1.9292,1.9292,1.9292,2.6072,2.6594,2.5876,2.5592,2.5562,2.4915,2.4474,2.4159,2.4203,2.4218,2.4218,2.4218,2.4218,2.4218,2.4218,2.4218,2.4218,2.4218,2.4027,0.0,2.3662,2.3296,2.2637,2.2623,2.233,2.1789,2.1715,2.1379,2.0808,2.0402,2.012,1.9823,1.9477,1.933,1.9324,1.9272,1.9316,1.9418,1.9705,1.9623,1.936,1.9632,1.9617,1.9286,1.9272,1.9272,1.9272,1.9776,2.0086,2.0138,2.1014,2.1393,2.1098,2.1507,2.1494,2.0827,2.0754,2.0566,2.024,2.0155,2.0155,2.0206,2.0275,2.0275,2.0206,1.9888,1.9683,1.9597,1.9025,1.8562,1.8494,1.8237,1.8042,1.8066,1.8428,1.8709,1.8785,1.9427,1.994,1.994,2.0333,2.0605,2.0605,2.0605,2.0625,2.0703,2.1016,2.1385,2.1809,2.2227,2.2189,2.1919,2.1782,2.1545,2.115,2.0903,2.0763,2.0594,2.0264,1.9966,1.9966,1.9674,1.9476,1.9476,1.9402,1.9347,1.9402,1.9366,1.9292,1.9292,1.9292,1.9292,1.9292,1.9292,1.9292,2.5794,2.6063,2.5727,2.5592,2.5562,2.4723,2.4013,2.3574,2.3559,2.3764,2.4071,2.4086,2.4086,2.4086,2.4086,2.4086,2.4086,2.4086,2.391,2.3618,2.3603,2.3164,2.2432,2.2389,2.2052,2.1452,2.1437,2.1189,2.0735,2.0343,2.0077,1.9823,1.9485,1.9272,1.9272,1.9272,1.9272,1.9324,1.947,1.9485,1.9338,1.947,1.9433,1.9272,1.9272,1.9272,1.9324,1.9828,2.0138,2.0138,2.0937,2.1378,2.1213,2.1506,2.1525,2.1199,2.1165,2.1079,2.0908,2.072,2.0514,2.0309,2.0292,2.0292,2.0292,2.0138,1.9922,1.9717,1.9358,1.9127,1.8939,1.8751,1.869,1.8815,1.9105,1.9371,1.9542,1.9931,2.0282,2.0303,2.0468,2.0605,2.0605,2.0605,2.0605,2.0644,2.0937,2.1309,2.1523,2.1884,2.202,2.1702,2.1537,2.1377,2.1043,2.0693,2.0458,2.0356,1.9902,1.9622,1.9586,1.9402,1.9311,1.9292,1.9292,1.9292,1.9292,1.9292,1.9292,1.9292,1.9292,1.9292,1.9292,1.9292,1.9292,2.5539,2.5592,2.5524,2.5427,2.5293,2.4451,2.3749,2.3237,2.3149,2.3398,2.3823,2.3866,2.3866,2.3866,2.3866,2.3866,2.3866,2.3866,2.372,2.3501,2.3486,2.3018,2.2242,2.2184,2.1847,2.1276,2.1203,2.1042,2.072,2.0398,2.0033,1.972,1.9456,1.9272,1.9272,1.9272,1.9272,1.9272,1.9272,1.9272,1.9272,1.9272,1.9272,1.9272,1.9272,1.9272,1.9324,1.9828,2.0138,2.0122,2.0857,2.1329,2.1312,2.1539,2.1627,2.1559,2.1542,2.149,2.1405,2.1079,2.08,2.0446,2.0343,2.0292,2.0292,2.0292,2.0172,1.987,1.9734,1.9563,1.935,1.9239,1.9307,1.9504,1.9674,1.9894,2.0232,2.0577,2.0702,2.0688,2.072,2.0742,2.0644,2.0605,2.0605,2.0664,2.0879,2.1074,2.1093,2.1387,2.1481,2.1356,2.1208,2.1126,2.1028,2.058,2.0211,2.0093,1.9691,1.9463,1.9329,1.9311,1.9292,1.9292,1.9292,1.9292,1.9292,1.9292,1.9292,1.9292,1.9292,1.9292,1.9292,1.9292,1.9292,2.5322,2.5524,2.5255,2.4958,2.4665,2.4298,2.3866,2.3515,2.3237,2.3135,2.3237,2.3208,2.3223,2.3208,2.3223,2.3223,2.3223,2.3208,2.3193,2.3164,2.3149,2.2813,2.2228,2.2184,2.1847,2.1276,2.1218,2.1057,2.075,2.0343,1.993,1.9441,1.9286,1.9272,1.9272,1.9272,1.9272,1.9272,1.9272,1.9272,1.9272,1.9272,1.9272,1.9272,1.9272,1.9272,1.9324,1.9828,2.0138,2.0189,2.1081,2.1676,2.171,2.2148,2.2328,2.197,2.1936,2.1799,2.1439,2.1079,2.0874,2.0805,2.0497,2.0309,2.0292,2.0292,2.0292,2.0189,1.9888,1.97,1.9631,1.9418,1.9376,1.9608,1.9805,1.9989,2.0534,2.0922,2.1066,2.0868,2.107,2.1035,2.0703,2.0625,2.0605,2.0605,2.0683,2.0703,2.0723,2.0801,2.086,2.0781,2.0936,2.0953,2.0602,2.037,2.0134,1.9799,1.9604,1.9469,1.939,1.9292,1.9292,1.9292,1.9292,1.9292,1.9292,1.9292,1.9292,1.9292,1.9292,1.9292,1.9292,1.9256,1.9237,2.5187,2.5255,2.5187,2.4929,2.454,2.4218,2.3896,2.3574,2.3252,2.3106,2.3106,2.3106,2.3106,2.3106,2.3106,2.3106,2.3106,2.3106,2.3106,2.3106,2.3106,2.2871,2.2462,2.2257,2.1935,2.1496,2.1306,2.1145,2.094,2.0431,2.0003,1.9647,1.9426,1.9272,1.9272,1.9272,1.9272,1.9272,1.9272,1.9272,1.9272,1.9272,1.9272,1.9272,1.9272,1.9272,1.9324,1.9828,2.0138,2.0189,2.1097,2.1674,2.1725,2.2283,2.2534,2.2379,2.2379,2.2208,2.1782,2.1627,2.1353,2.0925,2.0737,2.0549,2.0309,2.0292,2.0292,2.0275,2.0155,2.0069,2.0052,2.0049,2.0139,2.036,2.058,2.0931,2.141,2.1508,2.156,2.1659,2.1654,2.1445,2.1035,2.0723,2.0625,2.0605,2.0605,2.0605,2.0605,2.0605,2.0605,2.0625,2.0781,2.0762,2.0528,2.0391,2.0216,2.0039,1.9764,1.9566,1.9469,1.935,1.9292,1.9292,1.9274,1.9274,1.9292,1.9292,1.9292,1.9256,1.9274,1.9237,1.9017,1.8962,1.8962,2.5066,2.5066,2.5066,2.492,2.4738,2.4247,2.3954,2.3691,2.3296,2.3106,2.3106,2.3106,2.3106,2.3106,2.3106,2.3106,2.3106,2.3106,2.3106,2.3106,2.3106,2.293,2.2623,2.2418,2.2081,2.1715,2.1467,2.1262,2.1042,2.0475,2.0077,1.9755,1.9433,1.9272,1.9272,1.9272,1.9272,1.9272,1.9272,1.9272,1.9272,1.9272,1.9272,1.9272,1.9272,1.9324,1.9428,1.9828,2.0138,2.0241,2.1165,2.1674,2.1725,2.2283,2.2603,2.2603,2.2603,2.2482,2.2158,2.2055,2.1813,2.1346,2.1238,2.0997,2.0686,2.0583,2.0486,2.0292,2.0382,2.0411,2.0428,2.0564,2.0835,2.1087,2.1302,2.1616,2.205,2.2026,2.2035,2.2221,2.2123,2.1836,2.1288,2.0957,2.0742,2.0644,2.0605,2.0605,2.0605,2.0605,2.0605,2.0605,2.0605,2.0625,2.0566,2.0489,2.0372,2.0274,2.0,1.9803,1.9645,1.9469,1.9292,1.9332,1.9237,1.9109,1.9017,1.9054,1.8981,1.8981,1.8962,1.8907,1.8614,1.8559,1.8559,2.5066,2.5066,2.5066,2.5105,2.5046,2.4349,2.4071,2.3984,2.3384,2.3106,2.3106,2.3106,2.3106,2.3106,2.3106,2.3106,2.3106,2.3106,2.3106,2.3106,2.3106,2.293,2.2637,2.2532,2.2286,2.1803,2.1672,2.135,2.0794,2.0428,2.0077,1.9837,1.9529,1.9286,1.9301,1.9286,1.9272,1.9272,1.9272,1.9272,1.9272,1.9272,1.9272,1.9272,1.9272,1.9428,1.9672,1.9931,2.0189,2.0462,2.1267,2.1674,2.1725,2.2283,2.2603,2.2603,2.2603,2.2585,2.2517,2.2259,2.2068,2.2226,2.1944,2.1595,2.1276,2.1159,2.0957,2.0371,2.0564,2.0699,2.0699,2.0744,2.0925,2.1302,2.1392,2.175,2.2309,2.2359,2.2389,2.2465,2.2438,2.2129,2.1366,2.119,2.1016,2.0781,2.0644,2.0625,2.0605,2.0605,2.0605,2.0605,2.0605,2.0605,2.0605,2.0566,2.0489,2.0372,2.0235,2.0117,1.9803,1.9566,1.9469,1.9298,1.9038,1.8834,1.8705,1.854,1.8375,1.8283,1.8319,1.8265,1.8174,1.8155,1.8192,2.5066,2.5066,2.5066,2.5066,2.4979,2.4364,2.4086,2.4013,2.3384,2.3106,2.3106,2.3106,2.3106,2.3106,2.3106,2.3106,2.3106,2.3106,2.3106,2.3106,2.3106,2.3047,2.293,2.2725,2.252,2.2271,2.1891,2.1467,2.1042,2.0706,2.0501,2.0311,1.9896,1.9579,1.955,1.9374,1.9272,1.9272,1.9272,1.9272,1.9286,1.9272,1.9272,1.9324,1.948,1.9583,1.9724,2.0138,2.0462,2.0719,2.1385,2.1776,2.1979,2.2333,2.2603,2.2603,2.2603,2.2603,2.2636,2.2615,2.2542,2.2397,2.2452,2.2131,2.1666,2.1461,2.1257,2.0877,2.0817,2.0952,2.1105,2.1167,2.1257,2.1526,2.175,2.2043,2.2485,2.2662,2.2736,2.2823,2.2695,2.2363,2.2048,2.1816,2.1484,2.1094,2.0996,2.0859,2.0664,2.0605,2.0605,2.0605,2.0605,2.0605,2.0605,2.0605,2.0566,2.0489,2.0372,2.0255,2.002,1.9764,1.9587,1.9193,1.8876,1.8504,1.8357,1.8174,1.7935,1.7953,1.7972,1.7844,1.777,1.7734,1.7862,2.5066,2.5066,2.5066,2.5066,2.5061,2.4547,2.4174,2.4027,2.3501,2.3208,2.312,2.3106,2.3106,2.3106,2.3106,2.3106,2.3106,2.3106,2.3106,2.3106,2.3106,2.3106,2.3076,2.2886,2.2725,2.2535,2.1993,2.1569,2.1335,2.0925,2.0679,2.0621,2.0179,1.9916,1.9872,1.9696,1.9579,1.9594,1.9594,1.955,1.9462,1.9485,1.9426,1.939,1.9635,1.9828,1.9828,2.0359,2.0771,2.1078,2.1522,2.1979,2.2232,2.2451,2.2603,2.2603,2.2603,2.2603,2.2653,2.2854,2.2933,2.2754,2.2948,2.2774,2.2042,2.1917,2.1621,2.1202,2.1105,2.1195,2.1392,2.1526,2.166,2.1839,2.2043,2.2353,2.2769,2.2813,2.2882,2.2999,2.2847,2.2695,2.2519,2.2266,2.1914,2.1463,2.1307,2.1074,2.0859,2.0683,2.0605,2.0605,2.0605,2.0605,2.0605,2.0605,2.0605,2.0527,2.0489,2.0411,2.0255,1.9942,1.9576,1.9124,1.8675,1.8303,1.799,1.777,1.7715,1.7734,1.7587,1.7386,1.7367,1.7312,1.7532,2.5066,2.5066,2.5066,2.5066,2.5008,2.4738,2.4364,2.4086,2.372,2.3398,2.3193,2.312,2.3106,2.3106,2.3149,2.3135,2.3149,2.3164,2.3135,2.312,2.3106,2.3106,2.3106,2.3076,2.2901,2.2608,2.2023,2.1715,2.1628,2.1115,2.0808,2.0635,2.0373,2.0237,2.0183,2.0124,2.0124,2.011,2.0135,2.0033,1.9798,1.9793,1.9594,1.9449,1.9791,2.0086,2.0138,2.0601,2.1027,2.1318,2.1776,2.2232,2.2502,2.2603,2.2603,2.2603,2.2603,2.2603,2.2653,2.2904,2.3138,2.3335,2.3619,2.3438,2.2731,2.2586,2.2232,2.1428,2.1329,2.1482,2.1526,2.1839,2.2087,2.2106,2.2264,2.253,2.275,2.2794,2.2882,2.3038,2.3042,2.2906,2.2656,2.2539,2.2344,2.1953,2.1621,2.1327,2.119,2.0918,2.0683,2.0644,2.0644,2.0605,2.0605,2.0605,2.0605,2.0605,2.0566,2.0527,2.0411,2.0177,1.9696,1.9222,1.8341,1.7952,1.7458,1.7293,1.7258,1.7258,1.7093,1.7221,1.7367,1.744,1.7348,2.5066,2.5066,2.5066,2.5066,2.509,2.4715,2.451,2.443,2.3852,2.353,2.3413,2.3208,2.3106,2.3164,2.3325,2.3442,2.3442,2.3442,2.3325,2.3149,2.3106,2.3106,2.3106,2.3106,2.293,2.2652,2.2372,2.2096,2.173,2.1481,2.1291,2.1042,2.0735,2.0518,2.0559,2.0314,2.0183,2.0183,2.0183,2.0179,2.0062,1.9872,1.9764,1.9661,1.9963,2.0189,2.0359,2.0858,2.1369,2.1827,2.203,2.2232,2.2552,2.2603,2.2603,2.2603,2.2603,2.2686,2.2887,2.3155,2.3406,2.3705,2.4035,2.3846,2.323,2.3224,2.2898,2.2084,2.2043,2.2087,2.2132,2.2397,2.2485,2.2309,2.253,2.275,2.2925,2.3013,2.3013,2.3101,2.3101,2.3023,2.2925,2.2867,2.2691,2.2363,2.2148,2.1992,2.1699,2.1309,2.1055,2.1016,2.084,2.0742,2.082,2.0879,2.086,2.0781,2.0723,2.0625,2.0489,2.0333,1.987,1.9164,1.8318,1.7616,1.716,1.6982,1.7073,1.722,1.7367,1.7532,1.7697,1.7697,1.7605,2.5066,2.5066,2.5066,2.5066,2.5105,2.4832,2.4671,2.4525,2.4145,2.3896,2.3749,2.3574,2.3471,2.3515,2.3691,2.3779,2.3779,2.3779,2.3676,2.3442,2.3179,2.312,2.3106,2.3106,2.3018,2.2813,2.2681,2.2432,2.2052,2.192,2.1715,2.1393,2.1189,2.1013,2.0911,2.0706,2.0548,2.0603,2.0548,2.0489,2.0358,2.0223,2.0003,1.9876,2.0129,2.0327,2.0545,2.1113,2.1674,2.203,2.2232,2.2384,2.2603,2.2603,2.2603,2.2603,2.2653,2.2703,2.2987,2.3256,2.3555,2.3886,2.4282,2.4268,2.3785,2.3777,2.335,2.282,2.2492,2.2397,2.2441,2.2618,2.2706,2.2574,2.275,2.2969,2.3101,2.3101,2.3101,2.3101,2.3101,2.3023,2.2906,2.3023,2.2906,2.2574,2.25,2.2461,2.2109,2.1758,2.1562,2.1385,2.1348,2.1271,2.1153,2.1153,2.1134,2.1016,2.0879,2.0723,2.0527,2.0469,2.0159,1.92,1.8296,1.7668,1.7176,1.7182,1.7257,1.744,1.766,1.777,1.7917,1.7953,1.7917,2.5066,2.5066,2.5066,2.5066,2.5066,2.5037,2.4943,2.4709,2.454,2.4349,2.413,2.4013,2.4027,2.4057,2.4071,2.4115,2.4101,2.4115,2.4101,2.391,2.3545,2.3223,2.312,2.3106,2.3076,2.3032,2.2813,2.2637,2.2506,2.2301,2.2052,2.1745,2.1642,2.1525,2.1262,2.1218,2.113,2.1101,2.1145,2.0998,2.075,2.0691,2.0413,1.9896,2.0272,2.0564,2.0664,2.1318,2.1878,2.2131,2.2434,2.2552,2.2603,2.2603,2.2603,2.2653,2.2653,2.2804,2.3038,2.3388,2.3687,2.4084,2.4412,2.4459,2.4268,2.3994,2.364,2.3164,2.2758,2.2485,2.253,2.2706,2.2794,2.2838,2.2969,2.3057,2.3101,2.3101,2.3101,2.3101,2.3081,2.2964,2.2715,2.2886,2.2769,2.2574,2.2461,2.2363,2.2266,2.1953,2.1855,2.1738,2.1602,2.1562,2.1387,2.1525,2.1505,2.1407,2.1271,2.1094,2.0879,2.0781,2.0605,1.9544,1.8651,1.7998,1.756,1.7675,1.7696,1.7807,1.799,1.8063,1.8228,1.8356,1.8467,2.5066,2.5066,2.5066,2.5066,2.5066,2.5066,2.5075,2.4891,2.4671,2.4606,2.4474,2.4188,2.413,2.4115,2.4415,2.4503,2.4503,2.4437,2.4437,2.4379,2.4042,2.3545,2.3193,2.3106,2.3106,2.3091,2.3003,2.2857,2.2576,2.255,2.2345,2.2052,2.1847,2.1686,2.1554,2.1335,2.1218,2.1203,2.1203,2.1174,2.1057,2.0837,2.053,2.0204,2.0422,2.0699,2.0854,2.1793,2.2384,2.2434,2.2535,2.2603,2.2603,2.2603,2.2703,2.2837,2.2904,2.3105,2.3488,2.3786,2.4035,2.4381,2.4775,2.4946,2.4593,2.436,2.4009,2.3628,2.3177,2.2901,2.2925,2.2969,2.3013,2.3013,2.3057,2.3101,2.3101,2.3101,2.3101,2.3101,2.3101,2.3003,2.2886,2.2812,2.2695,2.2519,2.2324,2.2148,2.2129,2.1855,2.166,2.1699,2.1641,2.168,2.1699,2.1797,2.1836,2.1777,2.1699,2.1681,2.1426,2.1289,2.1013,2.0448,1.9697,1.8974,1.8601,1.8471,1.8397,1.8359,1.8467,1.863,1.8889,1.9054,1.9091,2.5066,2.5066,2.5066,2.5066,2.5066,2.5066,2.5066,2.509,2.4929,2.4841,2.4797,2.465,2.4496,2.451,2.4753,2.4841,2.4841,2.4841,2.4774,2.4715,2.4423,2.3925,2.3457,2.331,2.3252,2.3106,2.3106,2.3003,2.2857,2.2828,2.2667,2.2403,2.2184,2.1964,2.1672,2.1525,2.1335,2.1233,2.1203,2.1261,2.136,2.1198,2.1044,2.0828,2.0917,2.1065,2.1312,2.1979,2.2434,2.2552,2.2603,2.2603,2.2653,2.2703,2.2854,2.2987,2.3105,2.3406,2.3836,2.4035,2.4332,2.4726,2.5186,2.5217,2.5112,2.4866,2.4531,2.4355,2.3769,2.3477,2.3335,2.3218,2.3101,2.3101,2.3101,2.3101,2.3101,2.3101,2.3101,2.3101,2.3081,2.3003,2.2886,2.275,2.2695,2.2539,2.2363,2.2246,2.2168,2.1758,2.1504,2.1602,2.1699,2.1738,2.1777,2.1855,2.1936,2.1875,2.1875,2.1936,2.1797,2.1621,2.1364,2.1012,2.0507,2.0082,1.9621,1.924,1.9124,1.9082,1.915,1.9237,1.9439,1.9531,1.9586,2.5066,2.5066,2.5066,2.5066,2.5066,2.5066,2.5066,2.5066,2.5037,2.509,2.5022,2.5052,2.4964,2.5066,2.4979,2.5037,2.5105,2.5075,2.5022,2.4935,2.4715,2.4291,2.3793,2.3574,2.3427,2.3223,2.3149,2.3091,2.3047,2.3076,2.2945,2.2696,2.2608,2.2286,2.1935,2.1759,2.1569,2.1434,2.1375,2.1489,2.166,2.1672,2.1605,2.1536,2.1542,2.1602,2.1737,2.208,2.2333,2.2653,2.2636,2.2703,2.2703,2.2887,2.3038,2.3138,2.3388,2.3687,2.4084,2.4282,2.4529,2.5137,2.5284,2.543,2.5509,2.5254,2.4961,2.4902,2.4297,2.3887,2.3691,2.3418,2.3179,2.314,2.3101,2.3101,2.3101,2.3101,2.3101,2.3101,2.3101,2.2886,2.2769,2.2769,2.2886,2.2539,2.2324,2.209,2.1953,2.166,2.1543,2.1621,2.1699,2.1777,2.1836,2.1936,2.1936,2.1894,2.1894,2.1936,2.1936,2.1758,2.1641,2.1346,2.0935,2.0623,2.0312,2.0039,1.9786,1.9571,1.9413,1.9608,1.9879,1.9857,1.9893,2.5066,2.5066,2.5066,2.5066,2.5066,2.5066,2.5066,2.5066,2.5066,2.5066,2.5066,2.5066,2.5066,2.5066,2.5066,2.5066,2.5066,2.5066,2.5066,2.5105,2.5075,2.4744,2.4291,2.3896,2.3574,2.3427,2.3223,2.312,2.3106,2.3106,2.3076,2.2988,2.274,2.2568,2.2409,2.2186,2.1989,2.1892,2.1888,2.1945,2.2059,2.2044,2.2061,2.204,2.2071,2.2064,2.2096,2.2333,2.2585,2.2837,2.2904,2.2904,2.2937,2.3188,2.3388,2.3587,2.3836,2.4084,2.443,2.4775,2.5088,2.5284,2.5479,2.5625,2.5654,2.5352,2.5165,2.5028,2.459,2.418,2.3867,2.373,2.3516,2.3257,2.314,2.312,2.3101,2.3101,2.3101,2.3101,2.3101,2.3062,2.2945,2.2754,2.2695,2.25,2.2246,2.1914,2.1758,2.1621,2.1543,2.1582,2.1523,2.1543,2.1523,2.1584,2.1584,2.1603,2.1642,2.1662,2.1681,2.176,2.1523,2.1465,2.1385,2.111,2.0894,2.0466,2.0135,1.9918,1.9696,1.9798,1.992,2.0044,2.0278,2.5066,2.5066,2.5066,2.5066,2.5066,2.5066,2.5066,2.5066,2.5066,2.5066,2.5066,2.5066,2.5066,2.5066,2.5066,2.5066,2.5066,2.5066,2.5066,2.5052,2.5119,2.5031,2.4774,2.4291,2.394,2.3647,2.3442,2.3281,2.3149,2.3106,2.3106,2.3106,2.3039,2.3017,2.2871,2.2646,2.2579,2.2548,2.2405,2.2456,2.2683,2.2724,2.2735,2.2718,2.2724,2.263,2.245,2.2519,2.2721,2.2955,2.3105,2.3206,2.3256,2.3538,2.3786,2.3935,2.4282,2.4578,2.4873,2.5137,2.5333,2.5479,2.5645,2.5693,2.5654,2.5508,2.541,2.5293,2.498,2.4551,2.4141,2.4082,2.3867,2.3574,2.3437,2.3335,2.3159,2.3101,2.3101,2.3101,2.3101,2.3101,2.2984,2.2808,2.2789,2.2812,2.2539,2.2227,2.2109,2.1934,2.1543,2.1385,2.1288,2.125,2.1191,2.1192,2.1134,2.1114,2.1094,2.1114,2.1114,2.1251,2.1388,2.1367,2.1426,2.1621,2.1343,2.0933,2.0465,2.0282,2.0117,1.9972,2.0016,2.0264,2.0576,2.5066,2.5066,2.5066,2.5066,2.5066,2.5066,2.5066,2.5066,2.5066,2.5066,2.5066,2.5066,2.5066,2.5066,2.5066,2.5066,2.5066,2.5066,2.5066,2.5066,2.5066,2.5105,2.5002,2.4686,2.4335,2.3779,2.3603,2.3427,2.3252,2.3135,2.3106,2.3168,2.3417,2.3441,2.3278,2.3261,2.3306,2.331,2.3051,2.3022,2.3416,2.3456,2.3445,2.3376,2.3382,2.3142,2.2858,2.2775,2.2873,2.3055,2.3356,2.3506,2.3655,2.3886,2.4183,2.4233,2.4677,2.499,2.5186,2.5333,2.5479,2.5693,2.5674,2.5674,2.5674,2.5654,2.5664,2.5586,2.5352,2.5,2.459,2.4512,2.4316,2.4004,2.3887,2.3711,2.3393,2.3276,2.3335,2.3101,2.3101,2.3101,2.3101,2.3003,2.3062,2.3042,2.275,2.2539,2.2422,2.2246,2.1875,2.1582,2.1523,2.1484,2.1426,2.1406,2.1289,2.1113,2.0997,2.0938,2.0879,2.086,2.1094,2.1309,2.1445,2.1523,2.1405,2.0935,2.0641,2.0612,2.0332,2.0018,2.0172,2.0526,2.0704,2.5066,2.5066,2.5066,2.5066,2.5066,2.5066,2.5066,2.5066,2.5066,2.5066,2.5066,2.5066,2.5066,2.5066,2.5066,2.5066,2.5066,2.5066,2.5066,2.5066,2.5066,2.5066,2.5022,2.5031,2.4782,2.4349,2.3954,2.3632,2.3442,2.3267,2.3149,2.3183,2.3479,2.3624,2.3809,2.3873,2.397,2.4113,2.3885,2.3762,2.3865,2.3904,2.3828,2.3825,2.3891,2.3642,2.3253,2.3272,2.3337,2.3391,2.3737,2.4053,2.4282,2.443,2.4529,2.4745,2.5039,2.5284,2.5333,2.5528,2.5645,2.5693,2.5674,2.5674,2.5674,2.5674,2.5674,2.5674,2.5644,2.543,2.5019,2.4961,2.4746,2.4453,2.4297,2.4258,2.416,2.4062,2.3828,2.3393,2.3237,2.3101,2.3101,2.3101,2.3101,2.3101,2.2964,2.273,2.2617,2.248,2.2266,2.2012,2.1816,2.1797,2.1777,2.1797,2.1738,2.1562,2.1406,2.131,2.1153,2.0762,2.082,2.129,2.1212,2.0937,2.084,2.0761,2.0643,2.0445,2.0227,2.0029,2.022,2.0444,2.0484,2.5549,2.5549,2.5549,2.5447,2.5315,2.5301,2.5213,2.5066,2.5066,2.5066,2.5066,2.5066,2.5066,2.5066,2.5066,2.5066,2.5066,2.5066,2.5066,2.5066,2.5066,2.5066,2.5066,2.5066,2.4979,2.473,2.4335,2.3896,2.3603,2.3457,2.3281,2.326,2.3604,2.4024,2.433,2.4515,2.4681,2.4845,2.4611,2.4384,2.4329,2.4384,2.4361,2.4353,2.4224,2.4096,2.4015,2.3774,2.3893,2.4101,2.4295,2.4585,2.4801,2.4922,2.499,2.5137,2.5333,2.5479,2.5479,2.5645,2.5693,2.5693,2.5674,2.5674,2.5674,2.5674,2.5674,2.5674,2.5674,2.5615,2.543,2.5391,2.5195,2.4863,2.4746,2.4648,2.4512,2.4453,2.418,2.3764,2.3691,2.3496,2.3101,2.3101,2.3101,2.3101,2.3101,2.2964,2.2769,2.2672,2.2555,2.25,2.2305,2.2305,2.2305,2.2305,2.2207,2.2012,2.1973,2.1816,2.1799,2.1584,2.1407,2.1544,2.1212,2.0957,2.0644,2.0703,2.0508,2.0391,2.033,2.0245,2.0267,2.0305,2.0463,2.6018,2.6018,2.6018,2.5827,2.5549,2.5535,2.5344,2.5096,2.5066,2.5066,2.5066,2.5066,2.5066,2.5066,2.5066,2.5066,2.5066,2.5066,2.5066,2.5066,2.5066,2.5066,2.5066,2.5066,2.5037,2.5031,2.4855,2.443,2.3925,2.3647,2.3442,2.347,2.3803,2.4363,2.4701,2.4932,2.5255,2.5445,2.5266,2.5082,2.4962,2.4932,2.4881,2.4812,2.4449,2.4442,2.4522,2.4473,2.4542,2.4736,2.4891,2.5026,2.5358,2.5391,2.5401,2.545,2.5596,2.5674,2.5693,2.5693,2.5674,2.5674,2.5674,2.5674,2.5674,2.5674,2.5674,2.5674,2.5674,2.5674,2.5615,2.5654,2.5547,2.5332,2.5176,2.5098,2.4902,2.4805,2.4746,2.4453,2.4199,2.3867,2.3535,2.334,2.3379,2.3101,2.3101,2.3101,2.2945,2.2984,2.2906,2.291,2.2852,2.2852,2.2871,2.2847,2.2715,2.2461,2.2539,2.2601,2.2578,2.2578,2.2383,2.2129,2.1875,2.1621,2.1173,2.084,2.0995,2.0953,2.068,2.0598,2.0737,2.078,2.0824,2.6018,2.6018,2.6018,2.5827,2.5549,2.5535,2.5344,2.5081,2.5066,2.5066,2.5066,2.5066,2.5066,2.5066,2.5066,2.5066,2.5066,2.5066,2.5066,2.5066,2.5066,2.5119,2.5134,2.5066,2.5187,2.5255,2.5143,2.487,2.4496,2.3946,2.3667,2.3661,2.3926,2.4425,2.501,2.5303,2.5777,2.6177,2.5912,2.5611,2.536,2.5275,2.5104,2.4915,2.4744,2.4737,2.4839,2.4951,2.5164,2.5326,2.54,2.5566,2.5852,2.5722,2.5684,2.5645,2.5693,2.5674,2.5693,2.5674,2.5674,2.5674,2.5674,2.5674,2.5674,2.5674,2.5674,2.5674,2.5674,2.5674,2.5674,2.5674,2.5635,2.5596,2.5547,2.5566,2.5421,2.5167,2.5156,2.5078,2.4805,2.4355,2.3965,2.3769,2.3594,2.334,2.3101,2.3101,2.3101,2.3101,2.314,2.3081,2.3262,2.3301,2.334,2.3335,2.3257,2.2988,2.3125,2.3325,2.3359,2.3359,2.3164,2.2867,2.2695,2.2363,2.1894,2.1699,2.1719,2.1678,2.1554,2.1453,2.1368,2.1355,2.1433,2.6018,2.6018,2.6018,2.5827,2.5549,2.5535,2.5344,2.511,2.5066,2.5066,2.5066,2.5066,2.5066,2.5066,2.5066,2.5066,2.5066,2.5066,2.5066,2.5119,2.5119,2.5187,2.539,2.539,2.5457,2.5592,2.5659,2.5682,2.5188,2.4494,2.3872,2.3955,2.4049,2.4548,2.5288,2.5692,2.6097,2.6279,2.6073,2.5816,2.5686,2.548,2.5292,2.5177,2.5082,2.5096,2.5302,2.5702,2.5989,2.6188,2.6305,2.6308,2.6234,2.6142,2.6035,2.5713,2.5996,2.5996,2.5732,2.5713,2.5732,2.5713,2.5713,2.5674,2.5674,2.5713,2.5713,2.5674,2.5674,2.5693,2.5713,2.5674,2.5674,2.5674,2.5674,2.5674,2.5674,2.5674,2.5538,2.5508,2.5391,2.4941,2.4453,2.4102,2.3887,2.3652,2.3315,2.314,2.312,2.3101,2.3159,2.3198,2.3457,2.3691,2.375,2.3809,2.3842,2.373,2.3789,2.3965,2.4121,2.4082,2.3906,2.3803,2.375,2.332,2.2754,2.2559,2.2598,2.2555,2.2512,2.2446,2.2418,2.2563,2.2624,2.5842,2.5798,2.5944,2.5827,2.5535,2.5535,2.5344,2.5149,2.5066,2.5066,2.5066,2.5066,2.5066,2.5066,2.5066,2.5066,2.5066,2.5066,2.5066,2.5119,2.5187,2.539,2.5524,2.5674,2.5861,2.613,2.5996,2.5981,2.5747,2.5236,2.4625,2.4344,2.4439,2.4827,2.5472,2.5989,2.6402,2.6619,2.6439,2.6234,2.6045,2.572,2.5572,2.5444,2.537,2.5404,2.5789,2.6263,2.6604,2.6937,2.6989,2.6904,2.6824,2.6641,2.6445,2.6269,2.6426,2.6426,2.625,2.6152,2.6055,2.6005,2.6005,2.6122,2.6133,2.6055,2.6005,2.6103,2.5977,2.5908,2.583,2.5791,2.5674,2.5674,2.5674,2.5674,2.5674,2.5674,2.5674,2.5615,2.5566,2.5527,2.5039,2.4512,2.418,2.3945,2.3652,2.332,2.3218,2.3218,2.3335,2.3496,2.3594,2.3809,2.3848,2.4004,2.416,2.4231,2.4336,2.4336,2.4297,2.459,2.4707,2.4687,2.4629,2.4504,2.4114,2.3744,2.3413,2.3413,2.3432,2.3479,2.3551,2.368,2.3745,2.5388,2.5169,2.5769,2.5798,2.552,2.5535,2.5344,2.5066,2.5066,2.5066,2.5066,2.5066,2.5066,2.5066,2.5066,2.5066,2.5066,2.5066,2.5066,2.5187,2.539,2.5524,2.5727,2.5928,2.613,2.6264,2.6398,2.6398,2.6172,2.6261,2.5627,2.5126,2.5125,2.5276,2.5733,2.6361,2.6692,2.6936,2.685,2.6713,2.6439,2.6155,2.5869,2.5718,2.5482,2.5459,2.6063,2.65,2.6916,2.7289,2.7362,2.7342,2.7312,2.7109,2.6894,2.6797,2.6875,2.6894,2.6836,2.6758,2.6855,2.6894,2.6855,2.6738,2.6699,2.6836,2.6894,2.6758,2.6484,2.6367,2.623,2.6035,2.583,2.5791,2.5791,2.5674,2.5674,2.5674,2.5674,2.5674,2.5635,2.5625,2.5586,2.5039,2.4648,2.4414,2.4023,2.3711,2.3594,2.3594,2.3711,2.3789,2.3789,2.3828,2.3789,2.3906,2.3958,2.4095,2.4192,2.418,2.4121,2.4531,2.5098,2.5234,2.5137,2.5323,2.5401,2.4758,2.4329,2.4336,2.4329,2.4361,2.4473,2.4624,2.4677,2.5169,2.5163,2.533,2.5359,2.5242,2.5242,2.5169,2.5149,2.5066,2.5066,2.5066,2.5066,2.5066,2.5066,2.5066,2.5066,2.5066,2.5066,2.5066,2.5187,2.539,2.5659,2.5996,2.6465,2.6867,2.7067,2.7267,2.7467,2.7485,2.7196,2.7052,2.6665,2.6149,2.6156,2.6521,2.6688,2.6969,2.7012,2.7073,2.697,2.691,2.671,2.6446,2.6162,2.6246,2.6186,2.6446,2.6881,2.726,2.7599,2.7786,2.7771,2.7734,2.75,2.7324,2.7168,2.7285,2.7402,2.7344,2.7207,2.7012,2.7012,2.6992,2.7051,2.7109,2.7051,2.7012,2.6934,2.6894,2.6777,2.6719,2.6406,2.6152,2.6025,2.5927,2.583,2.581,2.5869,2.5869,2.5947,2.5791,2.5654,2.5615,2.5566,2.5215,2.4883,2.4473,2.4121,2.3984,2.3906,2.4004,2.4062,2.4062,2.4082,2.4062,2.3984,2.3842,2.3978,2.4134,2.4238,2.4297,2.4648,2.5137,2.5352,2.5499,2.5538,2.5499,2.5362,2.5167,2.4992,2.505,2.5206,2.533,2.5468,2.5538,2.5066,2.5066,2.5066,2.5066,2.5066,2.5066,2.5066,2.5066,2.5066,2.5066,2.5066,2.5066,2.5066,2.5066,2.5066,2.5066,2.5066,2.5066,2.5066,2.5255,2.5524,2.5928,2.6398,2.6934,2.7467,2.7849,2.813,2.8196,2.8114,2.8064,2.7981,2.7766,2.7336,2.7273,2.6901,2.7095,2.709,2.7073,2.7073,2.7194,2.7185,2.7036,2.7111,2.6822,2.6852,2.6827,2.7012,2.7319,2.7584,2.7853,2.8062,2.8125,2.8022,2.7865,2.7676,2.7617,2.7637,2.7904,2.7806,2.7617,2.7402,2.75,2.748,2.7461,2.7383,2.7383,2.7519,2.7461,2.7344,2.7207,2.7187,2.6836,2.6602,2.6523,2.6445,2.6348,2.6278,2.6298,2.6259,2.6239,2.6142,2.6211,2.6211,2.6172,2.5664,2.5293,2.4844,2.4492,2.4258,2.4219,2.4277,2.4316,2.4316,2.4355,2.4394,2.4336,2.4231,2.4258,2.4414,2.4551,2.4707,2.5106,2.5176,2.5254,2.543,2.5596,2.5635,2.5538,2.5557,2.5615,2.5693,2.5711,2.5856,2.5956,2.6194,2.5066,2.5066,2.5066,2.5066,2.5066,2.5066,2.5066,2.5066,2.5066,2.5066,2.5066,2.5066,2.5066,2.5066,2.5066,2.5066,2.5066,2.5066,2.5066,2.5187,2.5727,2.6197,2.68,2.7318,2.7932,2.8196,2.8395,2.8461,2.8395,2.8592,2.8723,2.8688,2.8429,2.8065,2.7221,2.7156,2.709,2.7133,2.7133,2.7297,2.7391,2.7327,2.7446,2.7553,2.7482,2.7455,2.7696,2.7761,2.7953,2.8149,2.8213,2.8242,2.8203,2.8184,2.8144,2.8164,2.8184,2.8242,2.8242,2.8242,2.8144,2.8066,2.7969,2.8027,2.8164,2.8184,2.8105,2.793,2.7832,2.7676,2.7519,2.7285,2.7109,2.6973,2.6875,2.6738,2.6699,2.6699,2.6571,2.6532,2.6797,2.6953,2.6934,2.6777,2.6191,2.5703,2.5302,2.4961,2.4824,2.4902,2.5098,2.5137,2.5195,2.5176,2.5215,2.4805,2.4648,2.4629,2.4844,2.5195,2.5352,2.5605,2.5586,2.5371,2.5625,2.6064,2.5927,2.5732,2.5957,2.6212,2.6073,2.6119,2.6235,2.6428,2.6655,2.5066,2.5066,2.5066,2.5066,2.5066,2.5066,2.5066,2.5066,2.5066,2.5066,2.5066,2.5066,2.5066,2.5066,2.5066,2.5066,2.5066,2.5066,2.5066,2.5187,2.5794,2.6264,2.6867,2.76,2.8263,2.8593,2.879,2.8922,2.8988,2.9053,2.9119,2.91,2.9086,2.861,2.7996,2.7739,2.7713,2.7712,2.7719,2.7779,2.7822,2.7937,2.8074,2.825,2.8231,2.837,2.852,2.8452,2.8404,2.8435,2.8535,2.834,2.832,2.832,2.8301,2.8301,2.8301,2.8301,2.8301,2.8281,2.8281,2.8301,2.8301,2.8301,2.8301,2.8301,2.8301,2.8281,2.8144,2.8027,2.8008,2.7676,2.748,2.7363,2.7246,2.7012,2.6914,2.6934,2.6914,2.6894,2.7012,2.709,2.7129,2.7266,2.6836,2.666,2.6309,2.6191,2.6074,2.6191,2.6367,2.6367,2.6367,2.6269,2.6044,2.5723,2.5664,2.5801,2.6035,2.6367,2.6445,2.625,2.6289,2.623,2.6406,2.6532,2.6395,2.6348,2.6624,2.6774,2.6635,2.6415,2.6403,2.6701,2.7051,2.5066,2.5066,2.5066,2.5066,2.5066,2.5066,2.5066,2.5066,2.5066,2.5066,2.5066,2.5066,2.5066,2.5066,2.5066,2.5066,2.5066,2.5066,2.5255,2.5322,2.5794,2.6465,2.72,2.7865,2.8461,2.8922,2.9119,2.9233,2.9233,2.9299,2.9364,2.9509,2.9578,2.9496,2.903,2.8738,2.8237,2.8129,2.8101,2.808,2.8319,2.8504,2.8728,2.8938,2.9064,2.9203,2.9201,2.9119,2.8939,2.8969,2.8789,2.8535,2.8496,2.8379,2.834,2.8301,2.8301,2.8301,2.8301,2.8301,2.8301,2.8301,2.8301,2.8301,2.8301,2.8301,2.8301,2.8301,2.8301,2.8281,2.8223,2.791,2.7851,2.7754,2.7676,2.7441,2.7441,2.7461,2.7461,2.7402,2.7383,2.7402,2.7402,2.75,2.75,2.748,2.7441,2.7305,2.7129,2.7129,2.7129,2.709,2.7031,2.6836,2.6738,2.668,2.6719,2.6953,2.707,2.7129,2.6953,2.668,2.6894,2.7012,2.6934,2.6875,2.6934,2.7024,2.7055,2.714,2.7103,2.6883,2.6632,2.7008,2.7489,2.5066,2.5066,2.5066,2.5066,2.5066,2.5066,2.5066,2.5066,2.5066,2.5066,2.5066,2.5066,2.5066,2.5066,2.5066,2.5066,2.5134,2.5119,2.5322,2.5659,2.6063,2.68,2.7517,2.813,2.8725,2.9119,2.9299,2.9299,2.9299,2.9364,2.9561,2.9887,3.0225,3.0391,3.0167,2.9715,2.9151,2.9015,2.8805,2.8859,2.914,2.9071,2.9372,2.9557,2.9755,2.9834,2.9832,2.9694,2.9592,2.9434,2.918,2.9023,2.8809,2.8555,2.8418,2.8379,2.8418,2.8476,2.8496,2.8535,2.8516,2.8574,2.8496,2.8398,2.8301,2.8301,2.8301,2.8301,2.8301,2.8301,2.8242,2.8223,2.8203,2.8184,2.8184,2.8125,2.8144,2.8144,2.8144,2.8105,2.8086,2.8066,2.8027,2.8066,2.791,2.7949,2.7871,2.7715,2.7559,2.7402,2.7402,2.7363,2.7305,2.7187,2.7187,2.7324,2.7383,2.75,2.7383,2.7383,2.7207,2.7187,2.7363,2.7402,2.7187,2.7187,2.7383,2.7363,2.7226,2.7365,2.7691,2.7502,2.7321,2.7574,2.7931,2.5066,2.5066,2.5066,2.5066,2.5066,2.5066,2.5066,2.5066,2.5066,2.5066,2.5066,2.5066,2.5066,2.5066,2.5066,2.5066,2.5187,2.5322,2.5457,2.5861,2.6465,2.7134,2.7716,2.8329,2.8856,2.9185,2.9316,2.9364,2.943,2.9495,3.0018,3.0538,3.0879,3.1203,3.1302,3.112,3.0705,3.0352,2.9939,2.9855,2.9886,2.9814,3.0016,3.0158,3.0257,3.0277,3.0431,3.0197,3.0059,2.9941,2.9609,2.9394,2.9355,2.9258,2.9199,2.9219,2.9219,2.9219,2.9199,2.9199,2.9141,2.9101,2.9121,2.8769,2.8535,2.8359,2.8359,2.832,2.8379,2.8418,2.8457,2.8457,2.8496,2.8516,2.8535,2.8535,2.8535,2.8535,2.8516,2.8398,2.8398,2.8301,2.8301,2.8262,2.8144,2.8242,2.8223,2.8066,2.7949,2.7793,2.7715,2.7695,2.7695,2.7637,2.7793,2.7949,2.7949,2.7969,2.7812,2.7754,2.7812,2.7832,2.7891,2.7832,2.7676,2.7773,2.7969,2.7851,2.7656,2.8167,2.8448,2.8164,2.8056,2.8246,2.8507,2.5066,2.5066,2.5066,2.5066,2.5066,2.5066,2.5066,2.5066,2.5066,2.5066,2.5066,2.5066,2.5066,2.5066,2.5119,2.5187,2.5322,2.5524,2.5794,2.6532,2.6934,2.7533,2.813,2.8593,2.9053,2.9316,2.9495,2.9626,2.9774,3.0083,3.0602,3.1055,3.1442,3.1846,3.2117,3.2182,3.218,3.1737,3.1356,3.0975,3.0689,3.0479,3.0544,3.0547,3.0587,3.0704,3.0879,3.0547,3.0488,3.041,3.0059,2.9824,2.9766,2.9668,2.9551,2.9512,2.9512,2.9492,2.9473,2.9512,2.9551,2.959,2.9609,2.9297,2.8984,2.875,2.8535,2.8359,2.8476,2.8574,2.8633,2.8672,2.875,2.8828,2.8828,2.8828,2.8828,2.8828,2.8711,2.8574,2.8457,2.834,2.8301,2.832,2.8301,2.8301,2.8301,2.8242,2.8184,2.8125,2.8066,2.8066,2.8125,2.8164,2.8301,2.8301,2.8223,2.8164,2.8144,2.8144,2.8301,2.8262,2.8125,2.8164,2.8223,2.8242,2.8203,2.8242,2.8217,2.8601,2.8814,2.8685,2.8582,2.8758,2.9007,2.5075,2.5008,2.5119,2.5066,2.5066,2.5066,2.5119,2.5119,2.5187,2.5119,2.5119,2.5066,2.5119,2.5187,2.5187,2.5457,2.5727,2.5928,2.6398,2.7267,2.76,2.8064,2.8593,2.8939,2.9447,2.9757,2.9887,3.0035,3.0426,3.0685,3.0991,3.1442,3.1846,3.2294,3.2638,3.281,3.2865,3.2792,3.2123,3.1558,3.1219,3.1048,3.0993,3.0898,3.0898,3.0898,3.0898,3.0879,3.0898,3.0742,3.0547,3.0273,3.0156,3.0,2.9844,2.9805,2.9883,2.9883,2.9902,2.9959,2.9844,2.9805,2.9687,2.9668,2.9512,2.916,2.8887,2.8769,2.8887,2.8965,2.9023,2.9121,2.9199,2.9219,2.9219,2.9219,2.9219,2.9199,2.9141,2.8984,2.8867,2.875,2.873,2.8769,2.8809,2.8574,2.8535,2.8555,2.8535,2.8535,2.8418,2.8398,2.8301,2.8301,2.8301,2.8301,2.8301,2.8281,2.8301,2.8301,2.8301,2.8301,2.8301,2.8301,2.8301,2.8301,2.8281,2.8301,2.8335,2.8441,2.8654,2.9026,2.9161,2.9208,2.9548,2.4753,2.4715,2.5017,2.5066,2.5052,2.5066,2.5255,2.5457,2.5472,2.5292,2.5119,2.5119,2.5255,2.5457,2.5524,2.5794,2.6331,2.6599,2.7051,2.7783,2.8246,2.8725,2.9316,2.9709,3.01,3.0165,3.0296,3.0555,3.0879,3.1202,3.1442,3.1846,3.223,3.274,3.2912,3.3102,3.3272,3.3316,3.2956,3.2289,3.1888,3.1501,3.1269,3.1035,3.0918,3.0918,3.0918,3.0898,3.0898,3.084,3.0801,3.0742,3.0723,3.0605,3.0566,3.0566,3.0469,3.043,3.043,3.041,3.041,3.0488,3.0469,3.0293,3.0059,2.9648,2.9414,2.9336,2.9316,2.9375,2.9453,2.9551,2.9648,2.9648,2.9648,2.9648,2.9648,2.959,2.9551,2.9434,2.9316,2.9238,2.9199,2.9219,2.9333,2.9333,2.9297,2.9297,2.9219,2.916,2.8769,2.8672,2.8379,2.832,2.8301,2.8301,2.8301,2.8301,2.8301,2.8301,2.8301,2.8301,2.8301,2.8301,2.8301,2.8301,2.8301,2.8301,2.8354,2.8388,2.8654,2.9026,2.9343,2.9402,2.9922,2.4349,2.4459,2.4701,2.4893,2.4938,2.5041,2.5226,2.5372,2.5555,2.5489,2.5366,2.5509,2.5659,2.5861,2.5996,2.6316,2.6918,2.7267,2.7849,2.851,2.9036,2.9495,2.997,3.0426,3.0815,3.0944,3.1202,3.146,3.1525,3.1717,3.2038,3.2294,3.274,3.2975,3.3102,3.3292,3.3418,3.3418,3.3418,3.3047,3.248,3.2148,3.1719,3.1406,3.1152,3.1113,3.0918,3.0898,3.0898,3.0898,3.0859,3.0859,3.0859,3.082,3.0859,3.0859,3.084,3.0898,3.0898,3.0898,3.0898,3.0898,3.0898,3.0586,3.0586,3.0215,2.9844,2.9766,2.9785,2.9824,2.9961,3.0059,3.0254,3.0332,3.0332,3.0332,3.0195,3.0078,2.998,2.9863,2.9668,2.9434,2.9414,2.9414,2.9509,2.9509,2.9607,2.9629,2.9629,2.9726,2.9336,2.9023,2.8789,2.8437,2.8301,2.8301,2.8301,2.8301,2.8398,2.834,2.8359,2.832,2.8301,2.834,2.834,2.8301,2.8301,2.8354,2.8408,2.8568,2.8814,2.9132,2.9396,2.9659,3.0109,2.4042,2.4115,2.4459,2.4627,2.4665,2.5035,2.5217,2.5298,2.5589,2.5798,2.5892,2.6145,2.6178,2.6275,2.6588,2.6937,2.7403,2.7899,2.8559,2.9168,2.9561,3.0148,3.0685,3.1073,3.146,3.1763,3.2038,3.2166,3.223,3.2358,3.2549,3.2848,3.2975,3.3102,3.3292,3.3418,3.3418,3.3418,3.3379,3.3223,3.2988,3.2793,3.2246,3.1836,3.1562,3.1406,3.1172,3.0996,3.1016,3.0937,3.0957,3.0898,3.0898,3.0898,3.0898,3.0898,3.0898,3.0898,3.0898,3.0898,3.0898,3.0898,3.0898,3.0879,3.0859,3.0684,3.0312,3.0234,3.0254,3.0293,3.041,3.0508,3.0703,3.082,3.082,3.082,3.0644,3.0488,3.0391,3.0254,3.0059,2.9805,2.9766,2.9746,2.9726,2.9707,2.9707,2.9726,2.9805,2.998,2.9902,2.9629,2.9394,2.9004,2.8613,2.8555,2.8633,2.8711,2.8809,2.8594,2.8496,2.8691,2.8691,2.8457,2.8437,2.8457,2.8447,2.8461,2.8568,2.8767,2.9026,2.9343,2.9501,2.9816,3.0256,2.3837,2.4151,2.4485,2.4585,2.467,2.5264,2.5636,2.5944,2.6232,2.652,2.6711,2.6792,2.6794,2.6552,2.6937,2.7393,2.7998,2.854,2.9134,2.9674,3.0408,3.0926,3.1442,3.1846,3.2166,3.2358,3.2466,3.2422,3.2613,3.274,3.2848,3.2931,3.3228,3.3292,3.3355,3.3418,3.3418,3.3418,3.3418,3.332,3.3223,3.2949,3.2539,3.2226,3.2031,3.1992,3.1855,3.1562,3.1465,3.1309,3.1074,3.0937,3.0898,3.0898,3.0898,3.0898,3.0898,3.0898,3.0898,3.0898,3.0898,3.0898,3.0898,3.0898,3.0879,3.0879,3.0664,3.0664,3.0664,3.0664,3.0742,3.0742,3.0859,3.0859,3.0859,3.0859,3.0781,3.0742,3.0703,3.0664,3.0605,3.0488,3.0488,3.0469,3.0469,3.0449,3.043,3.0449,3.0391,3.043,3.041,3.0195,2.9961,2.9726,2.9414,2.9199,2.9219,2.9258,2.9238,2.9082,2.9082,2.9297,2.9238,2.8906,2.8804,2.8785,2.8756,2.8844,2.89,2.9133,2.9331,2.9554,2.9711,2.9973,3.0391]}]]